<?xml version="1.0" encoding="UTF-8" standalone="no" ?>
<gpx xmlns="http://www.topografix.com/GPX/1/1" xmlns:xsi="http://www.w3.org/2001/XMLSchema-instance" xsi:schemaLocation="http://www.topografix.com/GPX/1/1 http://www.topografix.com/GPX/1/1/gpx.xsd" version="1.1" creator="VisuGPX - https://www.visugpx.com">
  <metadata>
    <name>circuit 15 allongé Berge lac Montbel</name>
    <desc><![CDATA[Beau parcours ensoleillé, très divers fleurant le lac de Montbel.]]></desc>
  </metadata>
  <trk>
    <name><![CDATA[MIREVAL  28 12 2016]]></name>
    <trkseg>
      <trkpt lat="42.96939" lon="1.87127">
        <ele>451.48</ele>
        <time>2016-12-28T12:35:45Z</time>
      </trkpt>
      <trkpt lat="42.96939" lon="1.87127">
        <ele>451.48</ele>
        <time>2016-12-28T12:35:47Z</time>
      </trkpt>
      <trkpt lat="42.9694" lon="1.87119">
        <ele>452.44</ele>
        <time>2016-12-28T12:36:13Z</time>
      </trkpt>
      <trkpt lat="42.96937" lon="1.87122">
        <ele>452.44</ele>
        <time>2016-12-28T12:36:43Z</time>
      </trkpt>
      <trkpt lat="42.96938" lon="1.87122">
        <ele>452.44</ele>
        <time>2016-12-28T12:37:15Z</time>
      </trkpt>
      <trkpt lat="42.96938" lon="1.87121">
        <ele>452.92</ele>
        <time>2016-12-28T12:37:43Z</time>
      </trkpt>
      <trkpt lat="42.9694" lon="1.87122">
        <ele>452.92</ele>
        <time>2016-12-28T12:38:04Z</time>
      </trkpt>
      <trkpt lat="42.96934" lon="1.87122">
        <ele>452.92</ele>
        <time>2016-12-28T12:38:18Z</time>
      </trkpt>
      <trkpt lat="42.96938" lon="1.87124">
        <ele>451.48</ele>
        <time>2016-12-28T12:38:39Z</time>
      </trkpt>
      <trkpt lat="42.9694" lon="1.87124">
        <ele>452.92</ele>
        <time>2016-12-28T12:38:56Z</time>
      </trkpt>
      <trkpt lat="42.96933" lon="1.87117">
        <ele>449.55</ele>
        <time>2016-12-28T12:39:07Z</time>
      </trkpt>
      <trkpt lat="42.9693" lon="1.8711">
        <ele>450.52</ele>
        <time>2016-12-28T12:39:12Z</time>
      </trkpt>
      <trkpt lat="42.96939" lon="1.87123">
        <ele>451.96</ele>
        <time>2016-12-28T13:07:02Z</time>
      </trkpt>
      <trkpt lat="42.96938" lon="1.87122">
        <ele>451.96</ele>
        <time>2016-12-28T13:07:04Z</time>
      </trkpt>
      <trkpt lat="42.96935" lon="1.8712">
        <ele>448.59</ele>
        <time>2016-12-28T13:07:17Z</time>
      </trkpt>
      <trkpt lat="42.96936" lon="1.8712">
        <ele>446.19</ele>
        <time>2016-12-28T13:07:33Z</time>
      </trkpt>
      <trkpt lat="42.96934" lon="1.8712">
        <ele>445.71</ele>
        <time>2016-12-28T13:07:36Z</time>
      </trkpt>
      <trkpt lat="42.96942" lon="1.87145">
        <ele>444.75</ele>
        <time>2016-12-28T13:07:47Z</time>
      </trkpt>
      <trkpt lat="42.96951" lon="1.87165">
        <ele>444.75</ele>
        <time>2016-12-28T13:07:58Z</time>
      </trkpt>
      <trkpt lat="42.96948" lon="1.87173">
        <ele>441.86</ele>
        <time>2016-12-28T13:08:23Z</time>
      </trkpt>
      <trkpt lat="42.9695" lon="1.87174">
        <ele>440.9</ele>
        <time>2016-12-28T13:08:42Z</time>
      </trkpt>
      <trkpt lat="42.96951" lon="1.87175">
        <ele>440.9</ele>
        <time>2016-12-28T13:08:44Z</time>
      </trkpt>
      <trkpt lat="42.96974" lon="1.87167">
        <ele>440.9</ele>
        <time>2016-12-28T13:08:57Z</time>
      </trkpt>
      <trkpt lat="42.97005" lon="1.87134">
        <ele>439.46</ele>
        <time>2016-12-28T13:09:07Z</time>
      </trkpt>
      <trkpt lat="42.97018" lon="1.87117">
        <ele>439.46</ele>
        <time>2016-12-28T13:09:13Z</time>
      </trkpt>
      <trkpt lat="42.9702" lon="1.87118">
        <ele>439.46</ele>
        <time>2016-12-28T13:09:14Z</time>
      </trkpt>
      <trkpt lat="42.97023" lon="1.8712">
        <ele>440.42</ele>
        <time>2016-12-28T13:09:16Z</time>
      </trkpt>
      <trkpt lat="42.97024" lon="1.8712">
        <ele>440.42</ele>
        <time>2016-12-28T13:09:17Z</time>
      </trkpt>
      <trkpt lat="42.97026" lon="1.87118">
        <ele>440.42</ele>
        <time>2016-12-28T13:09:18Z</time>
      </trkpt>
      <trkpt lat="42.97028" lon="1.87115">
        <ele>440.42</ele>
        <time>2016-12-28T13:09:19Z</time>
      </trkpt>
      <trkpt lat="42.97029" lon="1.87113">
        <ele>440.42</ele>
        <time>2016-12-28T13:09:20Z</time>
      </trkpt>
      <trkpt lat="42.9703" lon="1.87111">
        <ele>440.42</ele>
        <time>2016-12-28T13:09:21Z</time>
      </trkpt>
      <trkpt lat="42.97031" lon="1.87109">
        <ele>440.42</ele>
        <time>2016-12-28T13:09:22Z</time>
      </trkpt>
      <trkpt lat="42.97033" lon="1.87108">
        <ele>440.42</ele>
        <time>2016-12-28T13:09:23Z</time>
      </trkpt>
      <trkpt lat="42.97035" lon="1.87107">
        <ele>438.98</ele>
        <time>2016-12-28T13:09:25Z</time>
      </trkpt>
      <trkpt lat="42.97037" lon="1.87106">
        <ele>439.46</ele>
        <time>2016-12-28T13:09:26Z</time>
      </trkpt>
      <trkpt lat="42.97082" lon="1.87128">
        <ele>437.54</ele>
        <time>2016-12-28T13:09:39Z</time>
      </trkpt>
      <trkpt lat="42.97127" lon="1.87143">
        <ele>438.02</ele>
        <time>2016-12-28T13:09:52Z</time>
      </trkpt>
      <trkpt lat="42.97166" lon="1.87143">
        <ele>438.02</ele>
        <time>2016-12-28T13:10:08Z</time>
      </trkpt>
      <trkpt lat="42.97206" lon="1.87142">
        <ele>437.06</ele>
        <time>2016-12-28T13:10:21Z</time>
      </trkpt>
      <trkpt lat="42.97244" lon="1.87133">
        <ele>435.61</ele>
        <time>2016-12-28T13:10:32Z</time>
      </trkpt>
      <trkpt lat="42.97252" lon="1.87132">
        <ele>436.1</ele>
        <time>2016-12-28T13:10:40Z</time>
      </trkpt>
      <trkpt lat="42.97251" lon="1.87129">
        <ele>436.1</ele>
        <time>2016-12-28T13:11:09Z</time>
      </trkpt>
      <trkpt lat="42.97252" lon="1.87133">
        <ele>436.1</ele>
        <time>2016-12-28T13:11:36Z</time>
      </trkpt>
      <trkpt lat="42.97252" lon="1.87132">
        <ele>436.1</ele>
        <time>2016-12-28T13:12:01Z</time>
      </trkpt>
      <trkpt lat="42.97252" lon="1.87134">
        <ele>437.54</ele>
        <time>2016-12-28T13:12:30Z</time>
      </trkpt>
      <trkpt lat="42.97251" lon="1.87132">
        <ele>437.54</ele>
        <time>2016-12-28T13:12:50Z</time>
      </trkpt>
      <trkpt lat="42.97254" lon="1.8713">
        <ele>437.54</ele>
        <time>2016-12-28T13:12:58Z</time>
      </trkpt>
      <trkpt lat="42.9728" lon="1.87122">
        <ele>436.1</ele>
        <time>2016-12-28T13:13:10Z</time>
      </trkpt>
      <trkpt lat="42.97336" lon="1.8711">
        <ele>435.13</ele>
        <time>2016-12-28T13:13:22Z</time>
      </trkpt>
      <trkpt lat="42.97381" lon="1.87095">
        <ele>436.58</ele>
        <time>2016-12-28T13:13:33Z</time>
      </trkpt>
      <trkpt lat="42.97387" lon="1.87094">
        <ele>436.58</ele>
        <time>2016-12-28T13:13:35Z</time>
      </trkpt>
      <trkpt lat="42.97389" lon="1.87097">
        <ele>436.58</ele>
        <time>2016-12-28T13:13:36Z</time>
      </trkpt>
      <trkpt lat="42.97385" lon="1.87108">
        <ele>438.02</ele>
        <time>2016-12-28T13:13:43Z</time>
      </trkpt>
      <trkpt lat="42.97383" lon="1.87106">
        <ele>438.5</ele>
        <time>2016-12-28T13:13:58Z</time>
      </trkpt>
      <trkpt lat="42.97376" lon="1.87108">
        <ele>438.5</ele>
        <time>2016-12-28T13:14:03Z</time>
      </trkpt>
      <trkpt lat="42.97365" lon="1.8711">
        <ele>439.94</ele>
        <time>2016-12-28T13:14:10Z</time>
      </trkpt>
      <trkpt lat="42.97339" lon="1.87127">
        <ele>442.82</ele>
        <time>2016-12-28T13:14:25Z</time>
      </trkpt>
      <trkpt lat="42.97312" lon="1.87145">
        <ele>446.19</ele>
        <time>2016-12-28T13:14:41Z</time>
      </trkpt>
      <trkpt lat="42.9729" lon="1.87163">
        <ele>449.55</ele>
        <time>2016-12-28T13:14:55Z</time>
      </trkpt>
      <trkpt lat="42.97269" lon="1.87179">
        <ele>451.96</ele>
        <time>2016-12-28T13:15:09Z</time>
      </trkpt>
      <trkpt lat="42.97256" lon="1.87191">
        <ele>453.4</ele>
        <time>2016-12-28T13:15:19Z</time>
      </trkpt>
      <trkpt lat="42.9725" lon="1.87197">
        <ele>454.36</ele>
        <time>2016-12-28T13:15:25Z</time>
      </trkpt>
      <trkpt lat="42.97249" lon="1.87199">
        <ele>454.36</ele>
        <time>2016-12-28T13:15:26Z</time>
      </trkpt>
      <trkpt lat="42.97249" lon="1.872">
        <ele>454.36</ele>
        <time>2016-12-28T13:15:27Z</time>
      </trkpt>
      <trkpt lat="42.97248" lon="1.87202">
        <ele>454.84</ele>
        <time>2016-12-28T13:15:28Z</time>
      </trkpt>
      <trkpt lat="42.97247" lon="1.87204">
        <ele>454.84</ele>
        <time>2016-12-28T13:15:29Z</time>
      </trkpt>
      <trkpt lat="42.97246" lon="1.87205">
        <ele>454.84</ele>
        <time>2016-12-28T13:15:30Z</time>
      </trkpt>
      <trkpt lat="42.97245" lon="1.87207">
        <ele>454.84</ele>
        <time>2016-12-28T13:15:31Z</time>
      </trkpt>
      <trkpt lat="42.97244" lon="1.87208">
        <ele>455.32</ele>
        <time>2016-12-28T13:15:32Z</time>
      </trkpt>
      <trkpt lat="42.97243" lon="1.8721">
        <ele>455.32</ele>
        <time>2016-12-28T13:15:33Z</time>
      </trkpt>
      <trkpt lat="42.97242" lon="1.87211">
        <ele>455.32</ele>
        <time>2016-12-28T13:15:34Z</time>
      </trkpt>
      <trkpt lat="42.97241" lon="1.87213">
        <ele>455.32</ele>
        <time>2016-12-28T13:15:35Z</time>
      </trkpt>
      <trkpt lat="42.97239" lon="1.87214">
        <ele>455.32</ele>
        <time>2016-12-28T13:15:36Z</time>
      </trkpt>
      <trkpt lat="42.97221" lon="1.8724">
        <ele>457.72</ele>
        <time>2016-12-28T13:15:51Z</time>
      </trkpt>
      <trkpt lat="42.97203" lon="1.87267">
        <ele>459.65</ele>
        <time>2016-12-28T13:16:06Z</time>
      </trkpt>
      <trkpt lat="42.97184" lon="1.87295">
        <ele>462.05</ele>
        <time>2016-12-28T13:16:21Z</time>
      </trkpt>
      <trkpt lat="42.97173" lon="1.87317">
        <ele>462.53</ele>
        <time>2016-12-28T13:16:33Z</time>
      </trkpt>
      <trkpt lat="42.97171" lon="1.87322">
        <ele>463.49</ele>
        <time>2016-12-28T13:16:35Z</time>
      </trkpt>
      <trkpt lat="42.97156" lon="1.87348">
        <ele>465.42</ele>
        <time>2016-12-28T13:16:48Z</time>
      </trkpt>
      <trkpt lat="42.9714" lon="1.87374">
        <ele>467.82</ele>
        <time>2016-12-28T13:17:02Z</time>
      </trkpt>
      <trkpt lat="42.97121" lon="1.87397">
        <ele>470.22</ele>
        <time>2016-12-28T13:17:16Z</time>
      </trkpt>
      <trkpt lat="42.97096" lon="1.87413">
        <ele>473.11</ele>
        <time>2016-12-28T13:17:32Z</time>
      </trkpt>
      <trkpt lat="42.9708" lon="1.87433">
        <ele>475.51</ele>
        <time>2016-12-28T13:17:46Z</time>
      </trkpt>
      <trkpt lat="42.9707" lon="1.8746">
        <ele>475.99</ele>
        <time>2016-12-28T13:17:59Z</time>
      </trkpt>
      <trkpt lat="42.97057" lon="1.87503">
        <ele>478.39</ele>
        <time>2016-12-28T13:18:16Z</time>
      </trkpt>
      <trkpt lat="42.97051" lon="1.87514">
        <ele>479.84</ele>
        <time>2016-12-28T13:18:22Z</time>
      </trkpt>
      <trkpt lat="42.97048" lon="1.87517">
        <ele>479.84</ele>
        <time>2016-12-28T13:18:24Z</time>
      </trkpt>
      <trkpt lat="42.97047" lon="1.87518">
        <ele>479.84</ele>
        <time>2016-12-28T13:18:25Z</time>
      </trkpt>
      <trkpt lat="42.97044" lon="1.8752">
        <ele>479.84</ele>
        <time>2016-12-28T13:18:31Z</time>
      </trkpt>
      <trkpt lat="42.97045" lon="1.87521">
        <ele>479.84</ele>
        <time>2016-12-28T13:18:32Z</time>
      </trkpt>
      <trkpt lat="42.97047" lon="1.87525">
        <ele>479.84</ele>
        <time>2016-12-28T13:18:34Z</time>
      </trkpt>
      <trkpt lat="42.97047" lon="1.87527">
        <ele>479.84</ele>
        <time>2016-12-28T13:18:35Z</time>
      </trkpt>
      <trkpt lat="42.97048" lon="1.87534">
        <ele>479.84</ele>
        <time>2016-12-28T13:18:51Z</time>
      </trkpt>
      <trkpt lat="42.97048" lon="1.87534">
        <ele>480.32</ele>
        <time>2016-12-28T13:19:16Z</time>
      </trkpt>
      <trkpt lat="42.97047" lon="1.87534">
        <ele>480.32</ele>
        <time>2016-12-28T13:19:44Z</time>
      </trkpt>
      <trkpt lat="42.97049" lon="1.87534">
        <ele>480.32</ele>
        <time>2016-12-28T13:20:02Z</time>
      </trkpt>
      <trkpt lat="42.97047" lon="1.87543">
        <ele>480.32</ele>
        <time>2016-12-28T13:20:17Z</time>
      </trkpt>
      <trkpt lat="42.9705" lon="1.87598">
        <ele>476.47</ele>
        <time>2016-12-28T13:20:29Z</time>
      </trkpt>
      <trkpt lat="42.97053" lon="1.87627">
        <ele>475.99</ele>
        <time>2016-12-28T13:20:33Z</time>
      </trkpt>
      <trkpt lat="42.97052" lon="1.87662">
        <ele>475.51</ele>
        <time>2016-12-28T13:20:38Z</time>
      </trkpt>
      <trkpt lat="42.97048" lon="1.87689">
        <ele>474.55</ele>
        <time>2016-12-28T13:20:42Z</time>
      </trkpt>
      <trkpt lat="42.97041" lon="1.87784">
        <ele>471.18</ele>
        <time>2016-12-28T13:20:54Z</time>
      </trkpt>
      <trkpt lat="42.97044" lon="1.87938">
        <ele>469.26</ele>
        <time>2016-12-28T13:21:11Z</time>
      </trkpt>
      <trkpt lat="42.97049" lon="1.88043">
        <ele>468.3</ele>
        <time>2016-12-28T13:21:24Z</time>
      </trkpt>
      <trkpt lat="42.97042" lon="1.88159">
        <ele>468.3</ele>
        <time>2016-12-28T13:21:40Z</time>
      </trkpt>
      <trkpt lat="42.97032" lon="1.88236">
        <ele>468.3</ele>
        <time>2016-12-28T13:21:53Z</time>
      </trkpt>
      <trkpt lat="42.97032" lon="1.88247">
        <ele>469.74</ele>
        <time>2016-12-28T13:21:55Z</time>
      </trkpt>
      <trkpt lat="42.97032" lon="1.88253">
        <ele>469.74</ele>
        <time>2016-12-28T13:21:56Z</time>
      </trkpt>
      <trkpt lat="42.97033" lon="1.88372">
        <ele>468.78</ele>
        <time>2016-12-28T13:22:14Z</time>
      </trkpt>
      <trkpt lat="42.97025" lon="1.88475">
        <ele>468.3</ele>
        <time>2016-12-28T13:22:29Z</time>
      </trkpt>
      <trkpt lat="42.97027" lon="1.88592">
        <ele>467.34</ele>
        <time>2016-12-28T13:22:45Z</time>
      </trkpt>
      <trkpt lat="42.97031" lon="1.88618">
        <ele>467.34</ele>
        <time>2016-12-28T13:22:49Z</time>
      </trkpt>
      <trkpt lat="42.97032" lon="1.88684">
        <ele>469.74</ele>
        <time>2016-12-28T13:23:02Z</time>
      </trkpt>
      <trkpt lat="42.97022" lon="1.8876">
        <ele>470.22</ele>
        <time>2016-12-28T13:23:18Z</time>
      </trkpt>
      <trkpt lat="42.97023" lon="1.888">
        <ele>468.78</ele>
        <time>2016-12-28T13:23:27Z</time>
      </trkpt>
      <trkpt lat="42.97025" lon="1.88803">
        <ele>468.78</ele>
        <time>2016-12-28T13:23:28Z</time>
      </trkpt>
      <trkpt lat="42.97028" lon="1.88805">
        <ele>468.78</ele>
        <time>2016-12-28T13:23:29Z</time>
      </trkpt>
      <trkpt lat="42.97083" lon="1.88837">
        <ele>467.82</ele>
        <time>2016-12-28T13:23:43Z</time>
      </trkpt>
      <trkpt lat="42.97089" lon="1.88841">
        <ele>469.26</ele>
        <time>2016-12-28T13:23:45Z</time>
      </trkpt>
      <trkpt lat="42.97124" lon="1.88861">
        <ele>472.63</ele>
        <time>2016-12-28T13:23:58Z</time>
      </trkpt>
      <trkpt lat="42.97148" lon="1.88866">
        <ele>475.51</ele>
        <time>2016-12-28T13:24:10Z</time>
      </trkpt>
      <trkpt lat="42.97172" lon="1.8886">
        <ele>478.87</ele>
        <time>2016-12-28T13:24:21Z</time>
      </trkpt>
      <trkpt lat="42.97199" lon="1.88856">
        <ele>481.76</ele>
        <time>2016-12-28T13:24:35Z</time>
      </trkpt>
      <trkpt lat="42.97233" lon="1.88877">
        <ele>484.16</ele>
        <time>2016-12-28T13:24:53Z</time>
      </trkpt>
      <trkpt lat="42.97263" lon="1.88896">
        <ele>486.08</ele>
        <time>2016-12-28T13:25:08Z</time>
      </trkpt>
      <trkpt lat="42.97301" lon="1.88919">
        <ele>488.01</ele>
        <time>2016-12-28T13:25:28Z</time>
      </trkpt>
      <trkpt lat="42.97316" lon="1.88932">
        <ele>488.01</ele>
        <time>2016-12-28T13:25:40Z</time>
      </trkpt>
      <trkpt lat="42.97316" lon="1.88934">
        <ele>488.97</ele>
        <time>2016-12-28T13:25:55Z</time>
      </trkpt>
      <trkpt lat="42.97317" lon="1.88936">
        <ele>488.97</ele>
        <time>2016-12-28T13:25:56Z</time>
      </trkpt>
      <trkpt lat="42.97318" lon="1.88937">
        <ele>488.97</ele>
        <time>2016-12-28T13:25:57Z</time>
      </trkpt>
      <trkpt lat="42.97322" lon="1.88942">
        <ele>487.53</ele>
        <time>2016-12-28T13:26:00Z</time>
      </trkpt>
      <trkpt lat="42.97335" lon="1.88993">
        <ele>484.64</ele>
        <time>2016-12-28T13:26:10Z</time>
      </trkpt>
      <trkpt lat="42.97343" lon="1.89023">
        <ele>481.28</ele>
        <time>2016-12-28T13:26:14Z</time>
      </trkpt>
      <trkpt lat="42.97345" lon="1.89032">
        <ele>481.28</ele>
        <time>2016-12-28T13:26:15Z</time>
      </trkpt>
      <trkpt lat="42.97362" lon="1.89079">
        <ele>478.87</ele>
        <time>2016-12-28T13:26:20Z</time>
      </trkpt>
      <trkpt lat="42.9738" lon="1.89115">
        <ele>475.51</ele>
        <time>2016-12-28T13:26:24Z</time>
      </trkpt>
      <trkpt lat="42.97395" lon="1.89138">
        <ele>474.07</ele>
        <time>2016-12-28T13:26:27Z</time>
      </trkpt>
      <trkpt lat="42.97415" lon="1.89173">
        <ele>470.22</ele>
        <time>2016-12-28T13:26:31Z</time>
      </trkpt>
      <trkpt lat="42.97428" lon="1.89207">
        <ele>467.34</ele>
        <time>2016-12-28T13:26:34Z</time>
      </trkpt>
      <trkpt lat="42.9744" lon="1.89242">
        <ele>463.97</ele>
        <time>2016-12-28T13:26:37Z</time>
      </trkpt>
      <trkpt lat="42.97453" lon="1.89279">
        <ele>460.61</ele>
        <time>2016-12-28T13:26:40Z</time>
      </trkpt>
      <trkpt lat="42.97459" lon="1.89305">
        <ele>459.17</ele>
        <time>2016-12-28T13:26:42Z</time>
      </trkpt>
      <trkpt lat="42.97473" lon="1.89423">
        <ele>455.8</ele>
        <time>2016-12-28T13:26:51Z</time>
      </trkpt>
      <trkpt lat="42.97492" lon="1.89506">
        <ele>452.44</ele>
        <time>2016-12-28T13:26:58Z</time>
      </trkpt>
      <trkpt lat="42.97512" lon="1.8955">
        <ele>449.55</ele>
        <time>2016-12-28T13:27:02Z</time>
      </trkpt>
      <trkpt lat="42.97528" lon="1.89583">
        <ele>446.19</ele>
        <time>2016-12-28T13:27:05Z</time>
      </trkpt>
      <trkpt lat="42.97557" lon="1.89644">
        <ele>442.34</ele>
        <time>2016-12-28T13:27:11Z</time>
      </trkpt>
      <trkpt lat="42.9757" lon="1.89675">
        <ele>438.5</ele>
        <time>2016-12-28T13:27:14Z</time>
      </trkpt>
      <trkpt lat="42.97583" lon="1.89709">
        <ele>436.58</ele>
        <time>2016-12-28T13:27:17Z</time>
      </trkpt>
      <trkpt lat="42.97599" lon="1.89754">
        <ele>433.69</ele>
        <time>2016-12-28T13:27:21Z</time>
      </trkpt>
      <trkpt lat="42.97615" lon="1.89802">
        <ele>430.33</ele>
        <time>2016-12-28T13:27:25Z</time>
      </trkpt>
      <trkpt lat="42.97619" lon="1.89813">
        <ele>430.33</ele>
        <time>2016-12-28T13:27:26Z</time>
      </trkpt>
      <trkpt lat="42.97626" lon="1.89833">
        <ele>430.33</ele>
        <time>2016-12-28T13:27:28Z</time>
      </trkpt>
      <trkpt lat="42.97629" lon="1.8984">
        <ele>430.33</ele>
        <time>2016-12-28T13:27:29Z</time>
      </trkpt>
      <trkpt lat="42.97632" lon="1.89846">
        <ele>430.33</ele>
        <time>2016-12-28T13:27:30Z</time>
      </trkpt>
      <trkpt lat="42.97636" lon="1.89852">
        <ele>430.33</ele>
        <time>2016-12-28T13:27:31Z</time>
      </trkpt>
      <trkpt lat="42.9764" lon="1.89858">
        <ele>430.33</ele>
        <time>2016-12-28T13:27:32Z</time>
      </trkpt>
      <trkpt lat="42.97663" lon="1.89887">
        <ele>426.96</ele>
        <time>2016-12-28T13:27:37Z</time>
      </trkpt>
      <trkpt lat="42.97699" lon="1.89929">
        <ele>423.6</ele>
        <time>2016-12-28T13:27:43Z</time>
      </trkpt>
      <trkpt lat="42.97733" lon="1.89963">
        <ele>419.75</ele>
        <time>2016-12-28T13:27:48Z</time>
      </trkpt>
      <trkpt lat="42.97741" lon="1.8997">
        <ele>419.75</ele>
        <time>2016-12-28T13:27:49Z</time>
      </trkpt>
      <trkpt lat="42.97755" lon="1.89982">
        <ele>418.79</ele>
        <time>2016-12-28T13:27:51Z</time>
      </trkpt>
      <trkpt lat="42.97763" lon="1.89986">
        <ele>418.31</ele>
        <time>2016-12-28T13:27:52Z</time>
      </trkpt>
      <trkpt lat="42.97771" lon="1.89991">
        <ele>417.83</ele>
        <time>2016-12-28T13:27:53Z</time>
      </trkpt>
      <trkpt lat="42.97779" lon="1.89994">
        <ele>417.83</ele>
        <time>2016-12-28T13:27:54Z</time>
      </trkpt>
      <trkpt lat="42.97882" lon="1.90054">
        <ele>416.39</ele>
        <time>2016-12-28T13:28:08Z</time>
      </trkpt>
      <trkpt lat="42.97888" lon="1.90056">
        <ele>416.39</ele>
        <time>2016-12-28T13:28:09Z</time>
      </trkpt>
      <trkpt lat="42.97895" lon="1.90058">
        <ele>416.39</ele>
        <time>2016-12-28T13:28:10Z</time>
      </trkpt>
      <trkpt lat="42.97901" lon="1.90058">
        <ele>415.43</ele>
        <time>2016-12-28T13:28:11Z</time>
      </trkpt>
      <trkpt lat="42.97908" lon="1.90057">
        <ele>413.98</ele>
        <time>2016-12-28T13:28:12Z</time>
      </trkpt>
      <trkpt lat="42.97947" lon="1.90052">
        <ele>410.62</ele>
        <time>2016-12-28T13:28:17Z</time>
      </trkpt>
      <trkpt lat="42.97954" lon="1.90053">
        <ele>410.62</ele>
        <time>2016-12-28T13:28:18Z</time>
      </trkpt>
      <trkpt lat="42.97961" lon="1.90057">
        <ele>410.14</ele>
        <time>2016-12-28T13:28:19Z</time>
      </trkpt>
      <trkpt lat="42.97966" lon="1.90064">
        <ele>409.66</ele>
        <time>2016-12-28T13:28:20Z</time>
      </trkpt>
      <trkpt lat="42.97969" lon="1.90073">
        <ele>408.22</ele>
        <time>2016-12-28T13:28:21Z</time>
      </trkpt>
      <trkpt lat="42.9797" lon="1.90082">
        <ele>407.26</ele>
        <time>2016-12-28T13:28:22Z</time>
      </trkpt>
      <trkpt lat="42.97971" lon="1.90093">
        <ele>406.29</ele>
        <time>2016-12-28T13:28:23Z</time>
      </trkpt>
      <trkpt lat="42.97971" lon="1.90103">
        <ele>405.33</ele>
        <time>2016-12-28T13:28:24Z</time>
      </trkpt>
      <trkpt lat="42.97969" lon="1.9014">
        <ele>402.45</ele>
        <time>2016-12-28T13:28:27Z</time>
      </trkpt>
      <trkpt lat="42.97969" lon="1.90155">
        <ele>401.49</ele>
        <time>2016-12-28T13:28:28Z</time>
      </trkpt>
      <trkpt lat="42.97972" lon="1.90167">
        <ele>400.53</ele>
        <time>2016-12-28T13:28:29Z</time>
      </trkpt>
      <trkpt lat="42.97978" lon="1.90179">
        <ele>399.08</ele>
        <time>2016-12-28T13:28:30Z</time>
      </trkpt>
      <trkpt lat="42.97985" lon="1.90188">
        <ele>398.12</ele>
        <time>2016-12-28T13:28:31Z</time>
      </trkpt>
      <trkpt lat="42.97994" lon="1.90196">
        <ele>397.16</ele>
        <time>2016-12-28T13:28:32Z</time>
      </trkpt>
      <trkpt lat="42.98002" lon="1.90204">
        <ele>396.68</ele>
        <time>2016-12-28T13:28:33Z</time>
      </trkpt>
      <trkpt lat="42.9801" lon="1.9021">
        <ele>396.68</ele>
        <time>2016-12-28T13:28:34Z</time>
      </trkpt>
      <trkpt lat="42.98057" lon="1.90242">
        <ele>398.6</ele>
        <time>2016-12-28T13:28:40Z</time>
      </trkpt>
      <trkpt lat="42.98063" lon="1.90248">
        <ele>398.6</ele>
        <time>2016-12-28T13:28:41Z</time>
      </trkpt>
      <trkpt lat="42.98068" lon="1.90255">
        <ele>399.08</ele>
        <time>2016-12-28T13:28:42Z</time>
      </trkpt>
      <trkpt lat="42.98074" lon="1.90262">
        <ele>398.6</ele>
        <time>2016-12-28T13:28:43Z</time>
      </trkpt>
      <trkpt lat="42.98079" lon="1.90269">
        <ele>397.64</ele>
        <time>2016-12-28T13:28:44Z</time>
      </trkpt>
      <trkpt lat="42.98084" lon="1.90276">
        <ele>397.64</ele>
        <time>2016-12-28T13:28:45Z</time>
      </trkpt>
      <trkpt lat="42.98091" lon="1.90283">
        <ele>396.68</ele>
        <time>2016-12-28T13:28:46Z</time>
      </trkpt>
      <trkpt lat="42.98098" lon="1.90289">
        <ele>395.72</ele>
        <time>2016-12-28T13:28:47Z</time>
      </trkpt>
      <trkpt lat="42.98105" lon="1.90293">
        <ele>394.76</ele>
        <time>2016-12-28T13:28:48Z</time>
      </trkpt>
      <trkpt lat="42.98113" lon="1.90295">
        <ele>394.76</ele>
        <time>2016-12-28T13:28:49Z</time>
      </trkpt>
      <trkpt lat="42.98121" lon="1.90296">
        <ele>399.08</ele>
        <time>2016-12-28T13:28:50Z</time>
      </trkpt>
      <trkpt lat="42.98129" lon="1.90297">
        <ele>400.05</ele>
        <time>2016-12-28T13:28:51Z</time>
      </trkpt>
      <trkpt lat="42.98159" lon="1.90299">
        <ele>396.68</ele>
        <time>2016-12-28T13:28:55Z</time>
      </trkpt>
      <trkpt lat="42.98179" lon="1.90302">
        <ele>395.24</ele>
        <time>2016-12-28T13:28:58Z</time>
      </trkpt>
      <trkpt lat="42.98265" lon="1.90313">
        <ele>395.24</ele>
        <time>2016-12-28T13:29:14Z</time>
      </trkpt>
      <trkpt lat="42.9834" lon="1.90324">
        <ele>395.24</ele>
        <time>2016-12-28T13:29:30Z</time>
      </trkpt>
      <trkpt lat="42.98406" lon="1.90337">
        <ele>395.24</ele>
        <time>2016-12-28T13:29:46Z</time>
      </trkpt>
      <trkpt lat="42.98431" lon="1.90375">
        <ele>395.24</ele>
        <time>2016-12-28T13:29:59Z</time>
      </trkpt>
      <trkpt lat="42.98475" lon="1.90426">
        <ele>394.28</ele>
        <time>2016-12-28T13:30:14Z</time>
      </trkpt>
      <trkpt lat="42.98492" lon="1.9044">
        <ele>395.72</ele>
        <time>2016-12-28T13:30:19Z</time>
      </trkpt>
      <trkpt lat="42.98495" lon="1.90443">
        <ele>394.28</ele>
        <time>2016-12-28T13:30:20Z</time>
      </trkpt>
      <trkpt lat="42.98498" lon="1.90448">
        <ele>393.8</ele>
        <time>2016-12-28T13:30:21Z</time>
      </trkpt>
      <trkpt lat="42.98501" lon="1.90453">
        <ele>393.32</ele>
        <time>2016-12-28T13:30:22Z</time>
      </trkpt>
      <trkpt lat="42.98503" lon="1.90458">
        <ele>393.32</ele>
        <time>2016-12-28T13:30:23Z</time>
      </trkpt>
      <trkpt lat="42.98506" lon="1.90463">
        <ele>393.32</ele>
        <time>2016-12-28T13:30:24Z</time>
      </trkpt>
      <trkpt lat="42.98511" lon="1.90474">
        <ele>392.84</ele>
        <time>2016-12-28T13:30:26Z</time>
      </trkpt>
      <trkpt lat="42.98512" lon="1.90479">
        <ele>392.84</ele>
        <time>2016-12-28T13:30:27Z</time>
      </trkpt>
      <trkpt lat="42.98513" lon="1.90484">
        <ele>392.84</ele>
        <time>2016-12-28T13:30:28Z</time>
      </trkpt>
      <trkpt lat="42.98513" lon="1.90491">
        <ele>392.84</ele>
        <time>2016-12-28T13:30:29Z</time>
      </trkpt>
      <trkpt lat="42.98513" lon="1.90497">
        <ele>392.84</ele>
        <time>2016-12-28T13:30:30Z</time>
      </trkpt>
      <trkpt lat="42.98513" lon="1.90503">
        <ele>392.84</ele>
        <time>2016-12-28T13:30:31Z</time>
      </trkpt>
      <trkpt lat="42.9852" lon="1.9054">
        <ele>392.36</ele>
        <time>2016-12-28T13:30:38Z</time>
      </trkpt>
      <trkpt lat="42.98524" lon="1.90544">
        <ele>391.39</ele>
        <time>2016-12-28T13:30:39Z</time>
      </trkpt>
      <trkpt lat="42.98529" lon="1.90547">
        <ele>391.39</ele>
        <time>2016-12-28T13:30:40Z</time>
      </trkpt>
      <trkpt lat="42.98534" lon="1.90549">
        <ele>390.43</ele>
        <time>2016-12-28T13:30:41Z</time>
      </trkpt>
      <trkpt lat="42.98539" lon="1.9055">
        <ele>390.43</ele>
        <time>2016-12-28T13:30:42Z</time>
      </trkpt>
      <trkpt lat="42.98625" lon="1.90564">
        <ele>388.99</ele>
        <time>2016-12-28T13:30:57Z</time>
      </trkpt>
      <trkpt lat="42.98648" lon="1.90571">
        <ele>388.99</ele>
        <time>2016-12-28T13:31:01Z</time>
      </trkpt>
      <trkpt lat="42.98653" lon="1.90575">
        <ele>388.99</ele>
        <time>2016-12-28T13:31:02Z</time>
      </trkpt>
      <trkpt lat="42.98658" lon="1.90579">
        <ele>388.99</ele>
        <time>2016-12-28T13:31:03Z</time>
      </trkpt>
      <trkpt lat="42.98724" lon="1.90661">
        <ele>387.55</ele>
        <time>2016-12-28T13:31:18Z</time>
      </trkpt>
      <trkpt lat="42.98746" lon="1.90725">
        <ele>386.59</ele>
        <time>2016-12-28T13:31:27Z</time>
      </trkpt>
      <trkpt lat="42.98752" lon="1.90737">
        <ele>386.59</ele>
        <time>2016-12-28T13:31:29Z</time>
      </trkpt>
      <trkpt lat="42.98756" lon="1.90742">
        <ele>386.59</ele>
        <time>2016-12-28T13:31:30Z</time>
      </trkpt>
      <trkpt lat="42.9876" lon="1.90747">
        <ele>386.59</ele>
        <time>2016-12-28T13:31:31Z</time>
      </trkpt>
      <trkpt lat="42.98791" lon="1.90772">
        <ele>386.59</ele>
        <time>2016-12-28T13:31:38Z</time>
      </trkpt>
      <trkpt lat="42.98837" lon="1.90813">
        <ele>388.03</ele>
        <time>2016-12-28T13:31:49Z</time>
      </trkpt>
      <trkpt lat="42.98842" lon="1.90816">
        <ele>388.03</ele>
        <time>2016-12-28T13:31:50Z</time>
      </trkpt>
      <trkpt lat="42.98846" lon="1.90818">
        <ele>388.03</ele>
        <time>2016-12-28T13:31:51Z</time>
      </trkpt>
      <trkpt lat="42.98851" lon="1.90819">
        <ele>388.03</ele>
        <time>2016-12-28T13:31:52Z</time>
      </trkpt>
      <trkpt lat="42.98856" lon="1.90819">
        <ele>388.03</ele>
        <time>2016-12-28T13:31:53Z</time>
      </trkpt>
      <trkpt lat="42.9886" lon="1.90819">
        <ele>388.03</ele>
        <time>2016-12-28T13:31:54Z</time>
      </trkpt>
      <trkpt lat="42.98877" lon="1.90818">
        <ele>388.99</ele>
        <time>2016-12-28T13:32:03Z</time>
      </trkpt>
      <trkpt lat="42.98879" lon="1.90822">
        <ele>388.99</ele>
        <time>2016-12-28T13:32:11Z</time>
      </trkpt>
      <trkpt lat="42.9888" lon="1.90823">
        <ele>388.99</ele>
        <time>2016-12-28T13:32:12Z</time>
      </trkpt>
      <trkpt lat="42.98882" lon="1.90827">
        <ele>389.47</ele>
        <time>2016-12-28T13:32:25Z</time>
      </trkpt>
      <trkpt lat="42.98884" lon="1.90828">
        <ele>389.47</ele>
        <time>2016-12-28T13:32:48Z</time>
      </trkpt>
      <trkpt lat="42.98885" lon="1.90828">
        <ele>389.47</ele>
        <time>2016-12-28T13:33:15Z</time>
      </trkpt>
      <trkpt lat="42.98885" lon="1.90829">
        <ele>389.47</ele>
        <time>2016-12-28T13:33:48Z</time>
      </trkpt>
      <trkpt lat="42.98885" lon="1.90828">
        <ele>389.47</ele>
        <time>2016-12-28T13:34:17Z</time>
      </trkpt>
      <trkpt lat="42.98886" lon="1.90829">
        <ele>389.47</ele>
        <time>2016-12-28T13:34:36Z</time>
      </trkpt>
      <trkpt lat="42.98884" lon="1.90831">
        <ele>389.47</ele>
        <time>2016-12-28T13:34:39Z</time>
      </trkpt>
      <trkpt lat="42.98883" lon="1.90833">
        <ele>389.47</ele>
        <time>2016-12-28T13:34:40Z</time>
      </trkpt>
      <trkpt lat="42.98882" lon="1.90835">
        <ele>389.47</ele>
        <time>2016-12-28T13:34:41Z</time>
      </trkpt>
      <trkpt lat="42.98881" lon="1.90837">
        <ele>389.47</ele>
        <time>2016-12-28T13:34:42Z</time>
      </trkpt>
      <trkpt lat="42.9888" lon="1.9084">
        <ele>389.47</ele>
        <time>2016-12-28T13:34:43Z</time>
      </trkpt>
      <trkpt lat="42.9888" lon="1.90844">
        <ele>389.47</ele>
        <time>2016-12-28T13:34:44Z</time>
      </trkpt>
      <trkpt lat="42.9888" lon="1.90847">
        <ele>389.47</ele>
        <time>2016-12-28T13:34:45Z</time>
      </trkpt>
      <trkpt lat="42.98879" lon="1.9085">
        <ele>389.47</ele>
        <time>2016-12-28T13:34:46Z</time>
      </trkpt>
      <trkpt lat="42.98878" lon="1.90855">
        <ele>389.47</ele>
        <time>2016-12-28T13:34:47Z</time>
      </trkpt>
      <trkpt lat="42.98877" lon="1.90862">
        <ele>389.47</ele>
        <time>2016-12-28T13:34:48Z</time>
      </trkpt>
      <trkpt lat="42.98874" lon="1.90921">
        <ele>387.55</ele>
        <time>2016-12-28T13:35:00Z</time>
      </trkpt>
      <trkpt lat="42.98868" lon="1.9099">
        <ele>386.59</ele>
        <time>2016-12-28T13:35:11Z</time>
      </trkpt>
      <trkpt lat="42.98866" lon="1.90992">
        <ele>386.59</ele>
        <time>2016-12-28T13:35:12Z</time>
      </trkpt>
      <trkpt lat="42.98863" lon="1.90992">
        <ele>386.59</ele>
        <time>2016-12-28T13:35:13Z</time>
      </trkpt>
      <trkpt lat="42.98832" lon="1.90989">
        <ele>385.63</ele>
        <time>2016-12-28T13:35:22Z</time>
      </trkpt>
      <trkpt lat="42.9881" lon="1.9099">
        <ele>385.15</ele>
        <time>2016-12-28T13:35:27Z</time>
      </trkpt>
      <trkpt lat="42.98805" lon="1.90989">
        <ele>385.15</ele>
        <time>2016-12-28T13:35:28Z</time>
      </trkpt>
      <trkpt lat="42.98801" lon="1.90987">
        <ele>385.15</ele>
        <time>2016-12-28T13:35:29Z</time>
      </trkpt>
      <trkpt lat="42.98797" lon="1.90985">
        <ele>385.15</ele>
        <time>2016-12-28T13:35:30Z</time>
      </trkpt>
      <trkpt lat="42.98793" lon="1.90984">
        <ele>385.15</ele>
        <time>2016-12-28T13:35:31Z</time>
      </trkpt>
      <trkpt lat="42.98778" lon="1.90986">
        <ele>385.15</ele>
        <time>2016-12-28T13:35:35Z</time>
      </trkpt>
      <trkpt lat="42.98776" lon="1.90989">
        <ele>385.15</ele>
        <time>2016-12-28T13:35:36Z</time>
      </trkpt>
      <trkpt lat="42.98775" lon="1.90993">
        <ele>385.15</ele>
        <time>2016-12-28T13:35:37Z</time>
      </trkpt>
      <trkpt lat="42.98766" lon="1.91026">
        <ele>386.59</ele>
        <time>2016-12-28T13:35:45Z</time>
      </trkpt>
      <trkpt lat="42.98763" lon="1.91027">
        <ele>386.59</ele>
        <time>2016-12-28T13:35:56Z</time>
      </trkpt>
      <trkpt lat="42.98763" lon="1.91026">
        <ele>386.59</ele>
        <time>2016-12-28T13:36:15Z</time>
      </trkpt>
      <trkpt lat="42.98763" lon="1.91026">
        <ele>386.59</ele>
        <time>2016-12-28T13:36:20Z</time>
      </trkpt>
      <trkpt lat="42.98745" lon="1.91022">
        <ele>388.03</ele>
        <time>2016-12-28T13:36:31Z</time>
      </trkpt>
      <trkpt lat="42.98712" lon="1.91023">
        <ele>389.95</ele>
        <time>2016-12-28T13:36:43Z</time>
      </trkpt>
      <trkpt lat="42.98675" lon="1.91015">
        <ele>388.51</ele>
        <time>2016-12-28T13:36:52Z</time>
      </trkpt>
      <trkpt lat="42.98636" lon="1.91002">
        <ele>388.51</ele>
        <time>2016-12-28T13:37:03Z</time>
      </trkpt>
      <trkpt lat="42.98619" lon="1.90996">
        <ele>389.95</ele>
        <time>2016-12-28T13:37:08Z</time>
      </trkpt>
      <trkpt lat="42.98616" lon="1.90998">
        <ele>389.95</ele>
        <time>2016-12-28T13:37:09Z</time>
      </trkpt>
      <trkpt lat="42.98614" lon="1.91">
        <ele>389.95</ele>
        <time>2016-12-28T13:37:10Z</time>
      </trkpt>
      <trkpt lat="42.98613" lon="1.91004">
        <ele>390.43</ele>
        <time>2016-12-28T13:37:11Z</time>
      </trkpt>
      <trkpt lat="42.98613" lon="1.91008">
        <ele>390.43</ele>
        <time>2016-12-28T13:37:12Z</time>
      </trkpt>
      <trkpt lat="42.98613" lon="1.91013">
        <ele>390.43</ele>
        <time>2016-12-28T13:37:13Z</time>
      </trkpt>
      <trkpt lat="42.9861" lon="1.91083">
        <ele>390.91</ele>
        <time>2016-12-28T13:37:27Z</time>
      </trkpt>
      <trkpt lat="42.98607" lon="1.91142">
        <ele>390.91</ele>
        <time>2016-12-28T13:37:37Z</time>
      </trkpt>
      <trkpt lat="42.98606" lon="1.91179">
        <ele>390.91</ele>
        <time>2016-12-28T13:37:47Z</time>
      </trkpt>
      <trkpt lat="42.98607" lon="1.91184">
        <ele>390.91</ele>
        <time>2016-12-28T13:37:51Z</time>
      </trkpt>
      <trkpt lat="42.98608" lon="1.91185">
        <ele>390.91</ele>
        <time>2016-12-28T13:37:52Z</time>
      </trkpt>
      <trkpt lat="42.9861" lon="1.9119">
        <ele>390.91</ele>
        <time>2016-12-28T13:37:55Z</time>
      </trkpt>
      <trkpt lat="42.9861" lon="1.91192">
        <ele>390.91</ele>
        <time>2016-12-28T13:37:56Z</time>
      </trkpt>
      <trkpt lat="42.9861" lon="1.91193">
        <ele>390.91</ele>
        <time>2016-12-28T13:38:09Z</time>
      </trkpt>
      <trkpt lat="42.9861" lon="1.91191">
        <ele>390.91</ele>
        <time>2016-12-28T13:38:28Z</time>
      </trkpt>
      <trkpt lat="42.98609" lon="1.91192">
        <ele>390.91</ele>
        <time>2016-12-28T13:39:00Z</time>
      </trkpt>
      <trkpt lat="42.9861" lon="1.9119">
        <ele>390.91</ele>
        <time>2016-12-28T13:39:28Z</time>
      </trkpt>
      <trkpt lat="42.9861" lon="1.91193">
        <ele>391.39</ele>
        <time>2016-12-28T13:40:00Z</time>
      </trkpt>
      <trkpt lat="42.98611" lon="1.91194">
        <ele>391.39</ele>
        <time>2016-12-28T13:40:35Z</time>
      </trkpt>
      <trkpt lat="42.98612" lon="1.91193">
        <ele>391.39</ele>
        <time>2016-12-28T13:41:04Z</time>
      </trkpt>
      <trkpt lat="42.98612" lon="1.91194">
        <ele>391.39</ele>
        <time>2016-12-28T13:41:15Z</time>
      </trkpt>
      <trkpt lat="42.98613" lon="1.91196">
        <ele>391.39</ele>
        <time>2016-12-28T13:41:16Z</time>
      </trkpt>
      <trkpt lat="42.98614" lon="1.91197">
        <ele>391.39</ele>
        <time>2016-12-28T13:41:17Z</time>
      </trkpt>
      <trkpt lat="42.98614" lon="1.91199">
        <ele>391.39</ele>
        <time>2016-12-28T13:41:18Z</time>
      </trkpt>
      <trkpt lat="42.98614" lon="1.91201">
        <ele>391.39</ele>
        <time>2016-12-28T13:41:19Z</time>
      </trkpt>
      <trkpt lat="42.98614" lon="1.91204">
        <ele>391.39</ele>
        <time>2016-12-28T13:41:20Z</time>
      </trkpt>
      <trkpt lat="42.98613" lon="1.91206">
        <ele>391.39</ele>
        <time>2016-12-28T13:41:21Z</time>
      </trkpt>
      <trkpt lat="42.98614" lon="1.91209">
        <ele>391.39</ele>
        <time>2016-12-28T13:41:22Z</time>
      </trkpt>
      <trkpt lat="42.98615" lon="1.91212">
        <ele>391.39</ele>
        <time>2016-12-28T13:41:23Z</time>
      </trkpt>
      <trkpt lat="42.98615" lon="1.91215">
        <ele>391.39</ele>
        <time>2016-12-28T13:41:24Z</time>
      </trkpt>
      <trkpt lat="42.98616" lon="1.91219">
        <ele>391.39</ele>
        <time>2016-12-28T13:41:25Z</time>
      </trkpt>
      <trkpt lat="42.98616" lon="1.91222">
        <ele>391.39</ele>
        <time>2016-12-28T13:41:26Z</time>
      </trkpt>
      <trkpt lat="42.98622" lon="1.91268">
        <ele>390.43</ele>
        <time>2016-12-28T13:41:37Z</time>
      </trkpt>
      <trkpt lat="42.98626" lon="1.91353">
        <ele>389.95</ele>
        <time>2016-12-28T13:41:52Z</time>
      </trkpt>
      <trkpt lat="42.9862" lon="1.91408">
        <ele>389.95</ele>
        <time>2016-12-28T13:42:05Z</time>
      </trkpt>
      <trkpt lat="42.98621" lon="1.91411">
        <ele>389.95</ele>
        <time>2016-12-28T13:42:06Z</time>
      </trkpt>
      <trkpt lat="42.98622" lon="1.91412">
        <ele>389.95</ele>
        <time>2016-12-28T13:42:07Z</time>
      </trkpt>
      <trkpt lat="42.98625" lon="1.91414">
        <ele>389.95</ele>
        <time>2016-12-28T13:42:08Z</time>
      </trkpt>
      <trkpt lat="42.98628" lon="1.91416">
        <ele>389.95</ele>
        <time>2016-12-28T13:42:09Z</time>
      </trkpt>
      <trkpt lat="42.98631" lon="1.91418">
        <ele>389.95</ele>
        <time>2016-12-28T13:42:10Z</time>
      </trkpt>
      <trkpt lat="42.98639" lon="1.91422">
        <ele>388.99</ele>
        <time>2016-12-28T13:42:12Z</time>
      </trkpt>
      <trkpt lat="42.98655" lon="1.91428">
        <ele>388.99</ele>
        <time>2016-12-28T13:42:16Z</time>
      </trkpt>
      <trkpt lat="42.98673" lon="1.91437">
        <ele>388.99</ele>
        <time>2016-12-28T13:42:20Z</time>
      </trkpt>
      <trkpt lat="42.98677" lon="1.91442">
        <ele>388.99</ele>
        <time>2016-12-28T13:42:21Z</time>
      </trkpt>
      <trkpt lat="42.9868" lon="1.91448">
        <ele>388.03</ele>
        <time>2016-12-28T13:42:22Z</time>
      </trkpt>
      <trkpt lat="42.98682" lon="1.91455">
        <ele>387.55</ele>
        <time>2016-12-28T13:42:23Z</time>
      </trkpt>
      <trkpt lat="42.98683" lon="1.91462">
        <ele>387.55</ele>
        <time>2016-12-28T13:42:24Z</time>
      </trkpt>
      <trkpt lat="42.98683" lon="1.9147">
        <ele>387.55</ele>
        <time>2016-12-28T13:42:25Z</time>
      </trkpt>
      <trkpt lat="42.98683" lon="1.91477">
        <ele>387.55</ele>
        <time>2016-12-28T13:42:26Z</time>
      </trkpt>
      <trkpt lat="42.98681" lon="1.91512">
        <ele>387.07</ele>
        <time>2016-12-28T13:42:31Z</time>
      </trkpt>
      <trkpt lat="42.98682" lon="1.91519">
        <ele>387.07</ele>
        <time>2016-12-28T13:42:32Z</time>
      </trkpt>
      <trkpt lat="42.98684" lon="1.91525">
        <ele>386.59</ele>
        <time>2016-12-28T13:42:33Z</time>
      </trkpt>
      <trkpt lat="42.98688" lon="1.9153">
        <ele>386.59</ele>
        <time>2016-12-28T13:42:34Z</time>
      </trkpt>
      <trkpt lat="42.98692" lon="1.91534">
        <ele>386.59</ele>
        <time>2016-12-28T13:42:35Z</time>
      </trkpt>
      <trkpt lat="42.98697" lon="1.91537">
        <ele>386.59</ele>
        <time>2016-12-28T13:42:36Z</time>
      </trkpt>
      <trkpt lat="42.98702" lon="1.91539">
        <ele>386.59</ele>
        <time>2016-12-28T13:42:37Z</time>
      </trkpt>
      <trkpt lat="42.98778" lon="1.91579">
        <ele>386.11</ele>
        <time>2016-12-28T13:42:54Z</time>
      </trkpt>
      <trkpt lat="42.98782" lon="1.91581">
        <ele>388.03</ele>
        <time>2016-12-28T13:42:55Z</time>
      </trkpt>
      <trkpt lat="42.98786" lon="1.91583">
        <ele>388.03</ele>
        <time>2016-12-28T13:42:56Z</time>
      </trkpt>
      <trkpt lat="42.98839" lon="1.91614">
        <ele>386.11</ele>
        <time>2016-12-28T13:43:11Z</time>
      </trkpt>
      <trkpt lat="42.9884" lon="1.91618">
        <ele>386.11</ele>
        <time>2016-12-28T13:43:12Z</time>
      </trkpt>
      <trkpt lat="42.9884" lon="1.91622">
        <ele>386.11</ele>
        <time>2016-12-28T13:43:13Z</time>
      </trkpt>
      <trkpt lat="42.9884" lon="1.91626">
        <ele>386.11</ele>
        <time>2016-12-28T13:43:14Z</time>
      </trkpt>
      <trkpt lat="42.98821" lon="1.917">
        <ele>385.63</ele>
        <time>2016-12-28T13:43:28Z</time>
      </trkpt>
      <trkpt lat="42.98797" lon="1.91802">
        <ele>385.63</ele>
        <time>2016-12-28T13:43:46Z</time>
      </trkpt>
      <trkpt lat="42.9875" lon="1.91873">
        <ele>385.63</ele>
        <time>2016-12-28T13:44:00Z</time>
      </trkpt>
      <trkpt lat="42.987" lon="1.91935">
        <ele>386.59</ele>
        <time>2016-12-28T13:44:14Z</time>
      </trkpt>
      <trkpt lat="42.98699" lon="1.91942">
        <ele>386.59</ele>
        <time>2016-12-28T13:44:15Z</time>
      </trkpt>
      <trkpt lat="42.98698" lon="1.91949">
        <ele>386.59</ele>
        <time>2016-12-28T13:44:16Z</time>
      </trkpt>
      <trkpt lat="42.98693" lon="1.91998">
        <ele>386.59</ele>
        <time>2016-12-28T13:44:23Z</time>
      </trkpt>
      <trkpt lat="42.98686" lon="1.92043">
        <ele>385.63</ele>
        <time>2016-12-28T13:44:29Z</time>
      </trkpt>
      <trkpt lat="42.98667" lon="1.9218">
        <ele>384.18</ele>
        <time>2016-12-28T13:44:46Z</time>
      </trkpt>
      <trkpt lat="42.9865" lon="1.92331">
        <ele>383.22</ele>
        <time>2016-12-28T13:45:04Z</time>
      </trkpt>
      <trkpt lat="42.98631" lon="1.92481">
        <ele>381.78</ele>
        <time>2016-12-28T13:45:23Z</time>
      </trkpt>
      <trkpt lat="42.98597" lon="1.92606">
        <ele>381.3</ele>
        <time>2016-12-28T13:45:40Z</time>
      </trkpt>
      <trkpt lat="42.98578" lon="1.92653">
        <ele>382.74</ele>
        <time>2016-12-28T13:45:48Z</time>
      </trkpt>
      <trkpt lat="42.98561" lon="1.92696">
        <ele>384.18</ele>
        <time>2016-12-28T13:45:57Z</time>
      </trkpt>
      <trkpt lat="42.98545" lon="1.9274">
        <ele>386.11</ele>
        <time>2016-12-28T13:46:09Z</time>
      </trkpt>
      <trkpt lat="42.98525" lon="1.92783">
        <ele>386.59</ele>
        <time>2016-12-28T13:46:20Z</time>
      </trkpt>
      <trkpt lat="42.98507" lon="1.92829">
        <ele>388.03</ele>
        <time>2016-12-28T13:46:32Z</time>
      </trkpt>
      <trkpt lat="42.98485" lon="1.92896">
        <ele>389.47</ele>
        <time>2016-12-28T13:46:47Z</time>
      </trkpt>
      <trkpt lat="42.98469" lon="1.92965">
        <ele>389.95</ele>
        <time>2016-12-28T13:47:00Z</time>
      </trkpt>
      <trkpt lat="42.9845" lon="1.93033">
        <ele>390.43</ele>
        <time>2016-12-28T13:47:12Z</time>
      </trkpt>
      <trkpt lat="42.9842" lon="1.9309">
        <ele>390.91</ele>
        <time>2016-12-28T13:47:24Z</time>
      </trkpt>
      <trkpt lat="42.98395" lon="1.9312">
        <ele>390.91</ele>
        <time>2016-12-28T13:47:35Z</time>
      </trkpt>
      <trkpt lat="42.98393" lon="1.93127">
        <ele>390.91</ele>
        <time>2016-12-28T13:47:36Z</time>
      </trkpt>
      <trkpt lat="42.9839" lon="1.93136">
        <ele>391.39</ele>
        <time>2016-12-28T13:47:37Z</time>
      </trkpt>
      <trkpt lat="42.98388" lon="1.93146">
        <ele>391.39</ele>
        <time>2016-12-28T13:47:38Z</time>
      </trkpt>
      <trkpt lat="42.98387" lon="1.93155">
        <ele>391.39</ele>
        <time>2016-12-28T13:47:39Z</time>
      </trkpt>
      <trkpt lat="42.98386" lon="1.93164">
        <ele>389.95</ele>
        <time>2016-12-28T13:47:40Z</time>
      </trkpt>
      <trkpt lat="42.98386" lon="1.93173">
        <ele>387.07</ele>
        <time>2016-12-28T13:47:41Z</time>
      </trkpt>
      <trkpt lat="42.98387" lon="1.93182">
        <ele>387.07</ele>
        <time>2016-12-28T13:47:42Z</time>
      </trkpt>
      <trkpt lat="42.98393" lon="1.93249">
        <ele>388.51</ele>
        <time>2016-12-28T13:47:51Z</time>
      </trkpt>
      <trkpt lat="42.98393" lon="1.933">
        <ele>391.39</ele>
        <time>2016-12-28T13:48:01Z</time>
      </trkpt>
      <trkpt lat="42.98395" lon="1.93345">
        <ele>394.28</ele>
        <time>2016-12-28T13:48:15Z</time>
      </trkpt>
      <trkpt lat="42.98383" lon="1.93369">
        <ele>396.2</ele>
        <time>2016-12-28T13:48:26Z</time>
      </trkpt>
      <trkpt lat="42.98384" lon="1.93372">
        <ele>395.72</ele>
        <time>2016-12-28T13:48:29Z</time>
      </trkpt>
      <trkpt lat="42.98385" lon="1.93374">
        <ele>395.72</ele>
        <time>2016-12-28T13:48:30Z</time>
      </trkpt>
      <trkpt lat="42.98386" lon="1.93377">
        <ele>395.72</ele>
        <time>2016-12-28T13:48:31Z</time>
      </trkpt>
      <trkpt lat="42.98391" lon="1.93382">
        <ele>397.16</ele>
        <time>2016-12-28T13:48:34Z</time>
      </trkpt>
      <trkpt lat="42.98397" lon="1.93386">
        <ele>399.08</ele>
        <time>2016-12-28T13:48:38Z</time>
      </trkpt>
      <trkpt lat="42.984" lon="1.93386">
        <ele>399.08</ele>
        <time>2016-12-28T13:48:39Z</time>
      </trkpt>
      <trkpt lat="42.98403" lon="1.93388">
        <ele>399.57</ele>
        <time>2016-12-28T13:48:41Z</time>
      </trkpt>
      <trkpt lat="42.98409" lon="1.93409">
        <ele>401.49</ele>
        <time>2016-12-28T13:48:52Z</time>
      </trkpt>
      <trkpt lat="42.98417" lon="1.9344">
        <ele>402.93</ele>
        <time>2016-12-28T13:49:07Z</time>
      </trkpt>
      <trkpt lat="42.98419" lon="1.93449">
        <ele>402.93</ele>
        <time>2016-12-28T13:49:11Z</time>
      </trkpt>
      <trkpt lat="42.98393" lon="1.93498">
        <ele>403.41</ele>
        <time>2016-12-28T13:49:26Z</time>
      </trkpt>
      <trkpt lat="42.98367" lon="1.93513">
        <ele>404.37</ele>
        <time>2016-12-28T13:49:38Z</time>
      </trkpt>
      <trkpt lat="42.98365" lon="1.9354">
        <ele>404.85</ele>
        <time>2016-12-28T13:49:46Z</time>
      </trkpt>
      <trkpt lat="42.98357" lon="1.93577">
        <ele>405.33</ele>
        <time>2016-12-28T13:49:57Z</time>
      </trkpt>
      <trkpt lat="42.98356" lon="1.93586">
        <ele>405.33</ele>
        <time>2016-12-28T13:50:00Z</time>
      </trkpt>
      <trkpt lat="42.98355" lon="1.93588">
        <ele>405.33</ele>
        <time>2016-12-28T13:50:01Z</time>
      </trkpt>
      <trkpt lat="42.98354" lon="1.93592">
        <ele>405.33</ele>
        <time>2016-12-28T13:50:02Z</time>
      </trkpt>
      <trkpt lat="42.98353" lon="1.93597">
        <ele>405.33</ele>
        <time>2016-12-28T13:50:03Z</time>
      </trkpt>
      <trkpt lat="42.98354" lon="1.93599">
        <ele>405.33</ele>
        <time>2016-12-28T13:50:04Z</time>
      </trkpt>
      <trkpt lat="42.98354" lon="1.93601">
        <ele>405.33</ele>
        <time>2016-12-28T13:50:05Z</time>
      </trkpt>
      <trkpt lat="42.98347" lon="1.93623">
        <ele>405.33</ele>
        <time>2016-12-28T13:50:10Z</time>
      </trkpt>
      <trkpt lat="42.98336" lon="1.93675">
        <ele>403.89</ele>
        <time>2016-12-28T13:50:22Z</time>
      </trkpt>
      <trkpt lat="42.98336" lon="1.93681">
        <ele>403.89</ele>
        <time>2016-12-28T13:50:23Z</time>
      </trkpt>
      <trkpt lat="42.98329" lon="1.93714">
        <ele>402.93</ele>
        <time>2016-12-28T13:50:32Z</time>
      </trkpt>
      <trkpt lat="42.98329" lon="1.93732">
        <ele>401.49</ele>
        <time>2016-12-28T13:50:35Z</time>
      </trkpt>
      <trkpt lat="42.98329" lon="1.93739">
        <ele>401.49</ele>
        <time>2016-12-28T13:50:36Z</time>
      </trkpt>
      <trkpt lat="42.98324" lon="1.93779">
        <ele>400.53</ele>
        <time>2016-12-28T13:50:45Z</time>
      </trkpt>
      <trkpt lat="42.98322" lon="1.93784">
        <ele>400.53</ele>
        <time>2016-12-28T13:50:46Z</time>
      </trkpt>
      <trkpt lat="42.98321" lon="1.93789">
        <ele>400.53</ele>
        <time>2016-12-28T13:50:47Z</time>
      </trkpt>
      <trkpt lat="42.98321" lon="1.93794">
        <ele>400.53</ele>
        <time>2016-12-28T13:50:48Z</time>
      </trkpt>
      <trkpt lat="42.9832" lon="1.93797">
        <ele>400.53</ele>
        <time>2016-12-28T13:50:49Z</time>
      </trkpt>
      <trkpt lat="42.9832" lon="1.93801">
        <ele>400.05</ele>
        <time>2016-12-28T13:50:50Z</time>
      </trkpt>
      <trkpt lat="42.9832" lon="1.93804">
        <ele>399.08</ele>
        <time>2016-12-28T13:50:51Z</time>
      </trkpt>
      <trkpt lat="42.9832" lon="1.93807">
        <ele>399.08</ele>
        <time>2016-12-28T13:50:52Z</time>
      </trkpt>
      <trkpt lat="42.9832" lon="1.9381">
        <ele>398.6</ele>
        <time>2016-12-28T13:50:53Z</time>
      </trkpt>
      <trkpt lat="42.98318" lon="1.93816">
        <ele>398.6</ele>
        <time>2016-12-28T13:50:54Z</time>
      </trkpt>
      <trkpt lat="42.98309" lon="1.93845">
        <ele>397.64</ele>
        <time>2016-12-28T13:51:03Z</time>
      </trkpt>
      <trkpt lat="42.98304" lon="1.93856">
        <ele>397.64</ele>
        <time>2016-12-28T13:51:18Z</time>
      </trkpt>
      <trkpt lat="42.98305" lon="1.93856">
        <ele>397.64</ele>
        <time>2016-12-28T13:51:38Z</time>
      </trkpt>
      <trkpt lat="42.98304" lon="1.93859">
        <ele>397.64</ele>
        <time>2016-12-28T13:52:06Z</time>
      </trkpt>
      <trkpt lat="42.98308" lon="1.93858">
        <ele>397.64</ele>
        <time>2016-12-28T13:52:35Z</time>
      </trkpt>
      <trkpt lat="42.98307" lon="1.93857">
        <ele>397.64</ele>
        <time>2016-12-28T13:53:11Z</time>
      </trkpt>
      <trkpt lat="42.98308" lon="1.93856">
        <ele>397.64</ele>
        <time>2016-12-28T13:53:30Z</time>
      </trkpt>
      <trkpt lat="42.98307" lon="1.93857">
        <ele>396.2</ele>
        <time>2016-12-28T13:53:43Z</time>
      </trkpt>
      <trkpt lat="42.9831" lon="1.93852">
        <ele>397.64</ele>
        <time>2016-12-28T13:54:06Z</time>
      </trkpt>
      <trkpt lat="42.98308" lon="1.93855">
        <ele>397.64</ele>
        <time>2016-12-28T13:54:18Z</time>
      </trkpt>
      <trkpt lat="42.98307" lon="1.93857">
        <ele>401.01</ele>
        <time>2016-12-28T13:54:29Z</time>
      </trkpt>
      <trkpt lat="42.98307" lon="1.93871">
        <ele>397.64</ele>
        <time>2016-12-28T13:54:38Z</time>
      </trkpt>
      <trkpt lat="42.98307" lon="1.93873">
        <ele>397.64</ele>
        <time>2016-12-28T13:54:51Z</time>
      </trkpt>
      <trkpt lat="42.98307" lon="1.93874">
        <ele>397.64</ele>
        <time>2016-12-28T13:54:52Z</time>
      </trkpt>
      <trkpt lat="42.98306" lon="1.93876">
        <ele>397.64</ele>
        <time>2016-12-28T13:54:53Z</time>
      </trkpt>
      <trkpt lat="42.98306" lon="1.93879">
        <ele>397.64</ele>
        <time>2016-12-28T13:54:54Z</time>
      </trkpt>
      <trkpt lat="42.98305" lon="1.93881">
        <ele>397.64</ele>
        <time>2016-12-28T13:54:55Z</time>
      </trkpt>
      <trkpt lat="42.98321" lon="1.93918">
        <ele>397.64</ele>
        <time>2016-12-28T13:55:08Z</time>
      </trkpt>
      <trkpt lat="42.98357" lon="1.93961">
        <ele>397.16</ele>
        <time>2016-12-28T13:55:24Z</time>
      </trkpt>
      <trkpt lat="42.98398" lon="1.94013">
        <ele>397.16</ele>
        <time>2016-12-28T13:55:40Z</time>
      </trkpt>
      <trkpt lat="42.98441" lon="1.94068">
        <ele>397.64</ele>
        <time>2016-12-28T13:55:56Z</time>
      </trkpt>
      <trkpt lat="42.98491" lon="1.94129">
        <ele>397.64</ele>
        <time>2016-12-28T13:56:13Z</time>
      </trkpt>
      <trkpt lat="42.98528" lon="1.94175">
        <ele>397.64</ele>
        <time>2016-12-28T13:56:27Z</time>
      </trkpt>
      <trkpt lat="42.98566" lon="1.94222">
        <ele>397.16</ele>
        <time>2016-12-28T13:56:41Z</time>
      </trkpt>
      <trkpt lat="42.986" lon="1.94261">
        <ele>397.16</ele>
        <time>2016-12-28T13:56:54Z</time>
      </trkpt>
      <trkpt lat="42.98608" lon="1.9427">
        <ele>397.16</ele>
        <time>2016-12-28T13:57:04Z</time>
      </trkpt>
      <trkpt lat="42.98607" lon="1.9427">
        <ele>397.16</ele>
        <time>2016-12-28T13:57:19Z</time>
      </trkpt>
      <trkpt lat="42.98608" lon="1.94274">
        <ele>397.16</ele>
        <time>2016-12-28T13:57:24Z</time>
      </trkpt>
      <trkpt lat="42.98608" lon="1.94275">
        <ele>397.16</ele>
        <time>2016-12-28T13:57:25Z</time>
      </trkpt>
      <trkpt lat="42.98609" lon="1.94278">
        <ele>397.16</ele>
        <time>2016-12-28T13:57:26Z</time>
      </trkpt>
      <trkpt lat="42.98612" lon="1.94283">
        <ele>397.16</ele>
        <time>2016-12-28T13:57:28Z</time>
      </trkpt>
      <trkpt lat="42.98614" lon="1.94294">
        <ele>399.08</ele>
        <time>2016-12-28T13:57:32Z</time>
      </trkpt>
      <trkpt lat="42.98606" lon="1.94313">
        <ele>395.72</ele>
        <time>2016-12-28T13:57:39Z</time>
      </trkpt>
      <trkpt lat="42.98602" lon="1.94353">
        <ele>396.68</ele>
        <time>2016-12-28T13:57:47Z</time>
      </trkpt>
      <trkpt lat="42.98584" lon="1.94381">
        <ele>395.72</ele>
        <time>2016-12-28T13:57:55Z</time>
      </trkpt>
      <trkpt lat="42.98566" lon="1.94427">
        <ele>395.72</ele>
        <time>2016-12-28T13:58:06Z</time>
      </trkpt>
      <trkpt lat="42.98564" lon="1.94436">
        <ele>397.16</ele>
        <time>2016-12-28T13:58:08Z</time>
      </trkpt>
      <trkpt lat="42.98548" lon="1.94493">
        <ele>397.16</ele>
        <time>2016-12-28T13:58:19Z</time>
      </trkpt>
      <trkpt lat="42.98544" lon="1.94505">
        <ele>395.72</ele>
        <time>2016-12-28T13:58:21Z</time>
      </trkpt>
      <trkpt lat="42.98544" lon="1.94511">
        <ele>395.72</ele>
        <time>2016-12-28T13:58:22Z</time>
      </trkpt>
      <trkpt lat="42.98544" lon="1.94517">
        <ele>395.72</ele>
        <time>2016-12-28T13:58:23Z</time>
      </trkpt>
      <trkpt lat="42.98543" lon="1.94523">
        <ele>395.72</ele>
        <time>2016-12-28T13:58:24Z</time>
      </trkpt>
      <trkpt lat="42.98542" lon="1.94529">
        <ele>395.72</ele>
        <time>2016-12-28T13:58:25Z</time>
      </trkpt>
      <trkpt lat="42.98536" lon="1.94551">
        <ele>395.72</ele>
        <time>2016-12-28T13:58:29Z</time>
      </trkpt>
      <trkpt lat="42.98534" lon="1.94555">
        <ele>395.72</ele>
        <time>2016-12-28T13:58:30Z</time>
      </trkpt>
      <trkpt lat="42.98531" lon="1.94559">
        <ele>395.24</ele>
        <time>2016-12-28T13:58:31Z</time>
      </trkpt>
      <trkpt lat="42.98528" lon="1.94565">
        <ele>394.76</ele>
        <time>2016-12-28T13:58:32Z</time>
      </trkpt>
      <trkpt lat="42.98525" lon="1.9457">
        <ele>394.76</ele>
        <time>2016-12-28T13:58:33Z</time>
      </trkpt>
      <trkpt lat="42.98524" lon="1.94575">
        <ele>395.24</ele>
        <time>2016-12-28T13:58:34Z</time>
      </trkpt>
      <trkpt lat="42.98517" lon="1.94618">
        <ele>396.2</ele>
        <time>2016-12-28T13:58:44Z</time>
      </trkpt>
      <trkpt lat="42.98513" lon="1.94645">
        <ele>396.2</ele>
        <time>2016-12-28T13:58:50Z</time>
      </trkpt>
      <trkpt lat="42.9851" lon="1.94652">
        <ele>394.28</ele>
        <time>2016-12-28T13:58:51Z</time>
      </trkpt>
      <trkpt lat="42.98507" lon="1.9466">
        <ele>394.28</ele>
        <time>2016-12-28T13:58:52Z</time>
      </trkpt>
      <trkpt lat="42.98504" lon="1.94667">
        <ele>394.28</ele>
        <time>2016-12-28T13:58:53Z</time>
      </trkpt>
      <trkpt lat="42.98502" lon="1.94674">
        <ele>394.28</ele>
        <time>2016-12-28T13:58:54Z</time>
      </trkpt>
      <trkpt lat="42.98501" lon="1.94681">
        <ele>394.28</ele>
        <time>2016-12-28T13:58:55Z</time>
      </trkpt>
      <trkpt lat="42.98501" lon="1.94686">
        <ele>394.28</ele>
        <time>2016-12-28T13:58:56Z</time>
      </trkpt>
      <trkpt lat="42.985" lon="1.94692">
        <ele>394.28</ele>
        <time>2016-12-28T13:58:57Z</time>
      </trkpt>
      <trkpt lat="42.985" lon="1.94697">
        <ele>394.28</ele>
        <time>2016-12-28T13:58:58Z</time>
      </trkpt>
      <trkpt lat="42.985" lon="1.94703">
        <ele>394.28</ele>
        <time>2016-12-28T13:58:59Z</time>
      </trkpt>
      <trkpt lat="42.985" lon="1.94708">
        <ele>394.28</ele>
        <time>2016-12-28T13:59:00Z</time>
      </trkpt>
      <trkpt lat="42.985" lon="1.94736">
        <ele>395.72</ele>
        <time>2016-12-28T13:59:05Z</time>
      </trkpt>
      <trkpt lat="42.98497" lon="1.94779">
        <ele>396.2</ele>
        <time>2016-12-28T13:59:14Z</time>
      </trkpt>
      <trkpt lat="42.98494" lon="1.94788">
        <ele>396.2</ele>
        <time>2016-12-28T13:59:16Z</time>
      </trkpt>
      <trkpt lat="42.98491" lon="1.94834">
        <ele>396.2</ele>
        <time>2016-12-28T13:59:26Z</time>
      </trkpt>
      <trkpt lat="42.9849" lon="1.94875">
        <ele>396.68</ele>
        <time>2016-12-28T13:59:37Z</time>
      </trkpt>
      <trkpt lat="42.98487" lon="1.94935">
        <ele>395.72</ele>
        <time>2016-12-28T13:59:49Z</time>
      </trkpt>
      <trkpt lat="42.98487" lon="1.94943">
        <ele>395.72</ele>
        <time>2016-12-28T13:59:50Z</time>
      </trkpt>
      <trkpt lat="42.98487" lon="1.94949">
        <ele>395.72</ele>
        <time>2016-12-28T13:59:51Z</time>
      </trkpt>
      <trkpt lat="42.98481" lon="1.95015">
        <ele>395.72</ele>
        <time>2016-12-28T14:00:01Z</time>
      </trkpt>
      <trkpt lat="42.98481" lon="1.95045">
        <ele>394.28</ele>
        <time>2016-12-28T14:00:06Z</time>
      </trkpt>
      <trkpt lat="42.98486" lon="1.95074">
        <ele>394.28</ele>
        <time>2016-12-28T14:00:11Z</time>
      </trkpt>
      <trkpt lat="42.98488" lon="1.95079">
        <ele>395.72</ele>
        <time>2016-12-28T14:00:12Z</time>
      </trkpt>
      <trkpt lat="42.98489" lon="1.95084">
        <ele>396.2</ele>
        <time>2016-12-28T14:00:13Z</time>
      </trkpt>
      <trkpt lat="42.9849" lon="1.95087">
        <ele>396.68</ele>
        <time>2016-12-28T14:00:14Z</time>
      </trkpt>
      <trkpt lat="42.98491" lon="1.95137">
        <ele>398.12</ele>
        <time>2016-12-28T14:00:25Z</time>
      </trkpt>
      <trkpt lat="42.98488" lon="1.95168">
        <ele>398.12</ele>
        <time>2016-12-28T14:00:31Z</time>
      </trkpt>
      <trkpt lat="42.98488" lon="1.95187">
        <ele>398.12</ele>
        <time>2016-12-28T14:00:35Z</time>
      </trkpt>
      <trkpt lat="42.98485" lon="1.95211">
        <ele>396.2</ele>
        <time>2016-12-28T14:00:39Z</time>
      </trkpt>
      <trkpt lat="42.98484" lon="1.95216">
        <ele>396.2</ele>
        <time>2016-12-28T14:00:40Z</time>
      </trkpt>
      <trkpt lat="42.9848" lon="1.95231">
        <ele>396.2</ele>
        <time>2016-12-28T14:00:43Z</time>
      </trkpt>
      <trkpt lat="42.9848" lon="1.9527">
        <ele>396.68</ele>
        <time>2016-12-28T14:00:50Z</time>
      </trkpt>
      <trkpt lat="42.98481" lon="1.95274">
        <ele>397.64</ele>
        <time>2016-12-28T14:00:51Z</time>
      </trkpt>
      <trkpt lat="42.9848" lon="1.95317">
        <ele>398.6</ele>
        <time>2016-12-28T14:01:05Z</time>
      </trkpt>
      <trkpt lat="42.98478" lon="1.95355">
        <ele>399.08</ele>
        <time>2016-12-28T14:01:16Z</time>
      </trkpt>
      <trkpt lat="42.9847" lon="1.95397">
        <ele>399.08</ele>
        <time>2016-12-28T14:01:25Z</time>
      </trkpt>
      <trkpt lat="42.98466" lon="1.95412">
        <ele>398.12</ele>
        <time>2016-12-28T14:01:28Z</time>
      </trkpt>
      <trkpt lat="42.98464" lon="1.95418">
        <ele>397.16</ele>
        <time>2016-12-28T14:01:29Z</time>
      </trkpt>
      <trkpt lat="42.98464" lon="1.95457">
        <ele>396.68</ele>
        <time>2016-12-28T14:01:37Z</time>
      </trkpt>
      <trkpt lat="42.98474" lon="1.95474">
        <ele>396.68</ele>
        <time>2016-12-28T14:01:43Z</time>
      </trkpt>
      <trkpt lat="42.98493" lon="1.95472">
        <ele>395.24</ele>
        <time>2016-12-28T14:01:51Z</time>
      </trkpt>
      <trkpt lat="42.98542" lon="1.95464">
        <ele>398.12</ele>
        <time>2016-12-28T14:02:01Z</time>
      </trkpt>
      <trkpt lat="42.98561" lon="1.95462">
        <ele>401.01</ele>
        <time>2016-12-28T14:02:09Z</time>
      </trkpt>
      <trkpt lat="42.98587" lon="1.95469">
        <ele>397.16</ele>
        <time>2016-12-28T14:02:19Z</time>
      </trkpt>
      <trkpt lat="42.98594" lon="1.95467">
        <ele>396.2</ele>
        <time>2016-12-28T14:02:21Z</time>
      </trkpt>
      <trkpt lat="42.98597" lon="1.95465">
        <ele>396.2</ele>
        <time>2016-12-28T14:02:22Z</time>
      </trkpt>
      <trkpt lat="42.98603" lon="1.95459">
        <ele>395.72</ele>
        <time>2016-12-28T14:02:26Z</time>
      </trkpt>
      <trkpt lat="42.98613" lon="1.9544">
        <ele>395.24</ele>
        <time>2016-12-28T14:02:38Z</time>
      </trkpt>
      <trkpt lat="42.98613" lon="1.95437">
        <ele>395.24</ele>
        <time>2016-12-28T14:02:56Z</time>
      </trkpt>
      <trkpt lat="42.98613" lon="1.95425">
        <ele>396.68</ele>
        <time>2016-12-28T14:03:05Z</time>
      </trkpt>
      <trkpt lat="42.98617" lon="1.95413">
        <ele>396.68</ele>
        <time>2016-12-28T14:03:10Z</time>
      </trkpt>
      <trkpt lat="42.98616" lon="1.95394">
        <ele>396.68</ele>
        <time>2016-12-28T14:03:17Z</time>
      </trkpt>
      <trkpt lat="42.9862" lon="1.95365">
        <ele>397.64</ele>
        <time>2016-12-28T14:03:26Z</time>
      </trkpt>
      <trkpt lat="42.98628" lon="1.95353">
        <ele>395.72</ele>
        <time>2016-12-28T14:03:30Z</time>
      </trkpt>
      <trkpt lat="42.98631" lon="1.95334">
        <ele>395.72</ele>
        <time>2016-12-28T14:03:34Z</time>
      </trkpt>
      <trkpt lat="42.98639" lon="1.95278">
        <ele>394.76</ele>
        <time>2016-12-28T14:03:46Z</time>
      </trkpt>
      <trkpt lat="42.98664" lon="1.95224">
        <ele>394.76</ele>
        <time>2016-12-28T14:03:56Z</time>
      </trkpt>
      <trkpt lat="42.98679" lon="1.95186">
        <ele>394.76</ele>
        <time>2016-12-28T14:04:05Z</time>
      </trkpt>
      <trkpt lat="42.98685" lon="1.95169">
        <ele>394.76</ele>
        <time>2016-12-28T14:04:09Z</time>
      </trkpt>
      <trkpt lat="42.98709" lon="1.95129">
        <ele>395.72</ele>
        <time>2016-12-28T14:04:21Z</time>
      </trkpt>
      <trkpt lat="42.98739" lon="1.95091">
        <ele>395.72</ele>
        <time>2016-12-28T14:04:32Z</time>
      </trkpt>
      <trkpt lat="42.98759" lon="1.95049">
        <ele>395.72</ele>
        <time>2016-12-28T14:04:42Z</time>
      </trkpt>
      <trkpt lat="42.98765" lon="1.95027">
        <ele>395.72</ele>
        <time>2016-12-28T14:04:49Z</time>
      </trkpt>
      <trkpt lat="42.98773" lon="1.9499">
        <ele>394.28</ele>
        <time>2016-12-28T14:04:59Z</time>
      </trkpt>
      <trkpt lat="42.98779" lon="1.94959">
        <ele>394.28</ele>
        <time>2016-12-28T14:05:04Z</time>
      </trkpt>
      <trkpt lat="42.98784" lon="1.94932">
        <ele>395.24</ele>
        <time>2016-12-28T14:05:10Z</time>
      </trkpt>
      <trkpt lat="42.98801" lon="1.94891">
        <ele>394.76</ele>
        <time>2016-12-28T14:05:20Z</time>
      </trkpt>
      <trkpt lat="42.98819" lon="1.94878">
        <ele>394.28</ele>
        <time>2016-12-28T14:05:26Z</time>
      </trkpt>
      <trkpt lat="42.98838" lon="1.94889">
        <ele>395.24</ele>
        <time>2016-12-28T14:05:33Z</time>
      </trkpt>
      <trkpt lat="42.98855" lon="1.94914">
        <ele>395.24</ele>
        <time>2016-12-28T14:05:43Z</time>
      </trkpt>
      <trkpt lat="42.98866" lon="1.94916">
        <ele>396.2</ele>
        <time>2016-12-28T14:05:46Z</time>
      </trkpt>
      <trkpt lat="42.98868" lon="1.94916">
        <ele>396.68</ele>
        <time>2016-12-28T14:05:48Z</time>
      </trkpt>
      <trkpt lat="42.98893" lon="1.94922">
        <ele>394.76</ele>
        <time>2016-12-28T14:05:58Z</time>
      </trkpt>
      <trkpt lat="42.989" lon="1.94916">
        <ele>394.76</ele>
        <time>2016-12-28T14:06:00Z</time>
      </trkpt>
      <trkpt lat="42.98923" lon="1.949">
        <ele>396.2</ele>
        <time>2016-12-28T14:06:07Z</time>
      </trkpt>
      <trkpt lat="42.98942" lon="1.94906">
        <ele>394.76</ele>
        <time>2016-12-28T14:06:13Z</time>
      </trkpt>
      <trkpt lat="42.98976" lon="1.94893">
        <ele>395.24</ele>
        <time>2016-12-28T14:06:23Z</time>
      </trkpt>
      <trkpt lat="42.98997" lon="1.94883">
        <ele>394.28</ele>
        <time>2016-12-28T14:06:30Z</time>
      </trkpt>
      <trkpt lat="42.9903" lon="1.94861">
        <ele>393.8</ele>
        <time>2016-12-28T14:06:41Z</time>
      </trkpt>
      <trkpt lat="42.99049" lon="1.94834">
        <ele>393.8</ele>
        <time>2016-12-28T14:06:49Z</time>
      </trkpt>
      <trkpt lat="42.99056" lon="1.94815">
        <ele>395.24</ele>
        <time>2016-12-28T14:06:55Z</time>
      </trkpt>
      <trkpt lat="42.99059" lon="1.94805">
        <ele>395.72</ele>
        <time>2016-12-28T14:06:58Z</time>
      </trkpt>
      <trkpt lat="42.9909" lon="1.94769">
        <ele>394.28</ele>
        <time>2016-12-28T14:07:09Z</time>
      </trkpt>
      <trkpt lat="42.99102" lon="1.94767">
        <ele>393.32</ele>
        <time>2016-12-28T14:07:13Z</time>
      </trkpt>
      <trkpt lat="42.99109" lon="1.94771">
        <ele>393.32</ele>
        <time>2016-12-28T14:07:17Z</time>
      </trkpt>
      <trkpt lat="42.99126" lon="1.94786">
        <ele>394.28</ele>
        <time>2016-12-28T14:07:31Z</time>
      </trkpt>
      <trkpt lat="42.99125" lon="1.94792">
        <ele>394.28</ele>
        <time>2016-12-28T14:07:35Z</time>
      </trkpt>
      <trkpt lat="42.99121" lon="1.94814">
        <ele>393.32</ele>
        <time>2016-12-28T14:07:41Z</time>
      </trkpt>
      <trkpt lat="42.99121" lon="1.94821">
        <ele>393.32</ele>
        <time>2016-12-28T14:07:43Z</time>
      </trkpt>
      <trkpt lat="42.99121" lon="1.94828">
        <ele>393.32</ele>
        <time>2016-12-28T14:07:45Z</time>
      </trkpt>
      <trkpt lat="42.99122" lon="1.94836">
        <ele>393.32</ele>
        <time>2016-12-28T14:07:48Z</time>
      </trkpt>
      <trkpt lat="42.99127" lon="1.94849">
        <ele>393.32</ele>
        <time>2016-12-28T14:07:51Z</time>
      </trkpt>
      <trkpt lat="42.9913" lon="1.94864">
        <ele>395.24</ele>
        <time>2016-12-28T14:07:55Z</time>
      </trkpt>
      <trkpt lat="42.9913" lon="1.94876">
        <ele>396.2</ele>
        <time>2016-12-28T14:07:59Z</time>
      </trkpt>
      <trkpt lat="42.99127" lon="1.94888">
        <ele>396.68</ele>
        <time>2016-12-28T14:08:04Z</time>
      </trkpt>
      <trkpt lat="42.99118" lon="1.949">
        <ele>394.28</ele>
        <time>2016-12-28T14:08:09Z</time>
      </trkpt>
      <trkpt lat="42.99113" lon="1.94917">
        <ele>394.28</ele>
        <time>2016-12-28T14:08:21Z</time>
      </trkpt>
      <trkpt lat="42.99114" lon="1.94925">
        <ele>394.28</ele>
        <time>2016-12-28T14:08:34Z</time>
      </trkpt>
      <trkpt lat="42.99113" lon="1.94931">
        <ele>394.28</ele>
        <time>2016-12-28T14:08:39Z</time>
      </trkpt>
      <trkpt lat="42.9911" lon="1.94942">
        <ele>394.28</ele>
        <time>2016-12-28T14:08:43Z</time>
      </trkpt>
      <trkpt lat="42.99108" lon="1.94952">
        <ele>394.28</ele>
        <time>2016-12-28T14:08:46Z</time>
      </trkpt>
      <trkpt lat="42.99109" lon="1.94992">
        <ele>393.8</ele>
        <time>2016-12-28T14:08:57Z</time>
      </trkpt>
      <trkpt lat="42.99089" lon="1.94987">
        <ele>392.84</ele>
        <time>2016-12-28T14:09:05Z</time>
      </trkpt>
      <trkpt lat="42.99086" lon="1.9499">
        <ele>392.84</ele>
        <time>2016-12-28T14:09:07Z</time>
      </trkpt>
      <trkpt lat="42.99079" lon="1.95006">
        <ele>395.24</ele>
        <time>2016-12-28T14:09:14Z</time>
      </trkpt>
      <trkpt lat="42.99064" lon="1.9503">
        <ele>395.24</ele>
        <time>2016-12-28T14:09:26Z</time>
      </trkpt>
      <trkpt lat="42.99062" lon="1.95033">
        <ele>395.24</ele>
        <time>2016-12-28T14:09:28Z</time>
      </trkpt>
      <trkpt lat="42.99056" lon="1.95053">
        <ele>394.76</ele>
        <time>2016-12-28T14:09:33Z</time>
      </trkpt>
      <trkpt lat="42.99053" lon="1.95068">
        <ele>394.76</ele>
        <time>2016-12-28T14:09:37Z</time>
      </trkpt>
      <trkpt lat="42.99052" lon="1.95076">
        <ele>395.72</ele>
        <time>2016-12-28T14:09:40Z</time>
      </trkpt>
      <trkpt lat="42.99053" lon="1.9508">
        <ele>396.2</ele>
        <time>2016-12-28T14:09:49Z</time>
      </trkpt>
      <trkpt lat="42.99047" lon="1.95113">
        <ele>396.2</ele>
        <time>2016-12-28T14:09:59Z</time>
      </trkpt>
      <trkpt lat="42.99046" lon="1.95125">
        <ele>394.76</ele>
        <time>2016-12-28T14:10:01Z</time>
      </trkpt>
      <trkpt lat="42.99047" lon="1.95135">
        <ele>393.8</ele>
        <time>2016-12-28T14:10:03Z</time>
      </trkpt>
      <trkpt lat="42.99048" lon="1.95139">
        <ele>393.8</ele>
        <time>2016-12-28T14:10:04Z</time>
      </trkpt>
      <trkpt lat="42.99051" lon="1.95148">
        <ele>393.8</ele>
        <time>2016-12-28T14:10:07Z</time>
      </trkpt>
      <trkpt lat="42.99053" lon="1.95175">
        <ele>392.36</ele>
        <time>2016-12-28T14:10:12Z</time>
      </trkpt>
      <trkpt lat="42.99055" lon="1.95182">
        <ele>394.28</ele>
        <time>2016-12-28T14:10:14Z</time>
      </trkpt>
      <trkpt lat="42.99065" lon="1.95197">
        <ele>394.28</ele>
        <time>2016-12-28T14:10:20Z</time>
      </trkpt>
      <trkpt lat="42.99073" lon="1.95221">
        <ele>394.28</ele>
        <time>2016-12-28T14:10:28Z</time>
      </trkpt>
      <trkpt lat="42.99088" lon="1.95262">
        <ele>394.76</ele>
        <time>2016-12-28T14:10:38Z</time>
      </trkpt>
      <trkpt lat="42.99091" lon="1.95272">
        <ele>394.76</ele>
        <time>2016-12-28T14:10:41Z</time>
      </trkpt>
      <trkpt lat="42.99091" lon="1.9528">
        <ele>393.32</ele>
        <time>2016-12-28T14:10:43Z</time>
      </trkpt>
      <trkpt lat="42.99089" lon="1.95308">
        <ele>394.76</ele>
        <time>2016-12-28T14:10:52Z</time>
      </trkpt>
      <trkpt lat="42.99093" lon="1.95326">
        <ele>396.68</ele>
        <time>2016-12-28T14:10:59Z</time>
      </trkpt>
      <trkpt lat="42.99097" lon="1.95337">
        <ele>397.64</ele>
        <time>2016-12-28T14:11:04Z</time>
      </trkpt>
      <trkpt lat="42.99095" lon="1.95359">
        <ele>395.72</ele>
        <time>2016-12-28T14:11:10Z</time>
      </trkpt>
      <trkpt lat="42.99089" lon="1.95405">
        <ele>395.24</ele>
        <time>2016-12-28T14:11:21Z</time>
      </trkpt>
      <trkpt lat="42.99086" lon="1.9542">
        <ele>396.68</ele>
        <time>2016-12-28T14:11:25Z</time>
      </trkpt>
      <trkpt lat="42.99077" lon="1.95453">
        <ele>398.12</ele>
        <time>2016-12-28T14:11:33Z</time>
      </trkpt>
      <trkpt lat="42.99068" lon="1.95469">
        <ele>396.68</ele>
        <time>2016-12-28T14:11:37Z</time>
      </trkpt>
      <trkpt lat="42.99066" lon="1.95474">
        <ele>396.68</ele>
        <time>2016-12-28T14:11:38Z</time>
      </trkpt>
      <trkpt lat="42.99054" lon="1.9549">
        <ele>395.72</ele>
        <time>2016-12-28T14:11:42Z</time>
      </trkpt>
      <trkpt lat="42.9905" lon="1.95504">
        <ele>395.24</ele>
        <time>2016-12-28T14:11:46Z</time>
      </trkpt>
      <trkpt lat="42.99056" lon="1.95513">
        <ele>396.68</ele>
        <time>2016-12-28T14:11:52Z</time>
      </trkpt>
      <trkpt lat="42.99062" lon="1.95516">
        <ele>396.68</ele>
        <time>2016-12-28T14:11:55Z</time>
      </trkpt>
      <trkpt lat="42.99071" lon="1.95519">
        <ele>397.16</ele>
        <time>2016-12-28T14:11:59Z</time>
      </trkpt>
      <trkpt lat="42.99085" lon="1.95513">
        <ele>397.16</ele>
        <time>2016-12-28T14:12:05Z</time>
      </trkpt>
      <trkpt lat="42.99093" lon="1.95514">
        <ele>395.72</ele>
        <time>2016-12-28T14:12:07Z</time>
      </trkpt>
      <trkpt lat="42.99098" lon="1.95517">
        <ele>394.76</ele>
        <time>2016-12-28T14:12:08Z</time>
      </trkpt>
      <trkpt lat="42.99102" lon="1.9552">
        <ele>394.76</ele>
        <time>2016-12-28T14:12:09Z</time>
      </trkpt>
      <trkpt lat="42.99106" lon="1.95524">
        <ele>394.28</ele>
        <time>2016-12-28T14:12:10Z</time>
      </trkpt>
      <trkpt lat="42.99137" lon="1.95538">
        <ele>391.87</ele>
        <time>2016-12-28T14:12:19Z</time>
      </trkpt>
      <trkpt lat="42.99141" lon="1.95539">
        <ele>391.87</ele>
        <time>2016-12-28T14:12:20Z</time>
      </trkpt>
      <trkpt lat="42.99146" lon="1.9554">
        <ele>391.87</ele>
        <time>2016-12-28T14:12:21Z</time>
      </trkpt>
      <trkpt lat="42.99151" lon="1.95541">
        <ele>391.87</ele>
        <time>2016-12-28T14:12:22Z</time>
      </trkpt>
      <trkpt lat="42.99161" lon="1.95541">
        <ele>394.28</ele>
        <time>2016-12-28T14:12:25Z</time>
      </trkpt>
      <trkpt lat="42.99176" lon="1.95539">
        <ele>395.24</ele>
        <time>2016-12-28T14:12:41Z</time>
      </trkpt>
      <trkpt lat="42.99176" lon="1.95542">
        <ele>395.24</ele>
        <time>2016-12-28T14:13:05Z</time>
      </trkpt>
      <trkpt lat="42.99178" lon="1.95543">
        <ele>395.24</ele>
        <time>2016-12-28T14:13:10Z</time>
      </trkpt>
      <trkpt lat="42.99182" lon="1.95545">
        <ele>393.8</ele>
        <time>2016-12-28T14:13:15Z</time>
      </trkpt>
      <trkpt lat="42.99184" lon="1.95547">
        <ele>393.32</ele>
        <time>2016-12-28T14:13:16Z</time>
      </trkpt>
      <trkpt lat="42.99185" lon="1.95548">
        <ele>393.32</ele>
        <time>2016-12-28T14:13:17Z</time>
      </trkpt>
      <trkpt lat="42.99187" lon="1.95549">
        <ele>393.32</ele>
        <time>2016-12-28T14:13:18Z</time>
      </trkpt>
      <trkpt lat="42.99189" lon="1.95551">
        <ele>393.32</ele>
        <time>2016-12-28T14:13:19Z</time>
      </trkpt>
      <trkpt lat="42.9919" lon="1.95553">
        <ele>393.32</ele>
        <time>2016-12-28T14:13:20Z</time>
      </trkpt>
      <trkpt lat="42.99192" lon="1.95555">
        <ele>392.36</ele>
        <time>2016-12-28T14:13:21Z</time>
      </trkpt>
      <trkpt lat="42.99195" lon="1.95558">
        <ele>391.87</ele>
        <time>2016-12-28T14:13:22Z</time>
      </trkpt>
      <trkpt lat="42.99198" lon="1.95561">
        <ele>391.87</ele>
        <time>2016-12-28T14:13:23Z</time>
      </trkpt>
      <trkpt lat="42.99201" lon="1.95564">
        <ele>391.87</ele>
        <time>2016-12-28T14:13:24Z</time>
      </trkpt>
      <trkpt lat="42.99203" lon="1.95566">
        <ele>392.36</ele>
        <time>2016-12-28T14:13:25Z</time>
      </trkpt>
      <trkpt lat="42.99215" lon="1.9558">
        <ele>393.32</ele>
        <time>2016-12-28T14:13:31Z</time>
      </trkpt>
      <trkpt lat="42.99217" lon="1.95582">
        <ele>393.8</ele>
        <time>2016-12-28T14:13:32Z</time>
      </trkpt>
      <trkpt lat="42.99218" lon="1.95583">
        <ele>394.28</ele>
        <time>2016-12-28T14:13:33Z</time>
      </trkpt>
      <trkpt lat="42.9922" lon="1.95586">
        <ele>394.28</ele>
        <time>2016-12-28T14:13:34Z</time>
      </trkpt>
      <trkpt lat="42.99221" lon="1.95588">
        <ele>394.76</ele>
        <time>2016-12-28T14:13:35Z</time>
      </trkpt>
      <trkpt lat="42.99223" lon="1.9559">
        <ele>394.76</ele>
        <time>2016-12-28T14:13:36Z</time>
      </trkpt>
      <trkpt lat="42.99224" lon="1.95591">
        <ele>394.76</ele>
        <time>2016-12-28T14:13:37Z</time>
      </trkpt>
      <trkpt lat="42.99226" lon="1.95593">
        <ele>394.76</ele>
        <time>2016-12-28T14:13:38Z</time>
      </trkpt>
      <trkpt lat="42.99228" lon="1.95594">
        <ele>394.76</ele>
        <time>2016-12-28T14:13:39Z</time>
      </trkpt>
      <trkpt lat="42.99229" lon="1.95596">
        <ele>394.76</ele>
        <time>2016-12-28T14:13:40Z</time>
      </trkpt>
      <trkpt lat="42.99231" lon="1.95598">
        <ele>394.76</ele>
        <time>2016-12-28T14:13:41Z</time>
      </trkpt>
      <trkpt lat="42.99232" lon="1.95598">
        <ele>393.32</ele>
        <time>2016-12-28T14:13:42Z</time>
      </trkpt>
      <trkpt lat="42.99234" lon="1.95598">
        <ele>392.84</ele>
        <time>2016-12-28T14:13:43Z</time>
      </trkpt>
      <trkpt lat="42.99235" lon="1.95597">
        <ele>392.84</ele>
        <time>2016-12-28T14:13:44Z</time>
      </trkpt>
      <trkpt lat="42.99237" lon="1.95597">
        <ele>392.84</ele>
        <time>2016-12-28T14:13:45Z</time>
      </trkpt>
      <trkpt lat="42.99238" lon="1.95597">
        <ele>392.84</ele>
        <time>2016-12-28T14:13:46Z</time>
      </trkpt>
      <trkpt lat="42.99241" lon="1.95596">
        <ele>392.84</ele>
        <time>2016-12-28T14:13:47Z</time>
      </trkpt>
      <trkpt lat="42.99244" lon="1.95596">
        <ele>392.84</ele>
        <time>2016-12-28T14:13:48Z</time>
      </trkpt>
      <trkpt lat="42.9927" lon="1.956">
        <ele>392.36</ele>
        <time>2016-12-28T14:13:57Z</time>
      </trkpt>
      <trkpt lat="42.9929" lon="1.95616">
        <ele>393.8</ele>
        <time>2016-12-28T14:14:04Z</time>
      </trkpt>
      <trkpt lat="42.99343" lon="1.95643">
        <ele>394.76</ele>
        <time>2016-12-28T14:14:18Z</time>
      </trkpt>
      <trkpt lat="42.9937" lon="1.9566">
        <ele>395.24</ele>
        <time>2016-12-28T14:14:31Z</time>
      </trkpt>
      <trkpt lat="42.99391" lon="1.95681">
        <ele>393.32</ele>
        <time>2016-12-28T14:14:42Z</time>
      </trkpt>
      <trkpt lat="42.99393" lon="1.95682">
        <ele>393.32</ele>
        <time>2016-12-28T14:14:43Z</time>
      </trkpt>
      <trkpt lat="42.99396" lon="1.95682">
        <ele>393.32</ele>
        <time>2016-12-28T14:14:44Z</time>
      </trkpt>
      <trkpt lat="42.99399" lon="1.95684">
        <ele>393.32</ele>
        <time>2016-12-28T14:14:45Z</time>
      </trkpt>
      <trkpt lat="42.99402" lon="1.95686">
        <ele>393.32</ele>
        <time>2016-12-28T14:14:46Z</time>
      </trkpt>
      <trkpt lat="42.99421" lon="1.95709">
        <ele>394.76</ele>
        <time>2016-12-28T14:14:56Z</time>
      </trkpt>
      <trkpt lat="42.99413" lon="1.95757">
        <ele>395.24</ele>
        <time>2016-12-28T14:15:09Z</time>
      </trkpt>
      <trkpt lat="42.99399" lon="1.95823">
        <ele>395.24</ele>
        <time>2016-12-28T14:15:23Z</time>
      </trkpt>
      <trkpt lat="42.99397" lon="1.95833">
        <ele>395.24</ele>
        <time>2016-12-28T14:15:25Z</time>
      </trkpt>
      <trkpt lat="42.99396" lon="1.95838">
        <ele>395.24</ele>
        <time>2016-12-28T14:15:26Z</time>
      </trkpt>
      <trkpt lat="42.99379" lon="1.95927">
        <ele>395.24</ele>
        <time>2016-12-28T14:15:42Z</time>
      </trkpt>
      <trkpt lat="42.99368" lon="1.95986">
        <ele>395.24</ele>
        <time>2016-12-28T14:15:55Z</time>
      </trkpt>
      <trkpt lat="42.99364" lon="1.96004">
        <ele>395.72</ele>
        <time>2016-12-28T14:16:06Z</time>
      </trkpt>
      <trkpt lat="42.99365" lon="1.96001">
        <ele>394.76</ele>
        <time>2016-12-28T14:16:17Z</time>
      </trkpt>
      <trkpt lat="42.99364" lon="1.96001">
        <ele>394.76</ele>
        <time>2016-12-28T14:16:37Z</time>
      </trkpt>
      <trkpt lat="42.99364" lon="1.96002">
        <ele>395.72</ele>
        <time>2016-12-28T14:16:50Z</time>
      </trkpt>
      <trkpt lat="42.99362" lon="1.96005">
        <ele>395.72</ele>
        <time>2016-12-28T14:17:07Z</time>
      </trkpt>
      <trkpt lat="42.99363" lon="1.96003">
        <ele>396.2</ele>
        <time>2016-12-28T14:17:30Z</time>
      </trkpt>
      <trkpt lat="42.99363" lon="1.96007">
        <ele>396.68</ele>
        <time>2016-12-28T14:17:44Z</time>
      </trkpt>
      <trkpt lat="42.99363" lon="1.96008">
        <ele>396.68</ele>
        <time>2016-12-28T14:17:45Z</time>
      </trkpt>
      <trkpt lat="42.99364" lon="1.96011">
        <ele>396.68</ele>
        <time>2016-12-28T14:17:46Z</time>
      </trkpt>
      <trkpt lat="42.99364" lon="1.96015">
        <ele>396.68</ele>
        <time>2016-12-28T14:17:48Z</time>
      </trkpt>
      <trkpt lat="42.99363" lon="1.96017">
        <ele>396.68</ele>
        <time>2016-12-28T14:17:49Z</time>
      </trkpt>
      <trkpt lat="42.99358" lon="1.96021">
        <ele>396.68</ele>
        <time>2016-12-28T14:17:59Z</time>
      </trkpt>
      <trkpt lat="42.99357" lon="1.96018">
        <ele>396.68</ele>
        <time>2016-12-28T14:18:12Z</time>
      </trkpt>
      <trkpt lat="42.99357" lon="1.96017">
        <ele>396.68</ele>
        <time>2016-12-28T14:18:33Z</time>
      </trkpt>
      <trkpt lat="42.99357" lon="1.96017">
        <ele>397.16</ele>
        <time>2016-12-28T14:18:47Z</time>
      </trkpt>
      <trkpt lat="42.99358" lon="1.96018">
        <ele>397.16</ele>
        <time>2016-12-28T14:19:04Z</time>
      </trkpt>
      <trkpt lat="42.99357" lon="1.96018">
        <ele>397.16</ele>
        <time>2016-12-28T14:19:19Z</time>
      </trkpt>
      <trkpt lat="42.99356" lon="1.96018">
        <ele>397.16</ele>
        <time>2016-12-28T14:19:20Z</time>
      </trkpt>
      <trkpt lat="42.99355" lon="1.96018">
        <ele>397.16</ele>
        <time>2016-12-28T14:19:21Z</time>
      </trkpt>
      <trkpt lat="42.99353" lon="1.96018">
        <ele>397.16</ele>
        <time>2016-12-28T14:19:22Z</time>
      </trkpt>
      <trkpt lat="42.99351" lon="1.96017">
        <ele>397.16</ele>
        <time>2016-12-28T14:19:31Z</time>
      </trkpt>
      <trkpt lat="42.99349" lon="1.96016">
        <ele>397.16</ele>
        <time>2016-12-28T14:19:32Z</time>
      </trkpt>
      <trkpt lat="42.99347" lon="1.96014">
        <ele>397.16</ele>
        <time>2016-12-28T14:19:33Z</time>
      </trkpt>
      <trkpt lat="42.99344" lon="1.96013">
        <ele>397.16</ele>
        <time>2016-12-28T14:19:34Z</time>
      </trkpt>
      <trkpt lat="42.99342" lon="1.96013">
        <ele>397.16</ele>
        <time>2016-12-28T14:19:35Z</time>
      </trkpt>
      <trkpt lat="42.99339" lon="1.96013">
        <ele>397.16</ele>
        <time>2016-12-28T14:19:36Z</time>
      </trkpt>
      <trkpt lat="42.99337" lon="1.96013">
        <ele>397.16</ele>
        <time>2016-12-28T14:19:37Z</time>
      </trkpt>
      <trkpt lat="42.99335" lon="1.96014">
        <ele>397.16</ele>
        <time>2016-12-28T14:19:38Z</time>
      </trkpt>
      <trkpt lat="42.99333" lon="1.96014">
        <ele>397.16</ele>
        <time>2016-12-28T14:19:39Z</time>
      </trkpt>
      <trkpt lat="42.99296" lon="1.96031">
        <ele>395.72</ele>
        <time>2016-12-28T14:19:52Z</time>
      </trkpt>
      <trkpt lat="42.99273" lon="1.96048">
        <ele>399.08</ele>
        <time>2016-12-28T14:20:02Z</time>
      </trkpt>
      <trkpt lat="42.9925" lon="1.96073">
        <ele>401.97</ele>
        <time>2016-12-28T14:20:14Z</time>
      </trkpt>
      <trkpt lat="42.99248" lon="1.96074">
        <ele>401.97</ele>
        <time>2016-12-28T14:20:15Z</time>
      </trkpt>
      <trkpt lat="42.99246" lon="1.96075">
        <ele>401.97</ele>
        <time>2016-12-28T14:20:16Z</time>
      </trkpt>
      <trkpt lat="42.99244" lon="1.96076">
        <ele>401.97</ele>
        <time>2016-12-28T14:20:17Z</time>
      </trkpt>
      <trkpt lat="42.99243" lon="1.96078">
        <ele>402.45</ele>
        <time>2016-12-28T14:20:18Z</time>
      </trkpt>
      <trkpt lat="42.99241" lon="1.9608">
        <ele>402.45</ele>
        <time>2016-12-28T14:20:19Z</time>
      </trkpt>
      <trkpt lat="42.99227" lon="1.96115">
        <ele>402.93</ele>
        <time>2016-12-28T14:20:31Z</time>
      </trkpt>
      <trkpt lat="42.99221" lon="1.96141">
        <ele>399.57</ele>
        <time>2016-12-28T14:20:39Z</time>
      </trkpt>
      <trkpt lat="42.99217" lon="1.96147">
        <ele>399.08</ele>
        <time>2016-12-28T14:20:41Z</time>
      </trkpt>
      <trkpt lat="42.99202" lon="1.9618">
        <ele>398.6</ele>
        <time>2016-12-28T14:20:52Z</time>
      </trkpt>
      <trkpt lat="42.99195" lon="1.96187">
        <ele>396.68</ele>
        <time>2016-12-28T14:20:55Z</time>
      </trkpt>
      <trkpt lat="42.9919" lon="1.96192">
        <ele>395.72</ele>
        <time>2016-12-28T14:20:56Z</time>
      </trkpt>
      <trkpt lat="42.99186" lon="1.96196">
        <ele>394.76</ele>
        <time>2016-12-28T14:20:57Z</time>
      </trkpt>
      <trkpt lat="42.99182" lon="1.962">
        <ele>394.28</ele>
        <time>2016-12-28T14:20:58Z</time>
      </trkpt>
      <trkpt lat="42.99178" lon="1.96205">
        <ele>394.28</ele>
        <time>2016-12-28T14:20:59Z</time>
      </trkpt>
      <trkpt lat="42.99175" lon="1.96211">
        <ele>394.28</ele>
        <time>2016-12-28T14:21:00Z</time>
      </trkpt>
      <trkpt lat="42.99174" lon="1.96217">
        <ele>394.28</ele>
        <time>2016-12-28T14:21:01Z</time>
      </trkpt>
      <trkpt lat="42.99173" lon="1.96222">
        <ele>394.28</ele>
        <time>2016-12-28T14:21:02Z</time>
      </trkpt>
      <trkpt lat="42.99173" lon="1.96225">
        <ele>395.24</ele>
        <time>2016-12-28T14:21:03Z</time>
      </trkpt>
      <trkpt lat="42.99176" lon="1.96248">
        <ele>398.6</ele>
        <time>2016-12-28T14:21:12Z</time>
      </trkpt>
      <trkpt lat="42.99175" lon="1.96257">
        <ele>399.57</ele>
        <time>2016-12-28T14:21:16Z</time>
      </trkpt>
      <trkpt lat="42.99175" lon="1.9626">
        <ele>399.57</ele>
        <time>2016-12-28T14:21:17Z</time>
      </trkpt>
      <trkpt lat="42.99175" lon="1.96263">
        <ele>400.05</ele>
        <time>2016-12-28T14:21:18Z</time>
      </trkpt>
      <trkpt lat="42.99175" lon="1.96266">
        <ele>400.05</ele>
        <time>2016-12-28T14:21:19Z</time>
      </trkpt>
      <trkpt lat="42.99175" lon="1.96269">
        <ele>400.05</ele>
        <time>2016-12-28T14:21:20Z</time>
      </trkpt>
      <trkpt lat="42.99175" lon="1.96272">
        <ele>400.53</ele>
        <time>2016-12-28T14:21:21Z</time>
      </trkpt>
      <trkpt lat="42.99174" lon="1.96276">
        <ele>400.53</ele>
        <time>2016-12-28T14:21:22Z</time>
      </trkpt>
      <trkpt lat="42.99173" lon="1.96279">
        <ele>400.53</ele>
        <time>2016-12-28T14:21:23Z</time>
      </trkpt>
      <trkpt lat="42.99172" lon="1.96283">
        <ele>400.53</ele>
        <time>2016-12-28T14:21:24Z</time>
      </trkpt>
      <trkpt lat="42.99171" lon="1.96287">
        <ele>400.53</ele>
        <time>2016-12-28T14:21:25Z</time>
      </trkpt>
      <trkpt lat="42.9917" lon="1.96291">
        <ele>400.53</ele>
        <time>2016-12-28T14:21:26Z</time>
      </trkpt>
      <trkpt lat="42.99169" lon="1.96296">
        <ele>400.53</ele>
        <time>2016-12-28T14:21:27Z</time>
      </trkpt>
      <trkpt lat="42.99167" lon="1.963">
        <ele>400.53</ele>
        <time>2016-12-28T14:21:28Z</time>
      </trkpt>
      <trkpt lat="42.99166" lon="1.96305">
        <ele>401.01</ele>
        <time>2016-12-28T14:21:29Z</time>
      </trkpt>
      <trkpt lat="42.99164" lon="1.96309">
        <ele>401.01</ele>
        <time>2016-12-28T14:21:30Z</time>
      </trkpt>
      <trkpt lat="42.99159" lon="1.96325">
        <ele>399.57</ele>
        <time>2016-12-28T14:21:33Z</time>
      </trkpt>
      <trkpt lat="42.99158" lon="1.96344">
        <ele>401.01</ele>
        <time>2016-12-28T14:21:37Z</time>
      </trkpt>
      <trkpt lat="42.99158" lon="1.9635">
        <ele>401.49</ele>
        <time>2016-12-28T14:21:39Z</time>
      </trkpt>
      <trkpt lat="42.99157" lon="1.96353">
        <ele>401.49</ele>
        <time>2016-12-28T14:21:40Z</time>
      </trkpt>
      <trkpt lat="42.99141" lon="1.96402">
        <ele>401.49</ele>
        <time>2016-12-28T14:21:51Z</time>
      </trkpt>
      <trkpt lat="42.99132" lon="1.96415">
        <ele>401.97</ele>
        <time>2016-12-28T14:21:55Z</time>
      </trkpt>
      <trkpt lat="42.99125" lon="1.96422">
        <ele>401.97</ele>
        <time>2016-12-28T14:21:58Z</time>
      </trkpt>
      <trkpt lat="42.99111" lon="1.96439">
        <ele>400.05</ele>
        <time>2016-12-28T14:22:02Z</time>
      </trkpt>
      <trkpt lat="42.99104" lon="1.9645">
        <ele>399.08</ele>
        <time>2016-12-28T14:22:04Z</time>
      </trkpt>
      <trkpt lat="42.99075" lon="1.96491">
        <ele>400.53</ele>
        <time>2016-12-28T14:22:15Z</time>
      </trkpt>
      <trkpt lat="42.99039" lon="1.96526">
        <ele>399.57</ele>
        <time>2016-12-28T14:22:27Z</time>
      </trkpt>
      <trkpt lat="42.99029" lon="1.96537">
        <ele>396.2</ele>
        <time>2016-12-28T14:22:31Z</time>
      </trkpt>
      <trkpt lat="42.99021" lon="1.96544">
        <ele>394.28</ele>
        <time>2016-12-28T14:22:33Z</time>
      </trkpt>
      <trkpt lat="42.99018" lon="1.96547">
        <ele>393.8</ele>
        <time>2016-12-28T14:22:34Z</time>
      </trkpt>
      <trkpt lat="42.99015" lon="1.96551">
        <ele>393.8</ele>
        <time>2016-12-28T14:22:35Z</time>
      </trkpt>
      <trkpt lat="42.99014" lon="1.96553">
        <ele>393.8</ele>
        <time>2016-12-28T14:22:36Z</time>
      </trkpt>
      <trkpt lat="42.99013" lon="1.96556">
        <ele>393.32</ele>
        <time>2016-12-28T14:22:37Z</time>
      </trkpt>
      <trkpt lat="42.99012" lon="1.96558">
        <ele>393.32</ele>
        <time>2016-12-28T14:22:38Z</time>
      </trkpt>
      <trkpt lat="42.9901" lon="1.9656">
        <ele>392.84</ele>
        <time>2016-12-28T14:22:39Z</time>
      </trkpt>
      <trkpt lat="42.99008" lon="1.96564">
        <ele>392.84</ele>
        <time>2016-12-28T14:22:40Z</time>
      </trkpt>
      <trkpt lat="42.99007" lon="1.96566">
        <ele>393.8</ele>
        <time>2016-12-28T14:22:41Z</time>
      </trkpt>
      <trkpt lat="42.99006" lon="1.96569">
        <ele>393.8</ele>
        <time>2016-12-28T14:22:42Z</time>
      </trkpt>
      <trkpt lat="42.98999" lon="1.96582">
        <ele>397.64</ele>
        <time>2016-12-28T14:22:50Z</time>
      </trkpt>
      <trkpt lat="42.98986" lon="1.96607">
        <ele>401.01</ele>
        <time>2016-12-28T14:23:03Z</time>
      </trkpt>
      <trkpt lat="42.98974" lon="1.96618">
        <ele>402.93</ele>
        <time>2016-12-28T14:23:14Z</time>
      </trkpt>
      <trkpt lat="42.98957" lon="1.9663">
        <ele>405.81</ele>
        <time>2016-12-28T14:23:27Z</time>
      </trkpt>
      <trkpt lat="42.98943" lon="1.96638">
        <ele>408.7</ele>
        <time>2016-12-28T14:23:39Z</time>
      </trkpt>
      <trkpt lat="42.98929" lon="1.96643">
        <ele>410.14</ele>
        <time>2016-12-28T14:23:52Z</time>
      </trkpt>
      <trkpt lat="42.9893" lon="1.96647">
        <ele>410.14</ele>
        <time>2016-12-28T14:24:03Z</time>
      </trkpt>
      <trkpt lat="42.98928" lon="1.96645">
        <ele>410.14</ele>
        <time>2016-12-28T14:24:07Z</time>
      </trkpt>
      <trkpt lat="42.98927" lon="1.96645">
        <ele>410.14</ele>
        <time>2016-12-28T14:24:08Z</time>
      </trkpt>
      <trkpt lat="42.9893" lon="1.96645">
        <ele>410.62</ele>
        <time>2016-12-28T14:24:17Z</time>
      </trkpt>
      <trkpt lat="42.98927" lon="1.9664">
        <ele>410.62</ele>
        <time>2016-12-28T14:24:21Z</time>
      </trkpt>
      <trkpt lat="42.98926" lon="1.96644">
        <ele>410.62</ele>
        <time>2016-12-28T14:24:25Z</time>
      </trkpt>
      <trkpt lat="42.9893" lon="1.96644">
        <ele>410.62</ele>
        <time>2016-12-28T14:24:33Z</time>
      </trkpt>
      <trkpt lat="42.98927" lon="1.96641">
        <ele>410.62</ele>
        <time>2016-12-28T14:24:44Z</time>
      </trkpt>
      <trkpt lat="42.98926" lon="1.96641">
        <ele>410.62</ele>
        <time>2016-12-28T14:25:09Z</time>
      </trkpt>
      <trkpt lat="42.98926" lon="1.96643">
        <ele>410.62</ele>
        <time>2016-12-28T14:25:20Z</time>
      </trkpt>
      <trkpt lat="42.9892" lon="1.9664">
        <ele>410.62</ele>
        <time>2016-12-28T14:25:26Z</time>
      </trkpt>
      <trkpt lat="42.98914" lon="1.96645">
        <ele>410.62</ele>
        <time>2016-12-28T14:25:32Z</time>
      </trkpt>
      <trkpt lat="42.98897" lon="1.96638">
        <ele>408.22</ele>
        <time>2016-12-28T14:25:41Z</time>
      </trkpt>
      <trkpt lat="42.98878" lon="1.96632">
        <ele>403.89</ele>
        <time>2016-12-28T14:25:44Z</time>
      </trkpt>
      <trkpt lat="42.98854" lon="1.96624">
        <ele>400.05</ele>
        <time>2016-12-28T14:25:47Z</time>
      </trkpt>
      <trkpt lat="42.98847" lon="1.96622">
        <ele>400.05</ele>
        <time>2016-12-28T14:25:48Z</time>
      </trkpt>
      <trkpt lat="42.98836" lon="1.96618">
        <ele>400.05</ele>
        <time>2016-12-28T14:25:50Z</time>
      </trkpt>
      <trkpt lat="42.9882" lon="1.966">
        <ele>399.08</ele>
        <time>2016-12-28T14:25:54Z</time>
      </trkpt>
      <trkpt lat="42.98803" lon="1.96563">
        <ele>394.76</ele>
        <time>2016-12-28T14:25:59Z</time>
      </trkpt>
      <trkpt lat="42.98793" lon="1.96532">
        <ele>393.8</ele>
        <time>2016-12-28T14:26:03Z</time>
      </trkpt>
      <trkpt lat="42.98788" lon="1.96514">
        <ele>393.8</ele>
        <time>2016-12-28T14:26:06Z</time>
      </trkpt>
      <trkpt lat="42.98786" lon="1.96511">
        <ele>393.8</ele>
        <time>2016-12-28T14:26:07Z</time>
      </trkpt>
      <trkpt lat="42.98783" lon="1.9651">
        <ele>393.8</ele>
        <time>2016-12-28T14:26:08Z</time>
      </trkpt>
      <trkpt lat="42.9878" lon="1.96511">
        <ele>393.8</ele>
        <time>2016-12-28T14:26:09Z</time>
      </trkpt>
      <trkpt lat="42.98778" lon="1.96511">
        <ele>393.8</ele>
        <time>2016-12-28T14:26:10Z</time>
      </trkpt>
      <trkpt lat="42.98773" lon="1.96511">
        <ele>394.76</ele>
        <time>2016-12-28T14:26:12Z</time>
      </trkpt>
      <trkpt lat="42.98726" lon="1.96513">
        <ele>397.16</ele>
        <time>2016-12-28T14:26:28Z</time>
      </trkpt>
      <trkpt lat="42.98689" lon="1.96525">
        <ele>400.53</ele>
        <time>2016-12-28T14:26:41Z</time>
      </trkpt>
      <trkpt lat="42.98643" lon="1.96534">
        <ele>401.97</ele>
        <time>2016-12-28T14:26:57Z</time>
      </trkpt>
      <trkpt lat="42.98629" lon="1.96538">
        <ele>400.53</ele>
        <time>2016-12-28T14:27:00Z</time>
      </trkpt>
      <trkpt lat="42.98603" lon="1.96545">
        <ele>398.6</ele>
        <time>2016-12-28T14:27:05Z</time>
      </trkpt>
      <trkpt lat="42.98593" lon="1.96548">
        <ele>398.6</ele>
        <time>2016-12-28T14:27:07Z</time>
      </trkpt>
      <trkpt lat="42.98564" lon="1.96555">
        <ele>400.05</ele>
        <time>2016-12-28T14:27:16Z</time>
      </trkpt>
      <trkpt lat="42.98525" lon="1.96566">
        <ele>401.49</ele>
        <time>2016-12-28T14:27:29Z</time>
      </trkpt>
      <trkpt lat="42.98489" lon="1.96566">
        <ele>404.85</ele>
        <time>2016-12-28T14:27:40Z</time>
      </trkpt>
      <trkpt lat="42.98463" lon="1.96564">
        <ele>407.74</ele>
        <time>2016-12-28T14:27:49Z</time>
      </trkpt>
      <trkpt lat="42.98426" lon="1.96561">
        <ele>410.62</ele>
        <time>2016-12-28T14:28:03Z</time>
      </trkpt>
      <trkpt lat="42.98377" lon="1.96587">
        <ele>406.77</ele>
        <time>2016-12-28T14:28:16Z</time>
      </trkpt>
      <trkpt lat="42.98356" lon="1.96604">
        <ele>402.45</ele>
        <time>2016-12-28T14:28:19Z</time>
      </trkpt>
      <trkpt lat="42.98275" lon="1.96675">
        <ele>402.45</ele>
        <time>2016-12-28T14:28:31Z</time>
      </trkpt>
      <trkpt lat="42.98254" lon="1.96709">
        <ele>404.85</ele>
        <time>2016-12-28T14:28:37Z</time>
      </trkpt>
      <trkpt lat="42.98237" lon="1.96734">
        <ele>408.22</ele>
        <time>2016-12-28T14:28:43Z</time>
      </trkpt>
      <trkpt lat="42.98218" lon="1.96758">
        <ele>411.1</ele>
        <time>2016-12-28T14:28:52Z</time>
      </trkpt>
      <trkpt lat="42.98195" lon="1.96783">
        <ele>414.47</ele>
        <time>2016-12-28T14:29:06Z</time>
      </trkpt>
      <trkpt lat="42.98181" lon="1.96794">
        <ele>414.47</ele>
        <time>2016-12-28T14:29:19Z</time>
      </trkpt>
      <trkpt lat="42.98176" lon="1.96793">
        <ele>414.47</ele>
        <time>2016-12-28T14:29:36Z</time>
      </trkpt>
      <trkpt lat="42.98177" lon="1.96793">
        <ele>414.47</ele>
        <time>2016-12-28T14:29:54Z</time>
      </trkpt>
      <trkpt lat="42.98175" lon="1.96797">
        <ele>414.47</ele>
        <time>2016-12-28T14:30:08Z</time>
      </trkpt>
      <trkpt lat="42.98176" lon="1.96798">
        <ele>414.47</ele>
        <time>2016-12-28T14:30:23Z</time>
      </trkpt>
      <trkpt lat="42.98175" lon="1.96799">
        <ele>414.47</ele>
        <time>2016-12-28T14:30:34Z</time>
      </trkpt>
      <trkpt lat="42.98174" lon="1.968">
        <ele>414.47</ele>
        <time>2016-12-28T14:30:35Z</time>
      </trkpt>
      <trkpt lat="42.98173" lon="1.96801">
        <ele>414.95</ele>
        <time>2016-12-28T14:30:36Z</time>
      </trkpt>
      <trkpt lat="42.98172" lon="1.96802">
        <ele>414.47</ele>
        <time>2016-12-28T14:30:37Z</time>
      </trkpt>
      <trkpt lat="42.9817" lon="1.96803">
        <ele>414.95</ele>
        <time>2016-12-28T14:30:38Z</time>
      </trkpt>
      <trkpt lat="42.98167" lon="1.96803">
        <ele>414.95</ele>
        <time>2016-12-28T14:30:39Z</time>
      </trkpt>
      <trkpt lat="42.98165" lon="1.96805">
        <ele>413.5</ele>
        <time>2016-12-28T14:30:40Z</time>
      </trkpt>
      <trkpt lat="42.98162" lon="1.96807">
        <ele>413.02</ele>
        <time>2016-12-28T14:30:41Z</time>
      </trkpt>
      <trkpt lat="42.98158" lon="1.96809">
        <ele>412.06</ele>
        <time>2016-12-28T14:30:42Z</time>
      </trkpt>
      <trkpt lat="42.98147" lon="1.96815">
        <ele>410.14</ele>
        <time>2016-12-28T14:30:44Z</time>
      </trkpt>
      <trkpt lat="42.98126" lon="1.96822">
        <ele>406.77</ele>
        <time>2016-12-28T14:30:47Z</time>
      </trkpt>
      <trkpt lat="42.98119" lon="1.96824">
        <ele>406.29</ele>
        <time>2016-12-28T14:30:48Z</time>
      </trkpt>
      <trkpt lat="42.98106" lon="1.96829">
        <ele>404.37</ele>
        <time>2016-12-28T14:30:50Z</time>
      </trkpt>
      <trkpt lat="42.98099" lon="1.96835">
        <ele>403.41</ele>
        <time>2016-12-28T14:30:51Z</time>
      </trkpt>
      <trkpt lat="42.98093" lon="1.96841">
        <ele>402.45</ele>
        <time>2016-12-28T14:30:52Z</time>
      </trkpt>
      <trkpt lat="42.98088" lon="1.96849">
        <ele>402.45</ele>
        <time>2016-12-28T14:30:53Z</time>
      </trkpt>
      <trkpt lat="42.98049" lon="1.96905">
        <ele>399.57</ele>
        <time>2016-12-28T14:31:00Z</time>
      </trkpt>
      <trkpt lat="42.98031" lon="1.96933">
        <ele>398.12</ele>
        <time>2016-12-28T14:31:03Z</time>
      </trkpt>
      <trkpt lat="42.98024" lon="1.96941">
        <ele>398.12</ele>
        <time>2016-12-28T14:31:04Z</time>
      </trkpt>
      <trkpt lat="42.98016" lon="1.96949">
        <ele>397.16</ele>
        <time>2016-12-28T14:31:05Z</time>
      </trkpt>
      <trkpt lat="42.98007" lon="1.96953">
        <ele>395.72</ele>
        <time>2016-12-28T14:31:06Z</time>
      </trkpt>
      <trkpt lat="42.97997" lon="1.96955">
        <ele>395.24</ele>
        <time>2016-12-28T14:31:07Z</time>
      </trkpt>
      <trkpt lat="42.97987" lon="1.96954">
        <ele>393.8</ele>
        <time>2016-12-28T14:31:08Z</time>
      </trkpt>
      <trkpt lat="42.97977" lon="1.96952">
        <ele>392.84</ele>
        <time>2016-12-28T14:31:09Z</time>
      </trkpt>
      <trkpt lat="42.97936" lon="1.96942">
        <ele>389.95</ele>
        <time>2016-12-28T14:31:13Z</time>
      </trkpt>
      <trkpt lat="42.97926" lon="1.96941">
        <ele>388.99</ele>
        <time>2016-12-28T14:31:14Z</time>
      </trkpt>
      <trkpt lat="42.97916" lon="1.96944">
        <ele>388.51</ele>
        <time>2016-12-28T14:31:15Z</time>
      </trkpt>
      <trkpt lat="42.97908" lon="1.96949">
        <ele>388.51</ele>
        <time>2016-12-28T14:31:16Z</time>
      </trkpt>
      <trkpt lat="42.979" lon="1.96956">
        <ele>388.03</ele>
        <time>2016-12-28T14:31:17Z</time>
      </trkpt>
      <trkpt lat="42.97894" lon="1.96963">
        <ele>388.03</ele>
        <time>2016-12-28T14:31:18Z</time>
      </trkpt>
      <trkpt lat="42.97888" lon="1.96972">
        <ele>389.95</ele>
        <time>2016-12-28T14:31:19Z</time>
      </trkpt>
      <trkpt lat="42.97883" lon="1.9698">
        <ele>390.43</ele>
        <time>2016-12-28T14:31:20Z</time>
      </trkpt>
      <trkpt lat="42.97879" lon="1.9699">
        <ele>390.91</ele>
        <time>2016-12-28T14:31:21Z</time>
      </trkpt>
      <trkpt lat="42.97876" lon="1.96998">
        <ele>390.91</ele>
        <time>2016-12-28T14:31:22Z</time>
      </trkpt>
      <trkpt lat="42.97874" lon="1.97008">
        <ele>391.39</ele>
        <time>2016-12-28T14:31:23Z</time>
      </trkpt>
      <trkpt lat="42.97873" lon="1.97018">
        <ele>391.39</ele>
        <time>2016-12-28T14:31:24Z</time>
      </trkpt>
      <trkpt lat="42.97873" lon="1.97028">
        <ele>391.87</ele>
        <time>2016-12-28T14:31:25Z</time>
      </trkpt>
      <trkpt lat="42.97873" lon="1.97037">
        <ele>391.87</ele>
        <time>2016-12-28T14:31:26Z</time>
      </trkpt>
      <trkpt lat="42.97873" lon="1.97046">
        <ele>392.36</ele>
        <time>2016-12-28T14:31:27Z</time>
      </trkpt>
      <trkpt lat="42.97871" lon="1.9708">
        <ele>392.36</ele>
        <time>2016-12-28T14:31:31Z</time>
      </trkpt>
      <trkpt lat="42.97869" lon="1.97088">
        <ele>392.36</ele>
        <time>2016-12-28T14:31:32Z</time>
      </trkpt>
      <trkpt lat="42.97867" lon="1.97096">
        <ele>392.84</ele>
        <time>2016-12-28T14:31:33Z</time>
      </trkpt>
      <trkpt lat="42.97864" lon="1.97103">
        <ele>392.84</ele>
        <time>2016-12-28T14:31:34Z</time>
      </trkpt>
      <trkpt lat="42.97861" lon="1.97109">
        <ele>392.84</ele>
        <time>2016-12-28T14:31:35Z</time>
      </trkpt>
      <trkpt lat="42.97857" lon="1.97115">
        <ele>392.84</ele>
        <time>2016-12-28T14:31:36Z</time>
      </trkpt>
      <trkpt lat="42.97853" lon="1.97121">
        <ele>392.84</ele>
        <time>2016-12-28T14:31:37Z</time>
      </trkpt>
      <trkpt lat="42.97849" lon="1.97125">
        <ele>392.84</ele>
        <time>2016-12-28T14:31:38Z</time>
      </trkpt>
      <trkpt lat="42.97844" lon="1.97129">
        <ele>392.84</ele>
        <time>2016-12-28T14:31:39Z</time>
      </trkpt>
      <trkpt lat="42.9784" lon="1.97131">
        <ele>392.84</ele>
        <time>2016-12-28T14:31:40Z</time>
      </trkpt>
      <trkpt lat="42.97834" lon="1.97132">
        <ele>392.84</ele>
        <time>2016-12-28T14:31:41Z</time>
      </trkpt>
      <trkpt lat="42.97829" lon="1.97133">
        <ele>392.84</ele>
        <time>2016-12-28T14:31:42Z</time>
      </trkpt>
      <trkpt lat="42.97824" lon="1.97133">
        <ele>392.84</ele>
        <time>2016-12-28T14:31:43Z</time>
      </trkpt>
      <trkpt lat="42.97789" lon="1.97127">
        <ele>393.8</ele>
        <time>2016-12-28T14:31:50Z</time>
      </trkpt>
      <trkpt lat="42.9778" lon="1.97125">
        <ele>393.32</ele>
        <time>2016-12-28T14:31:52Z</time>
      </trkpt>
      <trkpt lat="42.97775" lon="1.97126">
        <ele>393.32</ele>
        <time>2016-12-28T14:31:53Z</time>
      </trkpt>
      <trkpt lat="42.97756" lon="1.97129">
        <ele>393.8</ele>
        <time>2016-12-28T14:31:58Z</time>
      </trkpt>
      <trkpt lat="42.9771" lon="1.97129">
        <ele>395.24</ele>
        <time>2016-12-28T14:32:12Z</time>
      </trkpt>
      <trkpt lat="42.97706" lon="1.97129">
        <ele>395.24</ele>
        <time>2016-12-28T14:32:13Z</time>
      </trkpt>
      <trkpt lat="42.97668" lon="1.97134">
        <ele>395.24</ele>
        <time>2016-12-28T14:32:25Z</time>
      </trkpt>
      <trkpt lat="42.97659" lon="1.97141">
        <ele>395.72</ele>
        <time>2016-12-28T14:32:29Z</time>
      </trkpt>
      <trkpt lat="42.97658" lon="1.97145">
        <ele>395.72</ele>
        <time>2016-12-28T14:32:30Z</time>
      </trkpt>
      <trkpt lat="42.97656" lon="1.97171">
        <ele>396.68</ele>
        <time>2016-12-28T14:32:39Z</time>
      </trkpt>
      <trkpt lat="42.97655" lon="1.97169">
        <ele>397.16</ele>
        <time>2016-12-28T14:32:44Z</time>
      </trkpt>
      <trkpt lat="42.97658" lon="1.97134">
        <ele>395.24</ele>
        <time>2016-12-28T14:32:54Z</time>
      </trkpt>
      <trkpt lat="42.9766" lon="1.971">
        <ele>394.76</ele>
        <time>2016-12-28T14:33:04Z</time>
      </trkpt>
      <trkpt lat="42.9766" lon="1.97098">
        <ele>394.76</ele>
        <time>2016-12-28T14:33:05Z</time>
      </trkpt>
      <trkpt lat="42.97659" lon="1.97097">
        <ele>394.76</ele>
        <time>2016-12-28T14:33:06Z</time>
      </trkpt>
      <trkpt lat="42.97658" lon="1.97095">
        <ele>394.76</ele>
        <time>2016-12-28T14:33:07Z</time>
      </trkpt>
      <trkpt lat="42.97657" lon="1.97093">
        <ele>394.76</ele>
        <time>2016-12-28T14:33:08Z</time>
      </trkpt>
      <trkpt lat="42.97656" lon="1.97092">
        <ele>394.76</ele>
        <time>2016-12-28T14:33:09Z</time>
      </trkpt>
      <trkpt lat="42.97654" lon="1.97091">
        <ele>394.76</ele>
        <time>2016-12-28T14:33:10Z</time>
      </trkpt>
      <trkpt lat="42.97652" lon="1.9709">
        <ele>394.76</ele>
        <time>2016-12-28T14:33:11Z</time>
      </trkpt>
      <trkpt lat="42.9765" lon="1.9709">
        <ele>394.28</ele>
        <time>2016-12-28T14:33:12Z</time>
      </trkpt>
      <trkpt lat="42.97647" lon="1.97091">
        <ele>394.28</ele>
        <time>2016-12-28T14:33:13Z</time>
      </trkpt>
      <trkpt lat="42.97645" lon="1.97092">
        <ele>394.28</ele>
        <time>2016-12-28T14:33:14Z</time>
      </trkpt>
      <trkpt lat="42.97642" lon="1.97094">
        <ele>394.28</ele>
        <time>2016-12-28T14:33:15Z</time>
      </trkpt>
      <trkpt lat="42.97616" lon="1.97097">
        <ele>392.36</ele>
        <time>2016-12-28T14:33:22Z</time>
      </trkpt>
      <trkpt lat="42.97583" lon="1.97108">
        <ele>392.36</ele>
        <time>2016-12-28T14:33:32Z</time>
      </trkpt>
      <trkpt lat="42.97578" lon="1.97114">
        <ele>393.8</ele>
        <time>2016-12-28T14:33:34Z</time>
      </trkpt>
      <trkpt lat="42.97575" lon="1.97114">
        <ele>393.8</ele>
        <time>2016-12-28T14:33:35Z</time>
      </trkpt>
      <trkpt lat="42.97572" lon="1.97112">
        <ele>393.8</ele>
        <time>2016-12-28T14:33:36Z</time>
      </trkpt>
      <trkpt lat="42.97522" lon="1.9708">
        <ele>393.8</ele>
        <time>2016-12-28T14:33:51Z</time>
      </trkpt>
      <trkpt lat="42.97481" lon="1.9705">
        <ele>393.8</ele>
        <time>2016-12-28T14:34:04Z</time>
      </trkpt>
      <trkpt lat="42.97453" lon="1.97045">
        <ele>394.28</ele>
        <time>2016-12-28T14:34:14Z</time>
      </trkpt>
      <trkpt lat="42.97439" lon="1.97079">
        <ele>394.28</ele>
        <time>2016-12-28T14:34:22Z</time>
      </trkpt>
      <trkpt lat="42.97422" lon="1.97121">
        <ele>394.76</ele>
        <time>2016-12-28T14:34:31Z</time>
      </trkpt>
      <trkpt lat="42.97388" lon="1.9719">
        <ele>395.72</ele>
        <time>2016-12-28T14:34:45Z</time>
      </trkpt>
      <trkpt lat="42.97351" lon="1.97261">
        <ele>394.28</ele>
        <time>2016-12-28T14:34:59Z</time>
      </trkpt>
      <trkpt lat="42.97334" lon="1.973">
        <ele>394.28</ele>
        <time>2016-12-28T14:35:06Z</time>
      </trkpt>
      <trkpt lat="42.97332" lon="1.97306">
        <ele>394.28</ele>
        <time>2016-12-28T14:35:07Z</time>
      </trkpt>
      <trkpt lat="42.97329" lon="1.97312">
        <ele>393.8</ele>
        <time>2016-12-28T14:35:08Z</time>
      </trkpt>
      <trkpt lat="42.97326" lon="1.97317">
        <ele>393.8</ele>
        <time>2016-12-28T14:35:09Z</time>
      </trkpt>
      <trkpt lat="42.97324" lon="1.97322">
        <ele>392.84</ele>
        <time>2016-12-28T14:35:10Z</time>
      </trkpt>
      <trkpt lat="42.97322" lon="1.97326">
        <ele>392.84</ele>
        <time>2016-12-28T14:35:11Z</time>
      </trkpt>
      <trkpt lat="42.97312" lon="1.97346">
        <ele>392.84</ele>
        <time>2016-12-28T14:35:15Z</time>
      </trkpt>
      <trkpt lat="42.97309" lon="1.97351">
        <ele>392.84</ele>
        <time>2016-12-28T14:35:16Z</time>
      </trkpt>
      <trkpt lat="42.973" lon="1.9737">
        <ele>392.36</ele>
        <time>2016-12-28T14:35:19Z</time>
      </trkpt>
      <trkpt lat="42.97294" lon="1.97383">
        <ele>392.36</ele>
        <time>2016-12-28T14:35:21Z</time>
      </trkpt>
      <trkpt lat="42.97277" lon="1.97413">
        <ele>392.36</ele>
        <time>2016-12-28T14:35:26Z</time>
      </trkpt>
      <trkpt lat="42.97264" lon="1.97444">
        <ele>392.36</ele>
        <time>2016-12-28T14:35:31Z</time>
      </trkpt>
      <trkpt lat="42.9726" lon="1.97456">
        <ele>392.36</ele>
        <time>2016-12-28T14:35:33Z</time>
      </trkpt>
      <trkpt lat="42.97255" lon="1.97467">
        <ele>392.36</ele>
        <time>2016-12-28T14:35:35Z</time>
      </trkpt>
      <trkpt lat="42.97253" lon="1.97473">
        <ele>392.36</ele>
        <time>2016-12-28T14:35:36Z</time>
      </trkpt>
      <trkpt lat="42.97235" lon="1.97504">
        <ele>392.36</ele>
        <time>2016-12-28T14:35:43Z</time>
      </trkpt>
      <trkpt lat="42.97233" lon="1.97506">
        <ele>392.36</ele>
        <time>2016-12-28T14:35:44Z</time>
      </trkpt>
      <trkpt lat="42.9723" lon="1.97508">
        <ele>392.36</ele>
        <time>2016-12-28T14:35:45Z</time>
      </trkpt>
      <trkpt lat="42.97228" lon="1.9751">
        <ele>392.36</ele>
        <time>2016-12-28T14:35:46Z</time>
      </trkpt>
      <trkpt lat="42.97225" lon="1.97511">
        <ele>392.36</ele>
        <time>2016-12-28T14:35:47Z</time>
      </trkpt>
      <trkpt lat="42.97221" lon="1.97512">
        <ele>392.36</ele>
        <time>2016-12-28T14:35:48Z</time>
      </trkpt>
      <trkpt lat="42.97217" lon="1.97513">
        <ele>392.36</ele>
        <time>2016-12-28T14:35:49Z</time>
      </trkpt>
      <trkpt lat="42.97177" lon="1.97507">
        <ele>392.36</ele>
        <time>2016-12-28T14:36:00Z</time>
      </trkpt>
      <trkpt lat="42.97171" lon="1.97506">
        <ele>393.8</ele>
        <time>2016-12-28T14:36:02Z</time>
      </trkpt>
      <trkpt lat="42.97168" lon="1.97504">
        <ele>393.8</ele>
        <time>2016-12-28T14:36:03Z</time>
      </trkpt>
      <trkpt lat="42.97163" lon="1.97503">
        <ele>393.32</ele>
        <time>2016-12-28T14:36:05Z</time>
      </trkpt>
      <trkpt lat="42.97159" lon="1.97504">
        <ele>393.32</ele>
        <time>2016-12-28T14:36:06Z</time>
      </trkpt>
      <trkpt lat="42.97135" lon="1.97536">
        <ele>394.28</ele>
        <time>2016-12-28T14:36:17Z</time>
      </trkpt>
      <trkpt lat="42.97129" lon="1.97542">
        <ele>395.24</ele>
        <time>2016-12-28T14:36:26Z</time>
      </trkpt>
      <trkpt lat="42.97125" lon="1.97544">
        <ele>395.24</ele>
        <time>2016-12-28T14:36:49Z</time>
      </trkpt>
      <trkpt lat="42.97125" lon="1.97544">
        <ele>395.24</ele>
        <time>2016-12-28T14:37:08Z</time>
      </trkpt>
      <trkpt lat="42.97124" lon="1.97543">
        <ele>395.24</ele>
        <time>2016-12-28T14:37:09Z</time>
      </trkpt>
      <trkpt lat="42.97101" lon="1.97506">
        <ele>395.24</ele>
        <time>2016-12-28T14:37:20Z</time>
      </trkpt>
      <trkpt lat="42.97059" lon="1.97443">
        <ele>395.24</ele>
        <time>2016-12-28T14:37:36Z</time>
      </trkpt>
      <trkpt lat="42.97045" lon="1.97423">
        <ele>395.24</ele>
        <time>2016-12-28T14:37:41Z</time>
      </trkpt>
      <trkpt lat="42.97043" lon="1.97419">
        <ele>395.24</ele>
        <time>2016-12-28T14:37:42Z</time>
      </trkpt>
      <trkpt lat="42.97041" lon="1.97414">
        <ele>395.24</ele>
        <time>2016-12-28T14:37:43Z</time>
      </trkpt>
      <trkpt lat="42.97039" lon="1.97408">
        <ele>395.24</ele>
        <time>2016-12-28T14:37:44Z</time>
      </trkpt>
      <trkpt lat="42.97039" lon="1.97403">
        <ele>395.24</ele>
        <time>2016-12-28T14:37:45Z</time>
      </trkpt>
      <trkpt lat="42.9704" lon="1.97399">
        <ele>395.24</ele>
        <time>2016-12-28T14:37:46Z</time>
      </trkpt>
      <trkpt lat="42.97042" lon="1.97396">
        <ele>395.24</ele>
        <time>2016-12-28T14:37:47Z</time>
      </trkpt>
      <trkpt lat="42.97042" lon="1.97394">
        <ele>395.72</ele>
        <time>2016-12-28T14:37:48Z</time>
      </trkpt>
      <trkpt lat="42.97044" lon="1.97392">
        <ele>396.2</ele>
        <time>2016-12-28T14:38:01Z</time>
      </trkpt>
      <trkpt lat="42.97047" lon="1.97389">
        <ele>396.2</ele>
        <time>2016-12-28T14:38:30Z</time>
      </trkpt>
      <trkpt lat="42.97045" lon="1.97391">
        <ele>396.68</ele>
        <time>2016-12-28T14:39:00Z</time>
      </trkpt>
      <trkpt lat="42.97043" lon="1.97389">
        <ele>396.68</ele>
        <time>2016-12-28T14:39:26Z</time>
      </trkpt>
      <trkpt lat="42.97047" lon="1.97384">
        <ele>396.68</ele>
        <time>2016-12-28T14:39:40Z</time>
      </trkpt>
      <trkpt lat="42.97059" lon="1.97368">
        <ele>396.68</ele>
        <time>2016-12-28T14:39:51Z</time>
      </trkpt>
      <trkpt lat="42.97074" lon="1.97316">
        <ele>399.08</ele>
        <time>2016-12-28T14:40:06Z</time>
      </trkpt>
      <trkpt lat="42.97097" lon="1.97254">
        <ele>400.53</ele>
        <time>2016-12-28T14:40:23Z</time>
      </trkpt>
      <trkpt lat="42.97116" lon="1.97193">
        <ele>401.01</ele>
        <time>2016-12-28T14:40:39Z</time>
      </trkpt>
      <trkpt lat="42.97122" lon="1.97136">
        <ele>401.97</ele>
        <time>2016-12-28T14:40:54Z</time>
      </trkpt>
      <trkpt lat="42.97101" lon="1.97105">
        <ele>401.01</ele>
        <time>2016-12-28T14:41:05Z</time>
      </trkpt>
      <trkpt lat="42.97066" lon="1.97092">
        <ele>397.64</ele>
        <time>2016-12-28T14:41:12Z</time>
      </trkpt>
      <trkpt lat="42.97048" lon="1.97086">
        <ele>396.2</ele>
        <time>2016-12-28T14:41:15Z</time>
      </trkpt>
      <trkpt lat="42.97041" lon="1.97085">
        <ele>395.72</ele>
        <time>2016-12-28T14:41:16Z</time>
      </trkpt>
      <trkpt lat="42.97035" lon="1.97085">
        <ele>395.24</ele>
        <time>2016-12-28T14:41:17Z</time>
      </trkpt>
      <trkpt lat="42.9703" lon="1.97086">
        <ele>395.24</ele>
        <time>2016-12-28T14:41:18Z</time>
      </trkpt>
      <trkpt lat="42.97025" lon="1.97088">
        <ele>395.24</ele>
        <time>2016-12-28T14:41:19Z</time>
      </trkpt>
      <trkpt lat="42.97011" lon="1.9709">
        <ele>394.76</ele>
        <time>2016-12-28T14:41:22Z</time>
      </trkpt>
      <trkpt lat="42.97007" lon="1.97089">
        <ele>394.76</ele>
        <time>2016-12-28T14:41:23Z</time>
      </trkpt>
      <trkpt lat="42.96996" lon="1.97088">
        <ele>394.76</ele>
        <time>2016-12-28T14:41:28Z</time>
      </trkpt>
      <trkpt lat="42.96997" lon="1.97092">
        <ele>394.76</ele>
        <time>2016-12-28T14:41:30Z</time>
      </trkpt>
      <trkpt lat="42.96997" lon="1.97093">
        <ele>394.76</ele>
        <time>2016-12-28T14:41:31Z</time>
      </trkpt>
      <trkpt lat="42.96999" lon="1.97093">
        <ele>394.76</ele>
        <time>2016-12-28T14:41:32Z</time>
      </trkpt>
      <trkpt lat="42.97" lon="1.97093">
        <ele>394.76</ele>
        <time>2016-12-28T14:41:33Z</time>
      </trkpt>
      <trkpt lat="42.97001" lon="1.97093">
        <ele>394.76</ele>
        <time>2016-12-28T14:41:34Z</time>
      </trkpt>
      <trkpt lat="42.97002" lon="1.97092">
        <ele>394.76</ele>
        <time>2016-12-28T14:41:35Z</time>
      </trkpt>
      <trkpt lat="42.97003" lon="1.97091">
        <ele>394.76</ele>
        <time>2016-12-28T14:41:36Z</time>
      </trkpt>
      <trkpt lat="42.97004" lon="1.97089">
        <ele>394.76</ele>
        <time>2016-12-28T14:41:37Z</time>
      </trkpt>
      <trkpt lat="42.97002" lon="1.97088">
        <ele>394.76</ele>
        <time>2016-12-28T14:41:38Z</time>
      </trkpt>
      <trkpt lat="42.96983" lon="1.97054">
        <ele>394.28</ele>
        <time>2016-12-28T14:41:49Z</time>
      </trkpt>
      <trkpt lat="42.96958" lon="1.96985">
        <ele>394.28</ele>
        <time>2016-12-28T14:42:04Z</time>
      </trkpt>
      <trkpt lat="42.96949" lon="1.96957">
        <ele>394.28</ele>
        <time>2016-12-28T14:42:09Z</time>
      </trkpt>
      <trkpt lat="42.9692" lon="1.96888">
        <ele>394.28</ele>
        <time>2016-12-28T14:42:23Z</time>
      </trkpt>
      <trkpt lat="42.9688" lon="1.96782">
        <ele>394.28</ele>
        <time>2016-12-28T14:42:43Z</time>
      </trkpt>
      <trkpt lat="42.96855" lon="1.96688">
        <ele>394.28</ele>
        <time>2016-12-28T14:43:01Z</time>
      </trkpt>
      <trkpt lat="42.9688" lon="1.96641">
        <ele>394.28</ele>
        <time>2016-12-28T14:43:14Z</time>
      </trkpt>
      <trkpt lat="42.96898" lon="1.96602">
        <ele>393.32</ele>
        <time>2016-12-28T14:43:24Z</time>
      </trkpt>
      <trkpt lat="42.96906" lon="1.96549">
        <ele>394.28</ele>
        <time>2016-12-28T14:43:35Z</time>
      </trkpt>
      <trkpt lat="42.9691" lon="1.96541">
        <ele>394.28</ele>
        <time>2016-12-28T14:43:37Z</time>
      </trkpt>
      <trkpt lat="42.96911" lon="1.96535">
        <ele>394.28</ele>
        <time>2016-12-28T14:43:38Z</time>
      </trkpt>
      <trkpt lat="42.9691" lon="1.9653">
        <ele>394.28</ele>
        <time>2016-12-28T14:43:39Z</time>
      </trkpt>
      <trkpt lat="42.9691" lon="1.96525">
        <ele>394.28</ele>
        <time>2016-12-28T14:43:40Z</time>
      </trkpt>
      <trkpt lat="42.9691" lon="1.9652">
        <ele>394.28</ele>
        <time>2016-12-28T14:43:41Z</time>
      </trkpt>
      <trkpt lat="42.96912" lon="1.96515">
        <ele>394.28</ele>
        <time>2016-12-28T14:43:42Z</time>
      </trkpt>
      <trkpt lat="42.96913" lon="1.96511">
        <ele>394.28</ele>
        <time>2016-12-28T14:43:43Z</time>
      </trkpt>
      <trkpt lat="42.96914" lon="1.96505">
        <ele>394.28</ele>
        <time>2016-12-28T14:43:44Z</time>
      </trkpt>
      <trkpt lat="42.96915" lon="1.96499">
        <ele>394.28</ele>
        <time>2016-12-28T14:43:45Z</time>
      </trkpt>
      <trkpt lat="42.96915" lon="1.96494">
        <ele>394.28</ele>
        <time>2016-12-28T14:43:46Z</time>
      </trkpt>
      <trkpt lat="42.96915" lon="1.96488">
        <ele>394.28</ele>
        <time>2016-12-28T14:43:47Z</time>
      </trkpt>
      <trkpt lat="42.9692" lon="1.96447">
        <ele>392.36</ele>
        <time>2016-12-28T14:43:54Z</time>
      </trkpt>
      <trkpt lat="42.96924" lon="1.96437">
        <ele>392.36</ele>
        <time>2016-12-28T14:43:56Z</time>
      </trkpt>
      <trkpt lat="42.96926" lon="1.96432">
        <ele>392.36</ele>
        <time>2016-12-28T14:43:57Z</time>
      </trkpt>
      <trkpt lat="42.96964" lon="1.96412">
        <ele>393.8</ele>
        <time>2016-12-28T14:44:08Z</time>
      </trkpt>
      <trkpt lat="42.96967" lon="1.96408">
        <ele>393.8</ele>
        <time>2016-12-28T14:44:09Z</time>
      </trkpt>
      <trkpt lat="42.96969" lon="1.96403">
        <ele>393.8</ele>
        <time>2016-12-28T14:44:10Z</time>
      </trkpt>
      <trkpt lat="42.96971" lon="1.96397">
        <ele>393.8</ele>
        <time>2016-12-28T14:44:11Z</time>
      </trkpt>
      <trkpt lat="42.96972" lon="1.96392">
        <ele>393.8</ele>
        <time>2016-12-28T14:44:12Z</time>
      </trkpt>
      <trkpt lat="42.96973" lon="1.96387">
        <ele>393.8</ele>
        <time>2016-12-28T14:44:13Z</time>
      </trkpt>
      <trkpt lat="42.96973" lon="1.96382">
        <ele>393.8</ele>
        <time>2016-12-28T14:44:14Z</time>
      </trkpt>
      <trkpt lat="42.96973" lon="1.96377">
        <ele>394.28</ele>
        <time>2016-12-28T14:44:15Z</time>
      </trkpt>
      <trkpt lat="42.96973" lon="1.96373">
        <ele>394.28</ele>
        <time>2016-12-28T14:44:16Z</time>
      </trkpt>
      <trkpt lat="42.96977" lon="1.96334">
        <ele>395.72</ele>
        <time>2016-12-28T14:44:27Z</time>
      </trkpt>
      <trkpt lat="42.96978" lon="1.96332">
        <ele>395.72</ele>
        <time>2016-12-28T14:44:28Z</time>
      </trkpt>
      <trkpt lat="42.96978" lon="1.96329">
        <ele>395.72</ele>
        <time>2016-12-28T14:44:29Z</time>
      </trkpt>
      <trkpt lat="42.96979" lon="1.96326">
        <ele>395.72</ele>
        <time>2016-12-28T14:44:30Z</time>
      </trkpt>
      <trkpt lat="42.9698" lon="1.96323">
        <ele>395.72</ele>
        <time>2016-12-28T14:44:31Z</time>
      </trkpt>
      <trkpt lat="42.96981" lon="1.96321">
        <ele>395.72</ele>
        <time>2016-12-28T14:44:32Z</time>
      </trkpt>
      <trkpt lat="42.96981" lon="1.96319">
        <ele>395.72</ele>
        <time>2016-12-28T14:44:33Z</time>
      </trkpt>
      <trkpt lat="42.9698" lon="1.96316">
        <ele>395.24</ele>
        <time>2016-12-28T14:44:34Z</time>
      </trkpt>
      <trkpt lat="42.9698" lon="1.96314">
        <ele>395.24</ele>
        <time>2016-12-28T14:44:35Z</time>
      </trkpt>
      <trkpt lat="42.96981" lon="1.96309">
        <ele>395.24</ele>
        <time>2016-12-28T14:44:39Z</time>
      </trkpt>
      <trkpt lat="42.96989" lon="1.96311">
        <ele>393.8</ele>
        <time>2016-12-28T14:44:44Z</time>
      </trkpt>
      <trkpt lat="42.96994" lon="1.96307">
        <ele>393.32</ele>
        <time>2016-12-28T14:44:46Z</time>
      </trkpt>
      <trkpt lat="42.96996" lon="1.96303">
        <ele>393.32</ele>
        <time>2016-12-28T14:44:47Z</time>
      </trkpt>
      <trkpt lat="42.96998" lon="1.96299">
        <ele>393.32</ele>
        <time>2016-12-28T14:44:48Z</time>
      </trkpt>
      <trkpt lat="42.97" lon="1.96295">
        <ele>393.32</ele>
        <time>2016-12-28T14:44:49Z</time>
      </trkpt>
      <trkpt lat="42.97002" lon="1.96289">
        <ele>393.32</ele>
        <time>2016-12-28T14:44:50Z</time>
      </trkpt>
      <trkpt lat="42.97004" lon="1.96284">
        <ele>392.84</ele>
        <time>2016-12-28T14:44:51Z</time>
      </trkpt>
      <trkpt lat="42.97012" lon="1.96257">
        <ele>392.36</ele>
        <time>2016-12-28T14:44:55Z</time>
      </trkpt>
      <trkpt lat="42.97027" lon="1.96209">
        <ele>392.36</ele>
        <time>2016-12-28T14:45:03Z</time>
      </trkpt>
      <trkpt lat="42.97032" lon="1.96169">
        <ele>392.36</ele>
        <time>2016-12-28T14:45:11Z</time>
      </trkpt>
      <trkpt lat="42.97056" lon="1.96146">
        <ele>392.36</ele>
        <time>2016-12-28T14:45:23Z</time>
      </trkpt>
      <trkpt lat="42.97072" lon="1.96109">
        <ele>393.32</ele>
        <time>2016-12-28T14:45:35Z</time>
      </trkpt>
      <trkpt lat="42.97073" lon="1.96105">
        <ele>393.32</ele>
        <time>2016-12-28T14:45:36Z</time>
      </trkpt>
      <trkpt lat="42.97071" lon="1.96085">
        <ele>393.8</ele>
        <time>2016-12-28T14:45:50Z</time>
      </trkpt>
      <trkpt lat="42.97068" lon="1.96077">
        <ele>392.36</ele>
        <time>2016-12-28T14:46:03Z</time>
      </trkpt>
      <trkpt lat="42.97071" lon="1.96074">
        <ele>394.28</ele>
        <time>2016-12-28T14:46:15Z</time>
      </trkpt>
      <trkpt lat="42.97072" lon="1.96069">
        <ele>394.28</ele>
        <time>2016-12-28T14:46:31Z</time>
      </trkpt>
      <trkpt lat="42.97069" lon="1.96068">
        <ele>394.28</ele>
        <time>2016-12-28T14:46:47Z</time>
      </trkpt>
      <trkpt lat="42.97071" lon="1.96066">
        <ele>394.76</ele>
        <time>2016-12-28T14:47:00Z</time>
      </trkpt>
      <trkpt lat="42.97071" lon="1.96069">
        <ele>395.24</ele>
        <time>2016-12-28T14:47:16Z</time>
      </trkpt>
      <trkpt lat="42.97072" lon="1.96068">
        <ele>393.8</ele>
        <time>2016-12-28T14:47:21Z</time>
      </trkpt>
      <trkpt lat="42.97077" lon="1.96066">
        <ele>394.28</ele>
        <time>2016-12-28T14:47:44Z</time>
      </trkpt>
      <trkpt lat="42.97076" lon="1.96068">
        <ele>395.24</ele>
        <time>2016-12-28T14:48:05Z</time>
      </trkpt>
      <trkpt lat="42.97073" lon="1.96059">
        <ele>395.24</ele>
        <time>2016-12-28T14:48:16Z</time>
      </trkpt>
      <trkpt lat="42.97076" lon="1.96048">
        <ele>395.72</ele>
        <time>2016-12-28T14:48:23Z</time>
      </trkpt>
      <trkpt lat="42.97081" lon="1.96038">
        <ele>395.72</ele>
        <time>2016-12-28T14:48:28Z</time>
      </trkpt>
      <trkpt lat="42.97095" lon="1.96005">
        <ele>394.28</ele>
        <time>2016-12-28T14:48:40Z</time>
      </trkpt>
      <trkpt lat="42.97118" lon="1.95969">
        <ele>392.84</ele>
        <time>2016-12-28T14:48:50Z</time>
      </trkpt>
      <trkpt lat="42.97144" lon="1.95925">
        <ele>391.87</ele>
        <time>2016-12-28T14:48:59Z</time>
      </trkpt>
      <trkpt lat="42.97149" lon="1.95913">
        <ele>391.87</ele>
        <time>2016-12-28T14:49:01Z</time>
      </trkpt>
      <trkpt lat="42.97151" lon="1.95907">
        <ele>391.87</ele>
        <time>2016-12-28T14:49:02Z</time>
      </trkpt>
      <trkpt lat="42.97153" lon="1.95902">
        <ele>391.87</ele>
        <time>2016-12-28T14:49:03Z</time>
      </trkpt>
      <trkpt lat="42.97155" lon="1.95896">
        <ele>391.87</ele>
        <time>2016-12-28T14:49:04Z</time>
      </trkpt>
      <trkpt lat="42.97157" lon="1.95891">
        <ele>391.87</ele>
        <time>2016-12-28T14:49:05Z</time>
      </trkpt>
      <trkpt lat="42.97168" lon="1.95858">
        <ele>391.87</ele>
        <time>2016-12-28T14:49:11Z</time>
      </trkpt>
      <trkpt lat="42.97186" lon="1.95752">
        <ele>393.32</ele>
        <time>2016-12-28T14:49:28Z</time>
      </trkpt>
      <trkpt lat="42.97199" lon="1.95724">
        <ele>393.8</ele>
        <time>2016-12-28T14:49:35Z</time>
      </trkpt>
      <trkpt lat="42.97209" lon="1.95711">
        <ele>392.84</ele>
        <time>2016-12-28T14:49:38Z</time>
      </trkpt>
      <trkpt lat="42.9722" lon="1.95694">
        <ele>392.36</ele>
        <time>2016-12-28T14:49:42Z</time>
      </trkpt>
      <trkpt lat="42.9722" lon="1.95691">
        <ele>392.36</ele>
        <time>2016-12-28T14:49:43Z</time>
      </trkpt>
      <trkpt lat="42.97216" lon="1.95686">
        <ele>392.36</ele>
        <time>2016-12-28T14:49:45Z</time>
      </trkpt>
      <trkpt lat="42.97213" lon="1.95685">
        <ele>392.36</ele>
        <time>2016-12-28T14:49:46Z</time>
      </trkpt>
      <trkpt lat="42.97209" lon="1.95684">
        <ele>392.36</ele>
        <time>2016-12-28T14:49:47Z</time>
      </trkpt>
      <trkpt lat="42.97206" lon="1.95684">
        <ele>392.36</ele>
        <time>2016-12-28T14:49:48Z</time>
      </trkpt>
      <trkpt lat="42.97202" lon="1.95684">
        <ele>392.36</ele>
        <time>2016-12-28T14:49:49Z</time>
      </trkpt>
      <trkpt lat="42.97151" lon="1.95698">
        <ele>392.36</ele>
        <time>2016-12-28T14:50:03Z</time>
      </trkpt>
      <trkpt lat="42.97142" lon="1.95702">
        <ele>393.32</ele>
        <time>2016-12-28T14:50:06Z</time>
      </trkpt>
      <trkpt lat="42.97134" lon="1.95702">
        <ele>393.8</ele>
        <time>2016-12-28T14:50:10Z</time>
      </trkpt>
      <trkpt lat="42.97132" lon="1.95699">
        <ele>393.8</ele>
        <time>2016-12-28T14:50:11Z</time>
      </trkpt>
      <trkpt lat="42.9713" lon="1.95695">
        <ele>393.8</ele>
        <time>2016-12-28T14:50:12Z</time>
      </trkpt>
      <trkpt lat="42.97108" lon="1.95618">
        <ele>393.8</ele>
        <time>2016-12-28T14:50:28Z</time>
      </trkpt>
      <trkpt lat="42.97104" lon="1.95594">
        <ele>393.8</ele>
        <time>2016-12-28T14:50:38Z</time>
      </trkpt>
      <trkpt lat="42.97104" lon="1.95596">
        <ele>394.28</ele>
        <time>2016-12-28T14:50:51Z</time>
      </trkpt>
      <trkpt lat="42.97103" lon="1.95596">
        <ele>392.84</ele>
        <time>2016-12-28T14:50:55Z</time>
      </trkpt>
      <trkpt lat="42.97112" lon="1.95593">
        <ele>392.36</ele>
        <time>2016-12-28T14:51:30Z</time>
      </trkpt>
      <trkpt lat="42.97104" lon="1.95594">
        <ele>392.36</ele>
        <time>2016-12-28T14:52:00Z</time>
      </trkpt>
      <trkpt lat="42.97103" lon="1.95595">
        <ele>393.8</ele>
        <time>2016-12-28T14:52:06Z</time>
      </trkpt>
      <trkpt lat="42.97104" lon="1.95596">
        <ele>393.8</ele>
        <time>2016-12-28T14:52:38Z</time>
      </trkpt>
      <trkpt lat="42.97104" lon="1.95593">
        <ele>393.8</ele>
        <time>2016-12-28T14:53:00Z</time>
      </trkpt>
      <trkpt lat="42.97106" lon="1.95593">
        <ele>393.8</ele>
        <time>2016-12-28T14:53:18Z</time>
      </trkpt>
      <trkpt lat="42.97106" lon="1.95595">
        <ele>393.8</ele>
        <time>2016-12-28T14:53:30Z</time>
      </trkpt>
      <trkpt lat="42.97105" lon="1.95597">
        <ele>394.28</ele>
        <time>2016-12-28T14:53:51Z</time>
      </trkpt>
      <trkpt lat="42.97102" lon="1.95593">
        <ele>394.28</ele>
        <time>2016-12-28T14:54:04Z</time>
      </trkpt>
      <trkpt lat="42.97102" lon="1.95591">
        <ele>394.28</ele>
        <time>2016-12-28T14:54:05Z</time>
      </trkpt>
      <trkpt lat="42.97105" lon="1.95582">
        <ele>394.28</ele>
        <time>2016-12-28T14:54:17Z</time>
      </trkpt>
      <trkpt lat="42.97111" lon="1.95582">
        <ele>394.28</ele>
        <time>2016-12-28T14:54:22Z</time>
      </trkpt>
      <trkpt lat="42.97121" lon="1.95582">
        <ele>392.84</ele>
        <time>2016-12-28T14:54:26Z</time>
      </trkpt>
      <trkpt lat="42.97135" lon="1.95577">
        <ele>391.87</ele>
        <time>2016-12-28T14:54:30Z</time>
      </trkpt>
      <trkpt lat="42.97138" lon="1.95573">
        <ele>391.39</ele>
        <time>2016-12-28T14:54:31Z</time>
      </trkpt>
      <trkpt lat="42.97141" lon="1.95568">
        <ele>391.39</ele>
        <time>2016-12-28T14:54:32Z</time>
      </trkpt>
      <trkpt lat="42.97143" lon="1.95562">
        <ele>391.39</ele>
        <time>2016-12-28T14:54:33Z</time>
      </trkpt>
      <trkpt lat="42.97144" lon="1.95558">
        <ele>391.39</ele>
        <time>2016-12-28T14:54:34Z</time>
      </trkpt>
      <trkpt lat="42.97145" lon="1.95553">
        <ele>391.39</ele>
        <time>2016-12-28T14:54:35Z</time>
      </trkpt>
      <trkpt lat="42.97145" lon="1.95548">
        <ele>391.39</ele>
        <time>2016-12-28T14:54:36Z</time>
      </trkpt>
      <trkpt lat="42.97148" lon="1.95492">
        <ele>391.39</ele>
        <time>2016-12-28T14:54:47Z</time>
      </trkpt>
      <trkpt lat="42.97144" lon="1.95485">
        <ele>391.39</ele>
        <time>2016-12-28T14:54:49Z</time>
      </trkpt>
      <trkpt lat="42.97141" lon="1.95483">
        <ele>391.39</ele>
        <time>2016-12-28T14:54:50Z</time>
      </trkpt>
      <trkpt lat="42.97138" lon="1.95483">
        <ele>391.39</ele>
        <time>2016-12-28T14:54:51Z</time>
      </trkpt>
      <trkpt lat="42.97108" lon="1.95499">
        <ele>391.39</ele>
        <time>2016-12-28T14:55:01Z</time>
      </trkpt>
      <trkpt lat="42.97075" lon="1.95463">
        <ele>391.39</ele>
        <time>2016-12-28T14:55:12Z</time>
      </trkpt>
      <trkpt lat="42.97061" lon="1.95432">
        <ele>391.39</ele>
        <time>2016-12-28T14:55:21Z</time>
      </trkpt>
      <trkpt lat="42.97027" lon="1.95417">
        <ele>391.39</ele>
        <time>2016-12-28T14:55:33Z</time>
      </trkpt>
      <trkpt lat="42.97023" lon="1.95419">
        <ele>391.39</ele>
        <time>2016-12-28T14:55:36Z</time>
      </trkpt>
      <trkpt lat="42.97021" lon="1.95422">
        <ele>391.39</ele>
        <time>2016-12-28T14:55:37Z</time>
      </trkpt>
      <trkpt lat="42.97019" lon="1.95426">
        <ele>391.39</ele>
        <time>2016-12-28T14:55:38Z</time>
      </trkpt>
      <trkpt lat="42.97017" lon="1.95431">
        <ele>390.91</ele>
        <time>2016-12-28T14:55:39Z</time>
      </trkpt>
      <trkpt lat="42.97015" lon="1.95437">
        <ele>390.91</ele>
        <time>2016-12-28T14:55:40Z</time>
      </trkpt>
      <trkpt lat="42.9701" lon="1.95448">
        <ele>390.91</ele>
        <time>2016-12-28T14:55:42Z</time>
      </trkpt>
      <trkpt lat="42.97007" lon="1.95452">
        <ele>390.91</ele>
        <time>2016-12-28T14:55:43Z</time>
      </trkpt>
      <trkpt lat="42.97003" lon="1.95454">
        <ele>390.91</ele>
        <time>2016-12-28T14:55:44Z</time>
      </trkpt>
      <trkpt lat="42.96974" lon="1.95474">
        <ele>390.91</ele>
        <time>2016-12-28T14:55:54Z</time>
      </trkpt>
      <trkpt lat="42.96938" lon="1.95469">
        <ele>390.91</ele>
        <time>2016-12-28T14:56:04Z</time>
      </trkpt>
      <trkpt lat="42.96934" lon="1.95438">
        <ele>390.91</ele>
        <time>2016-12-28T14:56:12Z</time>
      </trkpt>
      <trkpt lat="42.9694" lon="1.95395">
        <ele>390.91</ele>
        <time>2016-12-28T14:56:23Z</time>
      </trkpt>
      <trkpt lat="42.96952" lon="1.95359">
        <ele>390.91</ele>
        <time>2016-12-28T14:56:33Z</time>
      </trkpt>
      <trkpt lat="42.96953" lon="1.95317">
        <ele>390.91</ele>
        <time>2016-12-28T14:56:41Z</time>
      </trkpt>
      <trkpt lat="42.96951" lon="1.95314">
        <ele>390.91</ele>
        <time>2016-12-28T14:56:42Z</time>
      </trkpt>
      <trkpt lat="42.96949" lon="1.95313">
        <ele>390.91</ele>
        <time>2016-12-28T14:56:43Z</time>
      </trkpt>
      <trkpt lat="42.96947" lon="1.95312">
        <ele>390.91</ele>
        <time>2016-12-28T14:56:44Z</time>
      </trkpt>
      <trkpt lat="42.96944" lon="1.95312">
        <ele>392.36</ele>
        <time>2016-12-28T14:56:45Z</time>
      </trkpt>
      <trkpt lat="42.96942" lon="1.95313">
        <ele>392.84</ele>
        <time>2016-12-28T14:56:46Z</time>
      </trkpt>
      <trkpt lat="42.9694" lon="1.95313">
        <ele>392.84</ele>
        <time>2016-12-28T14:56:47Z</time>
      </trkpt>
      <trkpt lat="42.96938" lon="1.95313">
        <ele>393.8</ele>
        <time>2016-12-28T14:56:48Z</time>
      </trkpt>
      <trkpt lat="42.96914" lon="1.95321">
        <ele>394.76</ele>
        <time>2016-12-28T14:57:01Z</time>
      </trkpt>
      <trkpt lat="42.96911" lon="1.95318">
        <ele>394.76</ele>
        <time>2016-12-28T14:57:02Z</time>
      </trkpt>
      <trkpt lat="42.9691" lon="1.95314">
        <ele>394.76</ele>
        <time>2016-12-28T14:57:03Z</time>
      </trkpt>
      <trkpt lat="42.9691" lon="1.9531">
        <ele>394.76</ele>
        <time>2016-12-28T14:57:04Z</time>
      </trkpt>
      <trkpt lat="42.9691" lon="1.95305">
        <ele>394.76</ele>
        <time>2016-12-28T14:57:05Z</time>
      </trkpt>
      <trkpt lat="42.96914" lon="1.95241">
        <ele>393.32</ele>
        <time>2016-12-28T14:57:18Z</time>
      </trkpt>
      <trkpt lat="42.96919" lon="1.95151">
        <ele>393.32</ele>
        <time>2016-12-28T14:57:35Z</time>
      </trkpt>
      <trkpt lat="42.96922" lon="1.95108">
        <ele>393.32</ele>
        <time>2016-12-28T14:57:46Z</time>
      </trkpt>
      <trkpt lat="42.96923" lon="1.95106">
        <ele>393.32</ele>
        <time>2016-12-28T14:57:47Z</time>
      </trkpt>
      <trkpt lat="42.96923" lon="1.95104">
        <ele>393.32</ele>
        <time>2016-12-28T14:57:48Z</time>
      </trkpt>
      <trkpt lat="42.96923" lon="1.95102">
        <ele>393.32</ele>
        <time>2016-12-28T14:57:49Z</time>
      </trkpt>
      <trkpt lat="42.96923" lon="1.95099">
        <ele>393.32</ele>
        <time>2016-12-28T14:57:50Z</time>
      </trkpt>
      <trkpt lat="42.96926" lon="1.95038">
        <ele>393.32</ele>
        <time>2016-12-28T14:58:05Z</time>
      </trkpt>
      <trkpt lat="42.96933" lon="1.94996">
        <ele>394.76</ele>
        <time>2016-12-28T14:58:15Z</time>
      </trkpt>
      <trkpt lat="42.96939" lon="1.94953">
        <ele>395.72</ele>
        <time>2016-12-28T14:58:28Z</time>
      </trkpt>
      <trkpt lat="42.96946" lon="1.94939">
        <ele>396.2</ele>
        <time>2016-12-28T14:58:37Z</time>
      </trkpt>
      <trkpt lat="42.96945" lon="1.94935">
        <ele>396.68</ele>
        <time>2016-12-28T14:58:49Z</time>
      </trkpt>
      <trkpt lat="42.96944" lon="1.94934">
        <ele>396.68</ele>
        <time>2016-12-28T14:59:08Z</time>
      </trkpt>
      <trkpt lat="42.96947" lon="1.94935">
        <ele>397.16</ele>
        <time>2016-12-28T14:59:22Z</time>
      </trkpt>
      <trkpt lat="42.96945" lon="1.94936">
        <ele>397.16</ele>
        <time>2016-12-28T14:59:35Z</time>
      </trkpt>
      <trkpt lat="42.96943" lon="1.94936">
        <ele>395.72</ele>
        <time>2016-12-28T14:59:57Z</time>
      </trkpt>
      <trkpt lat="42.96945" lon="1.94936">
        <ele>395.72</ele>
        <time>2016-12-28T15:00:13Z</time>
      </trkpt>
      <trkpt lat="42.96945" lon="1.94939">
        <ele>396.2</ele>
        <time>2016-12-28T15:00:27Z</time>
      </trkpt>
      <trkpt lat="42.96945" lon="1.94935">
        <ele>396.2</ele>
        <time>2016-12-28T15:00:44Z</time>
      </trkpt>
      <trkpt lat="42.96945" lon="1.94935">
        <ele>397.16</ele>
        <time>2016-12-28T15:00:53Z</time>
      </trkpt>
      <trkpt lat="42.96944" lon="1.94939">
        <ele>397.16</ele>
        <time>2016-12-28T15:01:07Z</time>
      </trkpt>
      <trkpt lat="42.96944" lon="1.94935">
        <ele>397.16</ele>
        <time>2016-12-28T15:01:21Z</time>
      </trkpt>
      <trkpt lat="42.96943" lon="1.94931">
        <ele>397.16</ele>
        <time>2016-12-28T15:01:26Z</time>
      </trkpt>
      <trkpt lat="42.96942" lon="1.94889">
        <ele>397.64</ele>
        <time>2016-12-28T15:01:38Z</time>
      </trkpt>
      <trkpt lat="42.96949" lon="1.94807">
        <ele>397.64</ele>
        <time>2016-12-28T15:01:54Z</time>
      </trkpt>
      <trkpt lat="42.96951" lon="1.94789">
        <ele>396.2</ele>
        <time>2016-12-28T15:01:57Z</time>
      </trkpt>
      <trkpt lat="42.96951" lon="1.94764">
        <ele>396.2</ele>
        <time>2016-12-28T15:02:01Z</time>
      </trkpt>
      <trkpt lat="42.9695" lon="1.94757">
        <ele>396.2</ele>
        <time>2016-12-28T15:02:02Z</time>
      </trkpt>
      <trkpt lat="42.96949" lon="1.94751">
        <ele>396.2</ele>
        <time>2016-12-28T15:02:03Z</time>
      </trkpt>
      <trkpt lat="42.96947" lon="1.94745">
        <ele>396.2</ele>
        <time>2016-12-28T15:02:04Z</time>
      </trkpt>
      <trkpt lat="42.96944" lon="1.94739">
        <ele>396.2</ele>
        <time>2016-12-28T15:02:05Z</time>
      </trkpt>
      <trkpt lat="42.96942" lon="1.94733">
        <ele>396.2</ele>
        <time>2016-12-28T15:02:06Z</time>
      </trkpt>
      <trkpt lat="42.96939" lon="1.94727">
        <ele>395.72</ele>
        <time>2016-12-28T15:02:07Z</time>
      </trkpt>
      <trkpt lat="42.969" lon="1.9465">
        <ele>397.16</ele>
        <time>2016-12-28T15:02:22Z</time>
      </trkpt>
      <trkpt lat="42.96886" lon="1.94613">
        <ele>397.64</ele>
        <time>2016-12-28T15:02:35Z</time>
      </trkpt>
      <trkpt lat="42.96879" lon="1.94573">
        <ele>397.64</ele>
        <time>2016-12-28T15:02:45Z</time>
      </trkpt>
      <trkpt lat="42.96859" lon="1.94526">
        <ele>399.08</ele>
        <time>2016-12-28T15:02:57Z</time>
      </trkpt>
      <trkpt lat="42.96848" lon="1.94475">
        <ele>401.49</ele>
        <time>2016-12-28T15:03:10Z</time>
      </trkpt>
      <trkpt lat="42.96836" lon="1.94434">
        <ele>403.89</ele>
        <time>2016-12-28T15:03:23Z</time>
      </trkpt>
      <trkpt lat="42.9683" lon="1.94399">
        <ele>406.29</ele>
        <time>2016-12-28T15:03:36Z</time>
      </trkpt>
      <trkpt lat="42.9681" lon="1.94369">
        <ele>407.74</ele>
        <time>2016-12-28T15:03:48Z</time>
      </trkpt>
      <trkpt lat="42.96779" lon="1.94345">
        <ele>409.18</ele>
        <time>2016-12-28T15:04:02Z</time>
      </trkpt>
      <trkpt lat="42.96755" lon="1.9432">
        <ele>411.1</ele>
        <time>2016-12-28T15:04:14Z</time>
      </trkpt>
      <trkpt lat="42.96729" lon="1.94281">
        <ele>412.54</ele>
        <time>2016-12-28T15:04:29Z</time>
      </trkpt>
      <trkpt lat="42.96715" lon="1.94236">
        <ele>414.95</ele>
        <time>2016-12-28T15:04:43Z</time>
      </trkpt>
      <trkpt lat="42.96697" lon="1.94174">
        <ele>416.39</ele>
        <time>2016-12-28T15:05:01Z</time>
      </trkpt>
      <trkpt lat="42.96678" lon="1.94112">
        <ele>419.27</ele>
        <time>2016-12-28T15:05:19Z</time>
      </trkpt>
      <trkpt lat="42.96645" lon="1.94089">
        <ele>421.68</ele>
        <time>2016-12-28T15:05:33Z</time>
      </trkpt>
      <trkpt lat="42.96624" lon="1.94062">
        <ele>424.56</ele>
        <time>2016-12-28T15:05:46Z</time>
      </trkpt>
      <trkpt lat="42.9662" lon="1.94024">
        <ele>426.96</ele>
        <time>2016-12-28T15:05:59Z</time>
      </trkpt>
      <trkpt lat="42.9662" lon="1.93976">
        <ele>429.85</ele>
        <time>2016-12-28T15:06:15Z</time>
      </trkpt>
      <trkpt lat="42.96623" lon="1.93923">
        <ele>432.73</ele>
        <time>2016-12-28T15:06:32Z</time>
      </trkpt>
      <trkpt lat="42.96605" lon="1.9389">
        <ele>435.13</ele>
        <time>2016-12-28T15:06:46Z</time>
      </trkpt>
      <trkpt lat="42.96578" lon="1.93855">
        <ele>438.5</ele>
        <time>2016-12-28T15:07:03Z</time>
      </trkpt>
      <trkpt lat="42.96576" lon="1.93854">
        <ele>438.5</ele>
        <time>2016-12-28T15:07:04Z</time>
      </trkpt>
      <trkpt lat="42.96574" lon="1.93854">
        <ele>438.98</ele>
        <time>2016-12-28T15:07:05Z</time>
      </trkpt>
      <trkpt lat="42.96572" lon="1.93855">
        <ele>438.98</ele>
        <time>2016-12-28T15:07:06Z</time>
      </trkpt>
      <trkpt lat="42.9657" lon="1.93857">
        <ele>439.46</ele>
        <time>2016-12-28T15:07:07Z</time>
      </trkpt>
      <trkpt lat="42.96568" lon="1.93859">
        <ele>439.46</ele>
        <time>2016-12-28T15:07:08Z</time>
      </trkpt>
      <trkpt lat="42.96567" lon="1.93861">
        <ele>439.46</ele>
        <time>2016-12-28T15:07:09Z</time>
      </trkpt>
      <trkpt lat="42.96566" lon="1.93864">
        <ele>439.94</ele>
        <time>2016-12-28T15:07:10Z</time>
      </trkpt>
      <trkpt lat="42.96565" lon="1.93868">
        <ele>439.94</ele>
        <time>2016-12-28T15:07:11Z</time>
      </trkpt>
      <trkpt lat="42.96565" lon="1.93871">
        <ele>440.42</ele>
        <time>2016-12-28T15:07:12Z</time>
      </trkpt>
      <trkpt lat="42.96553" lon="1.93916">
        <ele>442.34</ele>
        <time>2016-12-28T15:07:27Z</time>
      </trkpt>
      <trkpt lat="42.96537" lon="1.93951">
        <ele>444.75</ele>
        <time>2016-12-28T15:07:41Z</time>
      </trkpt>
      <trkpt lat="42.96515" lon="1.93975">
        <ele>447.15</ele>
        <time>2016-12-28T15:07:54Z</time>
      </trkpt>
      <trkpt lat="42.96496" lon="1.94">
        <ele>448.11</ele>
        <time>2016-12-28T15:08:09Z</time>
      </trkpt>
      <trkpt lat="42.96494" lon="1.94014">
        <ele>448.59</ele>
        <time>2016-12-28T15:08:17Z</time>
      </trkpt>
      <trkpt lat="42.96495" lon="1.94016">
        <ele>448.59</ele>
        <time>2016-12-28T15:08:18Z</time>
      </trkpt>
      <trkpt lat="42.96495" lon="1.94017">
        <ele>448.59</ele>
        <time>2016-12-28T15:08:31Z</time>
      </trkpt>
      <trkpt lat="42.96495" lon="1.94017">
        <ele>448.59</ele>
        <time>2016-12-28T15:08:53Z</time>
      </trkpt>
      <trkpt lat="42.96496" lon="1.94017">
        <ele>448.59</ele>
        <time>2016-12-28T15:09:12Z</time>
      </trkpt>
      <trkpt lat="42.96496" lon="1.94016">
        <ele>448.59</ele>
        <time>2016-12-28T15:09:38Z</time>
      </trkpt>
      <trkpt lat="42.96495" lon="1.94015">
        <ele>448.59</ele>
        <time>2016-12-28T15:10:02Z</time>
      </trkpt>
      <trkpt lat="42.96496" lon="1.94017">
        <ele>448.59</ele>
        <time>2016-12-28T15:10:07Z</time>
      </trkpt>
      <trkpt lat="42.96497" lon="1.94018">
        <ele>448.59</ele>
        <time>2016-12-28T15:10:08Z</time>
      </trkpt>
      <trkpt lat="42.96498" lon="1.9402">
        <ele>448.59</ele>
        <time>2016-12-28T15:10:09Z</time>
      </trkpt>
      <trkpt lat="42.96497" lon="1.94022">
        <ele>448.59</ele>
        <time>2016-12-28T15:10:10Z</time>
      </trkpt>
      <trkpt lat="42.96497" lon="1.94025">
        <ele>448.59</ele>
        <time>2016-12-28T15:10:11Z</time>
      </trkpt>
      <trkpt lat="42.96482" lon="1.94049">
        <ele>448.11</ele>
        <time>2016-12-28T15:10:24Z</time>
      </trkpt>
      <trkpt lat="42.96455" lon="1.94079">
        <ele>448.11</ele>
        <time>2016-12-28T15:10:39Z</time>
      </trkpt>
      <trkpt lat="42.96451" lon="1.94082">
        <ele>449.55</ele>
        <time>2016-12-28T15:10:41Z</time>
      </trkpt>
      <trkpt lat="42.96426" lon="1.94095">
        <ele>450.52</ele>
        <time>2016-12-28T15:10:54Z</time>
      </trkpt>
      <trkpt lat="42.96396" lon="1.94111">
        <ele>451.96</ele>
        <time>2016-12-28T15:11:09Z</time>
      </trkpt>
      <trkpt lat="42.96374" lon="1.9414">
        <ele>453.88</ele>
        <time>2016-12-28T15:11:24Z</time>
      </trkpt>
      <trkpt lat="42.96372" lon="1.94146">
        <ele>453.88</ele>
        <time>2016-12-28T15:11:26Z</time>
      </trkpt>
      <trkpt lat="42.96371" lon="1.94148">
        <ele>453.88</ele>
        <time>2016-12-28T15:11:27Z</time>
      </trkpt>
      <trkpt lat="42.9637" lon="1.9415">
        <ele>453.88</ele>
        <time>2016-12-28T15:11:28Z</time>
      </trkpt>
      <trkpt lat="42.96369" lon="1.94153">
        <ele>453.88</ele>
        <time>2016-12-28T15:11:29Z</time>
      </trkpt>
      <trkpt lat="42.96368" lon="1.94155">
        <ele>453.88</ele>
        <time>2016-12-28T15:11:30Z</time>
      </trkpt>
      <trkpt lat="42.96367" lon="1.94157">
        <ele>453.88</ele>
        <time>2016-12-28T15:11:31Z</time>
      </trkpt>
      <trkpt lat="42.96366" lon="1.94159">
        <ele>453.88</ele>
        <time>2016-12-28T15:11:32Z</time>
      </trkpt>
      <trkpt lat="42.96366" lon="1.94162">
        <ele>454.36</ele>
        <time>2016-12-28T15:11:33Z</time>
      </trkpt>
      <trkpt lat="42.96366" lon="1.94165">
        <ele>454.36</ele>
        <time>2016-12-28T15:11:34Z</time>
      </trkpt>
      <trkpt lat="42.96366" lon="1.94168">
        <ele>454.36</ele>
        <time>2016-12-28T15:11:35Z</time>
      </trkpt>
      <trkpt lat="42.96365" lon="1.94171">
        <ele>454.36</ele>
        <time>2016-12-28T15:11:36Z</time>
      </trkpt>
      <trkpt lat="42.96341" lon="1.94201">
        <ele>456.76</ele>
        <time>2016-12-28T15:11:52Z</time>
      </trkpt>
      <trkpt lat="42.96324" lon="1.94181">
        <ele>457.72</ele>
        <time>2016-12-28T15:12:03Z</time>
      </trkpt>
      <trkpt lat="42.96321" lon="1.94139">
        <ele>459.17</ele>
        <time>2016-12-28T15:12:17Z</time>
      </trkpt>
      <trkpt lat="42.9632" lon="1.94123">
        <ele>460.13</ele>
        <time>2016-12-28T15:12:23Z</time>
      </trkpt>
      <trkpt lat="42.96318" lon="1.94116">
        <ele>460.61</ele>
        <time>2016-12-28T15:12:30Z</time>
      </trkpt>
      <trkpt lat="42.96318" lon="1.94112">
        <ele>460.61</ele>
        <time>2016-12-28T15:12:33Z</time>
      </trkpt>
      <trkpt lat="42.96317" lon="1.94109">
        <ele>461.09</ele>
        <time>2016-12-28T15:12:35Z</time>
      </trkpt>
      <trkpt lat="42.96312" lon="1.94083">
        <ele>462.05</ele>
        <time>2016-12-28T15:12:48Z</time>
      </trkpt>
      <trkpt lat="42.96297" lon="1.94037">
        <ele>464.45</ele>
        <time>2016-12-28T15:13:07Z</time>
      </trkpt>
      <trkpt lat="42.96284" lon="1.9399">
        <ele>467.34</ele>
        <time>2016-12-28T15:13:26Z</time>
      </trkpt>
      <trkpt lat="42.9628" lon="1.93942">
        <ele>469.74</ele>
        <time>2016-12-28T15:13:43Z</time>
      </trkpt>
      <trkpt lat="42.96278" lon="1.93892">
        <ele>472.63</ele>
        <time>2016-12-28T15:14:01Z</time>
      </trkpt>
      <trkpt lat="42.96264" lon="1.93842">
        <ele>475.51</ele>
        <time>2016-12-28T15:14:19Z</time>
      </trkpt>
      <trkpt lat="42.96254" lon="1.9379">
        <ele>478.39</ele>
        <time>2016-12-28T15:14:37Z</time>
      </trkpt>
      <trkpt lat="42.96255" lon="1.93744">
        <ele>480.8</ele>
        <time>2016-12-28T15:14:53Z</time>
      </trkpt>
      <trkpt lat="42.96255" lon="1.93742">
        <ele>480.8</ele>
        <time>2016-12-28T15:14:54Z</time>
      </trkpt>
      <trkpt lat="42.96254" lon="1.93739">
        <ele>480.8</ele>
        <time>2016-12-28T15:14:55Z</time>
      </trkpt>
      <trkpt lat="42.96253" lon="1.93738">
        <ele>480.8</ele>
        <time>2016-12-28T15:14:56Z</time>
      </trkpt>
      <trkpt lat="42.96252" lon="1.93737">
        <ele>481.28</ele>
        <time>2016-12-28T15:14:57Z</time>
      </trkpt>
      <trkpt lat="42.9625" lon="1.93737">
        <ele>481.76</ele>
        <time>2016-12-28T15:14:58Z</time>
      </trkpt>
      <trkpt lat="42.96247" lon="1.93739">
        <ele>481.28</ele>
        <time>2016-12-28T15:15:03Z</time>
      </trkpt>
      <trkpt lat="42.96247" lon="1.93741">
        <ele>481.28</ele>
        <time>2016-12-28T15:15:04Z</time>
      </trkpt>
      <trkpt lat="42.96247" lon="1.93743">
        <ele>481.28</ele>
        <time>2016-12-28T15:15:05Z</time>
      </trkpt>
      <trkpt lat="42.9625" lon="1.93745">
        <ele>481.28</ele>
        <time>2016-12-28T15:15:15Z</time>
      </trkpt>
      <trkpt lat="42.9625" lon="1.93743">
        <ele>481.28</ele>
        <time>2016-12-28T15:15:16Z</time>
      </trkpt>
      <trkpt lat="42.96249" lon="1.9374">
        <ele>481.28</ele>
        <time>2016-12-28T15:15:17Z</time>
      </trkpt>
      <trkpt lat="42.96249" lon="1.93737">
        <ele>481.28</ele>
        <time>2016-12-28T15:15:18Z</time>
      </trkpt>
      <trkpt lat="42.96248" lon="1.93735">
        <ele>481.28</ele>
        <time>2016-12-28T15:15:19Z</time>
      </trkpt>
      <trkpt lat="42.96241" lon="1.93689">
        <ele>482.72</ele>
        <time>2016-12-28T15:15:35Z</time>
      </trkpt>
      <trkpt lat="42.96226" lon="1.93639">
        <ele>485.12</ele>
        <time>2016-12-28T15:15:52Z</time>
      </trkpt>
      <trkpt lat="42.96216" lon="1.93595">
        <ele>487.53</ele>
        <time>2016-12-28T15:16:06Z</time>
      </trkpt>
      <trkpt lat="42.96197" lon="1.93544">
        <ele>490.89</ele>
        <time>2016-12-28T15:16:23Z</time>
      </trkpt>
      <trkpt lat="42.96181" lon="1.9349">
        <ele>493.29</ele>
        <time>2016-12-28T15:16:40Z</time>
      </trkpt>
      <trkpt lat="42.96183" lon="1.93431">
        <ele>495.22</ele>
        <time>2016-12-28T15:16:56Z</time>
      </trkpt>
      <trkpt lat="42.96177" lon="1.93379">
        <ele>497.62</ele>
        <time>2016-12-28T15:17:11Z</time>
      </trkpt>
      <trkpt lat="42.9616" lon="1.9335">
        <ele>499.54</ele>
        <time>2016-12-28T15:17:23Z</time>
      </trkpt>
      <trkpt lat="42.96137" lon="1.93314">
        <ele>502.91</ele>
        <time>2016-12-28T15:17:38Z</time>
      </trkpt>
      <trkpt lat="42.96109" lon="1.93289">
        <ele>505.79</ele>
        <time>2016-12-28T15:17:53Z</time>
      </trkpt>
      <trkpt lat="42.96079" lon="1.9327">
        <ele>508.67</ele>
        <time>2016-12-28T15:18:07Z</time>
      </trkpt>
      <trkpt lat="42.9606" lon="1.93238">
        <ele>512.04</ele>
        <time>2016-12-28T15:18:22Z</time>
      </trkpt>
      <trkpt lat="42.96074" lon="1.93206">
        <ele>515.4</ele>
        <time>2016-12-28T15:18:35Z</time>
      </trkpt>
      <trkpt lat="42.96082" lon="1.93175">
        <ele>516.85</ele>
        <time>2016-12-28T15:18:49Z</time>
      </trkpt>
      <trkpt lat="42.96083" lon="1.93173">
        <ele>517.33</ele>
        <time>2016-12-28T15:19:10Z</time>
      </trkpt>
      <trkpt lat="42.96085" lon="1.93174">
        <ele>517.33</ele>
        <time>2016-12-28T15:19:32Z</time>
      </trkpt>
      <trkpt lat="42.96083" lon="1.93174">
        <ele>517.33</ele>
        <time>2016-12-28T15:19:54Z</time>
      </trkpt>
      <trkpt lat="42.96087" lon="1.93173">
        <ele>517.81</ele>
        <time>2016-12-28T15:20:07Z</time>
      </trkpt>
      <trkpt lat="42.96096" lon="1.93172">
        <ele>517.81</ele>
        <time>2016-12-28T15:20:39Z</time>
      </trkpt>
      <trkpt lat="42.96097" lon="1.93172">
        <ele>518.29</ele>
        <time>2016-12-28T15:21:05Z</time>
      </trkpt>
      <trkpt lat="42.96094" lon="1.93173">
        <ele>518.29</ele>
        <time>2016-12-28T15:21:23Z</time>
      </trkpt>
      <trkpt lat="42.96094" lon="1.93182">
        <ele>518.77</ele>
        <time>2016-12-28T15:21:43Z</time>
      </trkpt>
      <trkpt lat="42.96101" lon="1.93185">
        <ele>519.25</ele>
        <time>2016-12-28T15:21:57Z</time>
      </trkpt>
      <trkpt lat="42.96104" lon="1.93187">
        <ele>519.25</ele>
        <time>2016-12-28T15:22:10Z</time>
      </trkpt>
      <trkpt lat="42.96104" lon="1.93189">
        <ele>519.25</ele>
        <time>2016-12-28T15:22:38Z</time>
      </trkpt>
      <trkpt lat="42.96106" lon="1.93186">
        <ele>519.73</ele>
        <time>2016-12-28T15:23:15Z</time>
      </trkpt>
      <trkpt lat="42.96104" lon="1.93187">
        <ele>519.73</ele>
        <time>2016-12-28T15:23:49Z</time>
      </trkpt>
      <trkpt lat="42.96103" lon="1.93187">
        <ele>519.73</ele>
        <time>2016-12-28T15:24:07Z</time>
      </trkpt>
      <trkpt lat="42.96104" lon="1.93186">
        <ele>519.73</ele>
        <time>2016-12-28T15:24:29Z</time>
      </trkpt>
      <trkpt lat="42.96107" lon="1.93188">
        <ele>519.73</ele>
        <time>2016-12-28T15:24:56Z</time>
      </trkpt>
      <trkpt lat="42.96107" lon="1.93188">
        <ele>519.73</ele>
        <time>2016-12-28T15:25:11Z</time>
      </trkpt>
      <trkpt lat="42.96104" lon="1.9319">
        <ele>520.21</ele>
        <time>2016-12-28T15:25:43Z</time>
      </trkpt>
      <trkpt lat="42.96105" lon="1.93188">
        <ele>520.21</ele>
        <time>2016-12-28T15:26:10Z</time>
      </trkpt>
      <trkpt lat="42.9611" lon="1.93186">
        <ele>520.21</ele>
        <time>2016-12-28T15:26:30Z</time>
      </trkpt>
      <trkpt lat="42.96112" lon="1.93184">
        <ele>520.21</ele>
        <time>2016-12-28T15:26:34Z</time>
      </trkpt>
      <trkpt lat="42.96117" lon="1.93175">
        <ele>520.21</ele>
        <time>2016-12-28T15:26:41Z</time>
      </trkpt>
      <trkpt lat="42.96122" lon="1.93164">
        <ele>520.21</ele>
        <time>2016-12-28T15:26:50Z</time>
      </trkpt>
      <trkpt lat="42.96133" lon="1.93132">
        <ele>520.21</ele>
        <time>2016-12-28T15:27:04Z</time>
      </trkpt>
      <trkpt lat="42.96138" lon="1.93124">
        <ele>520.21</ele>
        <time>2016-12-28T15:27:08Z</time>
      </trkpt>
      <trkpt lat="42.9614" lon="1.93117">
        <ele>520.21</ele>
        <time>2016-12-28T15:27:11Z</time>
      </trkpt>
      <trkpt lat="42.9614" lon="1.93114">
        <ele>520.21</ele>
        <time>2016-12-28T15:27:12Z</time>
      </trkpt>
      <trkpt lat="42.9614" lon="1.93112">
        <ele>520.69</ele>
        <time>2016-12-28T15:27:13Z</time>
      </trkpt>
      <trkpt lat="42.96141" lon="1.9311">
        <ele>520.69</ele>
        <time>2016-12-28T15:27:14Z</time>
      </trkpt>
      <trkpt lat="42.96141" lon="1.93107">
        <ele>520.69</ele>
        <time>2016-12-28T15:27:15Z</time>
      </trkpt>
      <trkpt lat="42.96142" lon="1.93104">
        <ele>520.69</ele>
        <time>2016-12-28T15:27:16Z</time>
      </trkpt>
      <trkpt lat="42.96142" lon="1.93101">
        <ele>520.69</ele>
        <time>2016-12-28T15:27:17Z</time>
      </trkpt>
      <trkpt lat="42.96142" lon="1.93099">
        <ele>520.69</ele>
        <time>2016-12-28T15:27:18Z</time>
      </trkpt>
      <trkpt lat="42.96141" lon="1.93097">
        <ele>521.17</ele>
        <time>2016-12-28T15:27:19Z</time>
      </trkpt>
      <trkpt lat="42.96141" lon="1.93095">
        <ele>521.17</ele>
        <time>2016-12-28T15:27:20Z</time>
      </trkpt>
      <trkpt lat="42.96141" lon="1.93092">
        <ele>521.17</ele>
        <time>2016-12-28T15:27:21Z</time>
      </trkpt>
      <trkpt lat="42.96141" lon="1.9309">
        <ele>521.17</ele>
        <time>2016-12-28T15:27:22Z</time>
      </trkpt>
      <trkpt lat="42.96141" lon="1.93087">
        <ele>521.65</ele>
        <time>2016-12-28T15:27:23Z</time>
      </trkpt>
      <trkpt lat="42.96141" lon="1.93086">
        <ele>521.65</ele>
        <time>2016-12-28T15:27:24Z</time>
      </trkpt>
      <trkpt lat="42.9614" lon="1.93084">
        <ele>521.65</ele>
        <time>2016-12-28T15:27:25Z</time>
      </trkpt>
      <trkpt lat="42.9614" lon="1.93081">
        <ele>522.61</ele>
        <time>2016-12-28T15:27:26Z</time>
      </trkpt>
      <trkpt lat="42.9614" lon="1.93078">
        <ele>522.61</ele>
        <time>2016-12-28T15:27:28Z</time>
      </trkpt>
      <trkpt lat="42.96157" lon="1.93036">
        <ele>522.61</ele>
        <time>2016-12-28T15:27:43Z</time>
      </trkpt>
      <trkpt lat="42.96186" lon="1.92996">
        <ele>522.61</ele>
        <time>2016-12-28T15:27:57Z</time>
      </trkpt>
      <trkpt lat="42.96215" lon="1.92947">
        <ele>522.61</ele>
        <time>2016-12-28T15:28:11Z</time>
      </trkpt>
      <trkpt lat="42.96222" lon="1.92934">
        <ele>522.61</ele>
        <time>2016-12-28T15:28:14Z</time>
      </trkpt>
      <trkpt lat="42.96228" lon="1.9292">
        <ele>521.65</ele>
        <time>2016-12-28T15:28:17Z</time>
      </trkpt>
      <trkpt lat="42.96233" lon="1.9291">
        <ele>521.17</ele>
        <time>2016-12-28T15:28:19Z</time>
      </trkpt>
      <trkpt lat="42.96257" lon="1.92857">
        <ele>520.69</ele>
        <time>2016-12-28T15:28:29Z</time>
      </trkpt>
      <trkpt lat="42.9626" lon="1.92853">
        <ele>520.69</ele>
        <time>2016-12-28T15:28:30Z</time>
      </trkpt>
      <trkpt lat="42.96263" lon="1.92848">
        <ele>520.69</ele>
        <time>2016-12-28T15:28:31Z</time>
      </trkpt>
      <trkpt lat="42.96265" lon="1.92843">
        <ele>520.69</ele>
        <time>2016-12-28T15:28:32Z</time>
      </trkpt>
      <trkpt lat="42.96267" lon="1.92839">
        <ele>520.69</ele>
        <time>2016-12-28T15:28:33Z</time>
      </trkpt>
      <trkpt lat="42.9627" lon="1.92835">
        <ele>520.69</ele>
        <time>2016-12-28T15:28:34Z</time>
      </trkpt>
      <trkpt lat="42.96298" lon="1.92769">
        <ele>520.69</ele>
        <time>2016-12-28T15:28:48Z</time>
      </trkpt>
      <trkpt lat="42.96317" lon="1.92712">
        <ele>520.69</ele>
        <time>2016-12-28T15:29:00Z</time>
      </trkpt>
      <trkpt lat="42.96331" lon="1.92679">
        <ele>520.21</ele>
        <time>2016-12-28T15:29:06Z</time>
      </trkpt>
      <trkpt lat="42.96333" lon="1.92673">
        <ele>520.21</ele>
        <time>2016-12-28T15:29:07Z</time>
      </trkpt>
      <trkpt lat="42.96343" lon="1.92642">
        <ele>518.77</ele>
        <time>2016-12-28T15:29:12Z</time>
      </trkpt>
      <trkpt lat="42.9638" lon="1.92541">
        <ele>517.33</ele>
        <time>2016-12-28T15:29:27Z</time>
      </trkpt>
      <trkpt lat="42.96384" lon="1.92528">
        <ele>517.33</ele>
        <time>2016-12-28T15:29:29Z</time>
      </trkpt>
      <trkpt lat="42.96385" lon="1.92521">
        <ele>517.33</ele>
        <time>2016-12-28T15:29:30Z</time>
      </trkpt>
      <trkpt lat="42.96386" lon="1.92497">
        <ele>517.33</ele>
        <time>2016-12-28T15:29:34Z</time>
      </trkpt>
      <trkpt lat="42.96386" lon="1.92491">
        <ele>517.33</ele>
        <time>2016-12-28T15:29:35Z</time>
      </trkpt>
      <trkpt lat="42.96385" lon="1.92485">
        <ele>517.33</ele>
        <time>2016-12-28T15:29:36Z</time>
      </trkpt>
      <trkpt lat="42.96384" lon="1.92479">
        <ele>517.33</ele>
        <time>2016-12-28T15:29:37Z</time>
      </trkpt>
      <trkpt lat="42.96383" lon="1.92473">
        <ele>517.33</ele>
        <time>2016-12-28T15:29:38Z</time>
      </trkpt>
      <trkpt lat="42.96382" lon="1.92468">
        <ele>517.33</ele>
        <time>2016-12-28T15:29:39Z</time>
      </trkpt>
      <trkpt lat="42.9637" lon="1.92411">
        <ele>520.21</ele>
        <time>2016-12-28T15:29:52Z</time>
      </trkpt>
      <trkpt lat="42.96364" lon="1.92366">
        <ele>522.61</ele>
        <time>2016-12-28T15:30:07Z</time>
      </trkpt>
      <trkpt lat="42.96358" lon="1.92333">
        <ele>524.06</ele>
        <time>2016-12-28T15:30:20Z</time>
      </trkpt>
      <trkpt lat="42.96355" lon="1.92292">
        <ele>526.94</ele>
        <time>2016-12-28T15:30:35Z</time>
      </trkpt>
      <trkpt lat="42.96347" lon="1.9228">
        <ele>528.38</ele>
        <time>2016-12-28T15:30:42Z</time>
      </trkpt>
      <trkpt lat="42.96346" lon="1.92278">
        <ele>529.34</ele>
        <time>2016-12-28T15:30:43Z</time>
      </trkpt>
      <trkpt lat="42.96345" lon="1.92278">
        <ele>528.86</ele>
        <time>2016-12-28T15:30:44Z</time>
      </trkpt>
      <trkpt lat="42.96344" lon="1.92277">
        <ele>529.34</ele>
        <time>2016-12-28T15:30:45Z</time>
      </trkpt>
      <trkpt lat="42.96343" lon="1.92277">
        <ele>529.82</ele>
        <time>2016-12-28T15:30:57Z</time>
      </trkpt>
      <trkpt lat="42.96341" lon="1.92277">
        <ele>529.82</ele>
        <time>2016-12-28T15:31:15Z</time>
      </trkpt>
      <trkpt lat="42.96341" lon="1.92279">
        <ele>529.82</ele>
        <time>2016-12-28T15:31:36Z</time>
      </trkpt>
      <trkpt lat="42.96342" lon="1.9228">
        <ele>529.82</ele>
        <time>2016-12-28T15:31:58Z</time>
      </trkpt>
      <trkpt lat="42.96345" lon="1.92278">
        <ele>529.82</ele>
        <time>2016-12-28T15:32:22Z</time>
      </trkpt>
      <trkpt lat="42.96343" lon="1.9228">
        <ele>529.82</ele>
        <time>2016-12-28T15:32:50Z</time>
      </trkpt>
      <trkpt lat="42.9634" lon="1.92275">
        <ele>530.3</ele>
        <time>2016-12-28T15:33:26Z</time>
      </trkpt>
      <trkpt lat="42.96342" lon="1.92277">
        <ele>530.3</ele>
        <time>2016-12-28T15:34:00Z</time>
      </trkpt>
      <trkpt lat="42.96342" lon="1.9228">
        <ele>530.3</ele>
        <time>2016-12-28T15:34:31Z</time>
      </trkpt>
      <trkpt lat="42.9634" lon="1.92282">
        <ele>530.3</ele>
        <time>2016-12-28T15:35:00Z</time>
      </trkpt>
      <trkpt lat="42.96339" lon="1.92278">
        <ele>530.79</ele>
        <time>2016-12-28T15:35:16Z</time>
      </trkpt>
      <trkpt lat="42.96334" lon="1.92273">
        <ele>529.34</ele>
        <time>2016-12-28T15:35:22Z</time>
      </trkpt>
      <trkpt lat="42.96319" lon="1.92255">
        <ele>526.46</ele>
        <time>2016-12-28T15:35:36Z</time>
      </trkpt>
      <trkpt lat="42.96306" lon="1.92253">
        <ele>525.5</ele>
        <time>2016-12-28T15:35:39Z</time>
      </trkpt>
      <trkpt lat="42.9628" lon="1.92251">
        <ele>524.06</ele>
        <time>2016-12-28T15:35:45Z</time>
      </trkpt>
      <trkpt lat="42.96248" lon="1.92233">
        <ele>520.21</ele>
        <time>2016-12-28T15:35:54Z</time>
      </trkpt>
      <trkpt lat="42.96235" lon="1.92225">
        <ele>516.37</ele>
        <time>2016-12-28T15:35:57Z</time>
      </trkpt>
      <trkpt lat="42.96217" lon="1.92213">
        <ele>513</ele>
        <time>2016-12-28T15:36:02Z</time>
      </trkpt>
      <trkpt lat="42.96214" lon="1.92208">
        <ele>512.04</ele>
        <time>2016-12-28T15:36:03Z</time>
      </trkpt>
      <trkpt lat="42.96213" lon="1.92203">
        <ele>512.04</ele>
        <time>2016-12-28T15:36:04Z</time>
      </trkpt>
      <trkpt lat="42.96212" lon="1.92199">
        <ele>512.04</ele>
        <time>2016-12-28T15:36:05Z</time>
      </trkpt>
      <trkpt lat="42.9621" lon="1.92196">
        <ele>512.04</ele>
        <time>2016-12-28T15:36:06Z</time>
      </trkpt>
      <trkpt lat="42.96209" lon="1.92194">
        <ele>512.04</ele>
        <time>2016-12-28T15:36:07Z</time>
      </trkpt>
      <trkpt lat="42.96206" lon="1.92192">
        <ele>512.04</ele>
        <time>2016-12-28T15:36:08Z</time>
      </trkpt>
      <trkpt lat="42.96181" lon="1.92163">
        <ele>509.16</ele>
        <time>2016-12-28T15:36:17Z</time>
      </trkpt>
      <trkpt lat="42.96177" lon="1.92161">
        <ele>509.64</ele>
        <time>2016-12-28T15:36:18Z</time>
      </trkpt>
      <trkpt lat="42.96143" lon="1.92146">
        <ele>508.19</ele>
        <time>2016-12-28T15:36:29Z</time>
      </trkpt>
      <trkpt lat="42.96142" lon="1.92146">
        <ele>508.19</ele>
        <time>2016-12-28T15:36:30Z</time>
      </trkpt>
      <trkpt lat="42.96141" lon="1.92148">
        <ele>508.19</ele>
        <time>2016-12-28T15:36:31Z</time>
      </trkpt>
      <trkpt lat="42.96141" lon="1.92149">
        <ele>507.71</ele>
        <time>2016-12-28T15:36:32Z</time>
      </trkpt>
      <trkpt lat="42.96135" lon="1.92154">
        <ele>507.23</ele>
        <time>2016-12-28T15:36:44Z</time>
      </trkpt>
      <trkpt lat="42.96132" lon="1.92151">
        <ele>506.75</ele>
        <time>2016-12-28T15:37:05Z</time>
      </trkpt>
      <trkpt lat="42.96124" lon="1.92147">
        <ele>504.83</ele>
        <time>2016-12-28T15:37:14Z</time>
      </trkpt>
      <trkpt lat="42.96123" lon="1.92146">
        <ele>504.35</ele>
        <time>2016-12-28T15:37:15Z</time>
      </trkpt>
      <trkpt lat="42.96112" lon="1.92141">
        <ele>501.95</ele>
        <time>2016-12-28T15:37:27Z</time>
      </trkpt>
      <trkpt lat="42.96104" lon="1.92144">
        <ele>499.54</ele>
        <time>2016-12-28T15:37:40Z</time>
      </trkpt>
      <trkpt lat="42.96098" lon="1.92144">
        <ele>498.58</ele>
        <time>2016-12-28T15:37:50Z</time>
      </trkpt>
      <trkpt lat="42.9609" lon="1.92146">
        <ele>497.62</ele>
        <time>2016-12-28T15:38:04Z</time>
      </trkpt>
      <trkpt lat="42.9608" lon="1.92146">
        <ele>495.22</ele>
        <time>2016-12-28T15:38:13Z</time>
      </trkpt>
      <trkpt lat="42.96069" lon="1.92135">
        <ele>493.29</ele>
        <time>2016-12-28T15:38:27Z</time>
      </trkpt>
      <trkpt lat="42.96062" lon="1.9213">
        <ele>491.37</ele>
        <time>2016-12-28T15:38:39Z</time>
      </trkpt>
      <trkpt lat="42.96052" lon="1.92127">
        <ele>488.49</ele>
        <time>2016-12-28T15:38:52Z</time>
      </trkpt>
      <trkpt lat="42.9604" lon="1.92122">
        <ele>485.6</ele>
        <time>2016-12-28T15:39:05Z</time>
      </trkpt>
      <trkpt lat="42.96024" lon="1.92113">
        <ele>484.16</ele>
        <time>2016-12-28T15:39:16Z</time>
      </trkpt>
      <trkpt lat="42.96015" lon="1.92108">
        <ele>482.72</ele>
        <time>2016-12-28T15:39:28Z</time>
      </trkpt>
      <trkpt lat="42.96006" lon="1.92103">
        <ele>481.28</ele>
        <time>2016-12-28T15:39:41Z</time>
      </trkpt>
      <trkpt lat="42.96" lon="1.92093">
        <ele>479.84</ele>
        <time>2016-12-28T15:39:53Z</time>
      </trkpt>
      <trkpt lat="42.95992" lon="1.92078">
        <ele>478.39</ele>
        <time>2016-12-28T15:40:03Z</time>
      </trkpt>
      <trkpt lat="42.9599" lon="1.92074">
        <ele>478.39</ele>
        <time>2016-12-28T15:40:06Z</time>
      </trkpt>
      <trkpt lat="42.95989" lon="1.92073">
        <ele>478.39</ele>
        <time>2016-12-28T15:40:07Z</time>
      </trkpt>
      <trkpt lat="42.95988" lon="1.92072">
        <ele>478.39</ele>
        <time>2016-12-28T15:40:08Z</time>
      </trkpt>
      <trkpt lat="42.95983" lon="1.92065">
        <ele>476.95</ele>
        <time>2016-12-28T15:40:14Z</time>
      </trkpt>
      <trkpt lat="42.95983" lon="1.92062">
        <ele>476.95</ele>
        <time>2016-12-28T15:40:16Z</time>
      </trkpt>
      <trkpt lat="42.95974" lon="1.92049">
        <ele>474.55</ele>
        <time>2016-12-28T15:40:28Z</time>
      </trkpt>
      <trkpt lat="42.95969" lon="1.92038">
        <ele>472.63</ele>
        <time>2016-12-28T15:40:39Z</time>
      </trkpt>
      <trkpt lat="42.95967" lon="1.92035">
        <ele>471.66</ele>
        <time>2016-12-28T15:40:42Z</time>
      </trkpt>
      <trkpt lat="42.95964" lon="1.92026">
        <ele>470.7</ele>
        <time>2016-12-28T15:40:48Z</time>
      </trkpt>
      <trkpt lat="42.95964" lon="1.92018">
        <ele>469.74</ele>
        <time>2016-12-28T15:40:53Z</time>
      </trkpt>
      <trkpt lat="42.95959" lon="1.92008">
        <ele>467.82</ele>
        <time>2016-12-28T15:41:03Z</time>
      </trkpt>
      <trkpt lat="42.95959" lon="1.92006">
        <ele>467.34</ele>
        <time>2016-12-28T15:41:04Z</time>
      </trkpt>
      <trkpt lat="42.95958" lon="1.92004">
        <ele>467.34</ele>
        <time>2016-12-28T15:41:05Z</time>
      </trkpt>
      <trkpt lat="42.95957" lon="1.92002">
        <ele>466.86</ele>
        <time>2016-12-28T15:41:06Z</time>
      </trkpt>
      <trkpt lat="42.95957" lon="1.92">
        <ele>466.86</ele>
        <time>2016-12-28T15:41:07Z</time>
      </trkpt>
      <trkpt lat="42.95953" lon="1.91986">
        <ele>464.45</ele>
        <time>2016-12-28T15:41:20Z</time>
      </trkpt>
      <trkpt lat="42.95948" lon="1.91974">
        <ele>462.53</ele>
        <time>2016-12-28T15:41:30Z</time>
      </trkpt>
      <trkpt lat="42.95942" lon="1.91959">
        <ele>459.17</ele>
        <time>2016-12-28T15:41:42Z</time>
      </trkpt>
      <trkpt lat="42.95935" lon="1.91946">
        <ele>456.28</ele>
        <time>2016-12-28T15:41:53Z</time>
      </trkpt>
      <trkpt lat="42.9593" lon="1.9193">
        <ele>452.92</ele>
        <time>2016-12-28T15:42:05Z</time>
      </trkpt>
      <trkpt lat="42.9593" lon="1.91926">
        <ele>451.96</ele>
        <time>2016-12-28T15:42:09Z</time>
      </trkpt>
      <trkpt lat="42.95928" lon="1.91921">
        <ele>451.48</ele>
        <time>2016-12-28T15:42:13Z</time>
      </trkpt>
      <trkpt lat="42.95922" lon="1.91906">
        <ele>449.55</ele>
        <time>2016-12-28T15:42:24Z</time>
      </trkpt>
      <trkpt lat="42.95916" lon="1.91894">
        <ele>447.63</ele>
        <time>2016-12-28T15:42:37Z</time>
      </trkpt>
      <trkpt lat="42.95912" lon="1.91884">
        <ele>444.75</ele>
        <time>2016-12-28T15:42:51Z</time>
      </trkpt>
      <trkpt lat="42.95909" lon="1.91875">
        <ele>442.34</ele>
        <time>2016-12-28T15:43:00Z</time>
      </trkpt>
      <trkpt lat="42.95903" lon="1.91859">
        <ele>439.46</ele>
        <time>2016-12-28T15:43:13Z</time>
      </trkpt>
      <trkpt lat="42.95903" lon="1.91857">
        <ele>438.98</ele>
        <time>2016-12-28T15:43:14Z</time>
      </trkpt>
      <trkpt lat="42.95902" lon="1.9185">
        <ele>438.02</ele>
        <time>2016-12-28T15:43:18Z</time>
      </trkpt>
      <trkpt lat="42.95901" lon="1.91845">
        <ele>437.54</ele>
        <time>2016-12-28T15:43:21Z</time>
      </trkpt>
      <trkpt lat="42.959" lon="1.9183">
        <ele>435.61</ele>
        <time>2016-12-28T15:43:29Z</time>
      </trkpt>
      <trkpt lat="42.95899" lon="1.91828">
        <ele>435.61</ele>
        <time>2016-12-28T15:43:30Z</time>
      </trkpt>
      <trkpt lat="42.95889" lon="1.91812">
        <ele>433.21</ele>
        <time>2016-12-28T15:43:44Z</time>
      </trkpt>
      <trkpt lat="42.95885" lon="1.91811">
        <ele>432.73</ele>
        <time>2016-12-28T15:43:48Z</time>
      </trkpt>
      <trkpt lat="42.95883" lon="1.91812">
        <ele>432.25</ele>
        <time>2016-12-28T15:43:49Z</time>
      </trkpt>
      <trkpt lat="42.95881" lon="1.91812">
        <ele>432.25</ele>
        <time>2016-12-28T15:43:50Z</time>
      </trkpt>
      <trkpt lat="42.95879" lon="1.91812">
        <ele>431.77</ele>
        <time>2016-12-28T15:43:51Z</time>
      </trkpt>
      <trkpt lat="42.95876" lon="1.91812">
        <ele>431.29</ele>
        <time>2016-12-28T15:43:52Z</time>
      </trkpt>
      <trkpt lat="42.95873" lon="1.91812">
        <ele>431.29</ele>
        <time>2016-12-28T15:43:53Z</time>
      </trkpt>
      <trkpt lat="42.95868" lon="1.91809">
        <ele>431.29</ele>
        <time>2016-12-28T15:43:55Z</time>
      </trkpt>
      <trkpt lat="42.95866" lon="1.91805">
        <ele>430.33</ele>
        <time>2016-12-28T15:43:56Z</time>
      </trkpt>
      <trkpt lat="42.95864" lon="1.918">
        <ele>429.37</ele>
        <time>2016-12-28T15:43:57Z</time>
      </trkpt>
      <trkpt lat="42.95857" lon="1.91771">
        <ele>426.48</ele>
        <time>2016-12-28T15:44:01Z</time>
      </trkpt>
      <trkpt lat="42.95842" lon="1.91689">
        <ele>426.96</ele>
        <time>2016-12-28T15:44:14Z</time>
      </trkpt>
      <trkpt lat="42.95825" lon="1.91626">
        <ele>426.96</ele>
        <time>2016-12-28T15:44:28Z</time>
      </trkpt>
      <trkpt lat="42.95821" lon="1.91589">
        <ele>427.44</ele>
        <time>2016-12-28T15:44:39Z</time>
      </trkpt>
      <trkpt lat="42.95817" lon="1.9153">
        <ele>427.44</ele>
        <time>2016-12-28T15:44:52Z</time>
      </trkpt>
      <trkpt lat="42.95812" lon="1.9147">
        <ele>427.44</ele>
        <time>2016-12-28T15:45:08Z</time>
      </trkpt>
      <trkpt lat="42.95801" lon="1.91468">
        <ele>428.89</ele>
        <time>2016-12-28T15:45:15Z</time>
      </trkpt>
      <trkpt lat="42.958" lon="1.91465">
        <ele>428.89</ele>
        <time>2016-12-28T15:45:30Z</time>
      </trkpt>
      <trkpt lat="42.95799" lon="1.91465">
        <ele>429.37</ele>
        <time>2016-12-28T15:45:59Z</time>
      </trkpt>
      <trkpt lat="42.95798" lon="1.91466">
        <ele>429.37</ele>
        <time>2016-12-28T15:46:00Z</time>
      </trkpt>
      <trkpt lat="42.95796" lon="1.91431">
        <ele>429.37</ele>
        <time>2016-12-28T15:46:13Z</time>
      </trkpt>
      <trkpt lat="42.95788" lon="1.91356">
        <ele>429.37</ele>
        <time>2016-12-28T15:46:30Z</time>
      </trkpt>
      <trkpt lat="42.95779" lon="1.91276">
        <ele>430.81</ele>
        <time>2016-12-28T15:46:47Z</time>
      </trkpt>
      <trkpt lat="42.95778" lon="1.91257">
        <ele>430.81</ele>
        <time>2016-12-28T15:46:51Z</time>
      </trkpt>
      <trkpt lat="42.95777" lon="1.91251">
        <ele>430.81</ele>
        <time>2016-12-28T15:46:52Z</time>
      </trkpt>
      <trkpt lat="42.95773" lon="1.91199">
        <ele>430.81</ele>
        <time>2016-12-28T15:47:04Z</time>
      </trkpt>
      <trkpt lat="42.95767" lon="1.91144">
        <ele>431.29</ele>
        <time>2016-12-28T15:47:17Z</time>
      </trkpt>
      <trkpt lat="42.95757" lon="1.91074">
        <ele>432.73</ele>
        <time>2016-12-28T15:47:32Z</time>
      </trkpt>
      <trkpt lat="42.95747" lon="1.91027">
        <ele>433.21</ele>
        <time>2016-12-28T15:47:44Z</time>
      </trkpt>
      <trkpt lat="42.95734" lon="1.90981">
        <ele>433.69</ele>
        <time>2016-12-28T15:47:56Z</time>
      </trkpt>
      <trkpt lat="42.95706" lon="1.90917">
        <ele>434.65</ele>
        <time>2016-12-28T15:48:12Z</time>
      </trkpt>
      <trkpt lat="42.95678" lon="1.9087">
        <ele>435.13</ele>
        <time>2016-12-28T15:48:26Z</time>
      </trkpt>
      <trkpt lat="42.9566" lon="1.90842">
        <ele>436.1</ele>
        <time>2016-12-28T15:48:39Z</time>
      </trkpt>
      <trkpt lat="42.95644" lon="1.90816">
        <ele>436.58</ele>
        <time>2016-12-28T15:48:50Z</time>
      </trkpt>
      <trkpt lat="42.95616" lon="1.90778">
        <ele>437.54</ele>
        <time>2016-12-28T15:49:05Z</time>
      </trkpt>
      <trkpt lat="42.95599" lon="1.90748">
        <ele>437.54</ele>
        <time>2016-12-28T15:49:18Z</time>
      </trkpt>
      <trkpt lat="42.95573" lon="1.90699">
        <ele>438.5</ele>
        <time>2016-12-28T15:49:32Z</time>
      </trkpt>
      <trkpt lat="42.95552" lon="1.90649">
        <ele>438.5</ele>
        <time>2016-12-28T15:49:45Z</time>
      </trkpt>
      <trkpt lat="42.95539" lon="1.90594">
        <ele>439.94</ele>
        <time>2016-12-28T15:49:58Z</time>
      </trkpt>
      <trkpt lat="42.95531" lon="1.90529">
        <ele>440.42</ele>
        <time>2016-12-28T15:50:13Z</time>
      </trkpt>
      <trkpt lat="42.95542" lon="1.90498">
        <ele>441.86</ele>
        <time>2016-12-28T15:50:22Z</time>
      </trkpt>
      <trkpt lat="42.95543" lon="1.90495">
        <ele>441.86</ele>
        <time>2016-12-28T15:50:23Z</time>
      </trkpt>
      <trkpt lat="42.95544" lon="1.90492">
        <ele>441.86</ele>
        <time>2016-12-28T15:50:24Z</time>
      </trkpt>
      <trkpt lat="42.95546" lon="1.90473">
        <ele>441.86</ele>
        <time>2016-12-28T15:50:30Z</time>
      </trkpt>
      <trkpt lat="42.95544" lon="1.90472">
        <ele>441.86</ele>
        <time>2016-12-28T15:50:31Z</time>
      </trkpt>
      <trkpt lat="42.95522" lon="1.90462">
        <ele>441.86</ele>
        <time>2016-12-28T15:50:43Z</time>
      </trkpt>
      <trkpt lat="42.95522" lon="1.90458">
        <ele>441.86</ele>
        <time>2016-12-28T15:50:54Z</time>
      </trkpt>
      <trkpt lat="42.95523" lon="1.90457">
        <ele>442.34</ele>
        <time>2016-12-28T15:51:25Z</time>
      </trkpt>
      <trkpt lat="42.95523" lon="1.90455">
        <ele>442.34</ele>
        <time>2016-12-28T15:51:45Z</time>
      </trkpt>
      <trkpt lat="42.95524" lon="1.90452">
        <ele>442.34</ele>
        <time>2016-12-28T15:51:51Z</time>
      </trkpt>
      <trkpt lat="42.95524" lon="1.90447">
        <ele>442.34</ele>
        <time>2016-12-28T15:52:04Z</time>
      </trkpt>
      <trkpt lat="42.95523" lon="1.90447">
        <ele>442.34</ele>
        <time>2016-12-28T15:52:21Z</time>
      </trkpt>
      <trkpt lat="42.95523" lon="1.90444">
        <ele>442.34</ele>
        <time>2016-12-28T15:52:35Z</time>
      </trkpt>
      <trkpt lat="42.95522" lon="1.90443">
        <ele>442.34</ele>
        <time>2016-12-28T15:52:44Z</time>
      </trkpt>
      <trkpt lat="42.95521" lon="1.90428">
        <ele>442.34</ele>
        <time>2016-12-28T15:52:50Z</time>
      </trkpt>
      <trkpt lat="42.95525" lon="1.90376">
        <ele>443.31</ele>
        <time>2016-12-28T15:53:04Z</time>
      </trkpt>
      <trkpt lat="42.95535" lon="1.90315">
        <ele>443.79</ele>
        <time>2016-12-28T15:53:19Z</time>
      </trkpt>
      <trkpt lat="42.95551" lon="1.90253">
        <ele>444.27</ele>
        <time>2016-12-28T15:53:34Z</time>
      </trkpt>
      <trkpt lat="42.95571" lon="1.90192">
        <ele>444.75</ele>
        <time>2016-12-28T15:53:49Z</time>
      </trkpt>
      <trkpt lat="42.95591" lon="1.90143">
        <ele>445.71</ele>
        <time>2016-12-28T15:54:02Z</time>
      </trkpt>
      <trkpt lat="42.95613" lon="1.90087">
        <ele>446.19</ele>
        <time>2016-12-28T15:54:17Z</time>
      </trkpt>
      <trkpt lat="42.95637" lon="1.9002">
        <ele>447.15</ele>
        <time>2016-12-28T15:54:34Z</time>
      </trkpt>
      <trkpt lat="42.95654" lon="1.89975">
        <ele>447.63</ele>
        <time>2016-12-28T15:54:46Z</time>
      </trkpt>
      <trkpt lat="42.95681" lon="1.89916">
        <ele>448.11</ele>
        <time>2016-12-28T15:55:02Z</time>
      </trkpt>
      <trkpt lat="42.95705" lon="1.89855">
        <ele>449.07</ele>
        <time>2016-12-28T15:55:18Z</time>
      </trkpt>
      <trkpt lat="42.95729" lon="1.89789">
        <ele>450.52</ele>
        <time>2016-12-28T15:55:35Z</time>
      </trkpt>
      <trkpt lat="42.9575" lon="1.89737">
        <ele>451.48</ele>
        <time>2016-12-28T15:55:50Z</time>
      </trkpt>
      <trkpt lat="42.95766" lon="1.89702">
        <ele>451.96</ele>
        <time>2016-12-28T15:56:06Z</time>
      </trkpt>
      <trkpt lat="42.95785" lon="1.89663">
        <ele>452.44</ele>
        <time>2016-12-28T15:56:20Z</time>
      </trkpt>
      <trkpt lat="42.95805" lon="1.89609">
        <ele>452.92</ele>
        <time>2016-12-28T15:56:35Z</time>
      </trkpt>
      <trkpt lat="42.9581" lon="1.89584">
        <ele>453.4</ele>
        <time>2016-12-28T15:56:42Z</time>
      </trkpt>
      <trkpt lat="42.95815" lon="1.89549">
        <ele>453.4</ele>
        <time>2016-12-28T15:56:54Z</time>
      </trkpt>
      <trkpt lat="42.95823" lon="1.89509">
        <ele>453.88</ele>
        <time>2016-12-28T15:57:08Z</time>
      </trkpt>
      <trkpt lat="42.95829" lon="1.89484">
        <ele>454.36</ele>
        <time>2016-12-28T15:57:15Z</time>
      </trkpt>
      <trkpt lat="42.95829" lon="1.89481">
        <ele>454.36</ele>
        <time>2016-12-28T15:57:16Z</time>
      </trkpt>
      <trkpt lat="42.95838" lon="1.89426">
        <ele>454.84</ele>
        <time>2016-12-28T15:57:31Z</time>
      </trkpt>
      <trkpt lat="42.95843" lon="1.8937">
        <ele>455.8</ele>
        <time>2016-12-28T15:57:46Z</time>
      </trkpt>
      <trkpt lat="42.95845" lon="1.89325">
        <ele>456.76</ele>
        <time>2016-12-28T15:57:58Z</time>
      </trkpt>
      <trkpt lat="42.95844" lon="1.89279">
        <ele>456.76</ele>
        <time>2016-12-28T15:58:10Z</time>
      </trkpt>
      <trkpt lat="42.95841" lon="1.89225">
        <ele>457.24</ele>
        <time>2016-12-28T15:58:24Z</time>
      </trkpt>
      <trkpt lat="42.95843" lon="1.89195">
        <ele>457.24</ele>
        <time>2016-12-28T15:58:39Z</time>
      </trkpt>
      <trkpt lat="42.95781" lon="1.88876">
        <ele>461.09</ele>
        <time>2016-12-28T15:59:47Z</time>
      </trkpt>
      <trkpt lat="42.95787" lon="1.88883">
        <ele>461.09</ele>
        <time>2016-12-28T15:59:51Z</time>
      </trkpt>
      <trkpt lat="42.9578" lon="1.88837">
        <ele>461.57</ele>
        <time>2016-12-28T16:00:07Z</time>
      </trkpt>
      <trkpt lat="42.95777" lon="1.8879">
        <ele>462.53</ele>
        <time>2016-12-28T16:00:20Z</time>
      </trkpt>
      <trkpt lat="42.95779" lon="1.88738">
        <ele>463.01</ele>
        <time>2016-12-28T16:00:35Z</time>
      </trkpt>
      <trkpt lat="42.95782" lon="1.88679">
        <ele>463.01</ele>
        <time>2016-12-28T16:00:49Z</time>
      </trkpt>
      <trkpt lat="42.95787" lon="1.88616">
        <ele>463.01</ele>
        <time>2016-12-28T16:01:02Z</time>
      </trkpt>
      <trkpt lat="42.95792" lon="1.88555">
        <ele>463.01</ele>
        <time>2016-12-28T16:01:14Z</time>
      </trkpt>
      <trkpt lat="42.95805" lon="1.88483">
        <ele>463.01</ele>
        <time>2016-12-28T16:01:28Z</time>
      </trkpt>
      <trkpt lat="42.95819" lon="1.88424">
        <ele>462.05</ele>
        <time>2016-12-28T16:01:39Z</time>
      </trkpt>
      <trkpt lat="42.95827" lon="1.88403">
        <ele>462.05</ele>
        <time>2016-12-28T16:01:43Z</time>
      </trkpt>
      <trkpt lat="42.9585" lon="1.88335">
        <ele>462.05</ele>
        <time>2016-12-28T16:01:57Z</time>
      </trkpt>
      <trkpt lat="42.95871" lon="1.88271">
        <ele>461.57</ele>
        <time>2016-12-28T16:02:11Z</time>
      </trkpt>
      <trkpt lat="42.95879" lon="1.88241">
        <ele>461.57</ele>
        <time>2016-12-28T16:02:17Z</time>
      </trkpt>
      <trkpt lat="42.95901" lon="1.88175">
        <ele>461.57</ele>
        <time>2016-12-28T16:02:32Z</time>
      </trkpt>
      <trkpt lat="42.95924" lon="1.88101">
        <ele>461.57</ele>
        <time>2016-12-28T16:02:48Z</time>
      </trkpt>
      <trkpt lat="42.95953" lon="1.88021">
        <ele>461.57</ele>
        <time>2016-12-28T16:03:06Z</time>
      </trkpt>
      <trkpt lat="42.95972" lon="1.87957">
        <ele>462.53</ele>
        <time>2016-12-28T16:03:20Z</time>
      </trkpt>
      <trkpt lat="42.95988" lon="1.87891">
        <ele>462.53</ele>
        <time>2016-12-28T16:03:34Z</time>
      </trkpt>
      <trkpt lat="42.96001" lon="1.87846">
        <ele>461.57</ele>
        <time>2016-12-28T16:03:45Z</time>
      </trkpt>
      <trkpt lat="42.96023" lon="1.87779">
        <ele>461.57</ele>
        <time>2016-12-28T16:03:59Z</time>
      </trkpt>
      <trkpt lat="42.96029" lon="1.87764">
        <ele>461.57</ele>
        <time>2016-12-28T16:04:02Z</time>
      </trkpt>
      <trkpt lat="42.9605" lon="1.87695">
        <ele>461.57</ele>
        <time>2016-12-28T16:04:16Z</time>
      </trkpt>
      <trkpt lat="42.96068" lon="1.87619">
        <ele>461.57</ele>
        <time>2016-12-28T16:04:30Z</time>
      </trkpt>
      <trkpt lat="42.96079" lon="1.87549">
        <ele>461.57</ele>
        <time>2016-12-28T16:04:44Z</time>
      </trkpt>
      <trkpt lat="42.96076" lon="1.87466">
        <ele>461.57</ele>
        <time>2016-12-28T16:05:00Z</time>
      </trkpt>
      <trkpt lat="42.9607" lon="1.87407">
        <ele>463.01</ele>
        <time>2016-12-28T16:05:13Z</time>
      </trkpt>
      <trkpt lat="42.96054" lon="1.87333">
        <ele>463.49</ele>
        <time>2016-12-28T16:05:31Z</time>
      </trkpt>
      <trkpt lat="42.96034" lon="1.87269">
        <ele>464.45</ele>
        <time>2016-12-28T16:05:48Z</time>
      </trkpt>
      <trkpt lat="42.96009" lon="1.872">
        <ele>464.93</ele>
        <time>2016-12-28T16:06:07Z</time>
      </trkpt>
      <trkpt lat="42.95988" lon="1.87148">
        <ele>465.9</ele>
        <time>2016-12-28T16:06:22Z</time>
      </trkpt>
      <trkpt lat="42.95973" lon="1.87108">
        <ele>466.38</ele>
        <time>2016-12-28T16:06:34Z</time>
      </trkpt>
      <trkpt lat="42.95947" lon="1.87038">
        <ele>466.86</ele>
        <time>2016-12-28T16:06:52Z</time>
      </trkpt>
      <trkpt lat="42.95925" lon="1.86982">
        <ele>467.34</ele>
        <time>2016-12-28T16:07:08Z</time>
      </trkpt>
      <trkpt lat="42.95906" lon="1.86936">
        <ele>467.82</ele>
        <time>2016-12-28T16:07:22Z</time>
      </trkpt>
      <trkpt lat="42.95887" lon="1.86889">
        <ele>467.82</ele>
        <time>2016-12-28T16:07:34Z</time>
      </trkpt>
      <trkpt lat="42.95864" lon="1.86842">
        <ele>468.3</ele>
        <time>2016-12-28T16:07:47Z</time>
      </trkpt>
      <trkpt lat="42.95841" lon="1.86803">
        <ele>469.26</ele>
        <time>2016-12-28T16:07:59Z</time>
      </trkpt>
      <trkpt lat="42.95817" lon="1.86766">
        <ele>469.26</ele>
        <time>2016-12-28T16:08:11Z</time>
      </trkpt>
      <trkpt lat="42.95793" lon="1.86733">
        <ele>469.26</ele>
        <time>2016-12-28T16:08:22Z</time>
      </trkpt>
      <trkpt lat="42.95772" lon="1.86699">
        <ele>469.74</ele>
        <time>2016-12-28T16:08:33Z</time>
      </trkpt>
      <trkpt lat="42.95751" lon="1.86666">
        <ele>470.7</ele>
        <time>2016-12-28T16:08:44Z</time>
      </trkpt>
      <trkpt lat="42.95725" lon="1.86628">
        <ele>470.7</ele>
        <time>2016-12-28T16:08:56Z</time>
      </trkpt>
      <trkpt lat="42.95713" lon="1.86606">
        <ele>471.18</ele>
        <time>2016-12-28T16:09:05Z</time>
      </trkpt>
      <trkpt lat="42.95711" lon="1.86602">
        <ele>471.66</ele>
        <time>2016-12-28T16:09:16Z</time>
      </trkpt>
      <trkpt lat="42.95713" lon="1.86601">
        <ele>471.66</ele>
        <time>2016-12-28T16:09:21Z</time>
      </trkpt>
      <trkpt lat="42.95717" lon="1.86602">
        <ele>470.22</ele>
        <time>2016-12-28T16:09:23Z</time>
      </trkpt>
      <trkpt lat="42.95733" lon="1.86601">
        <ele>466.38</ele>
        <time>2016-12-28T16:09:27Z</time>
      </trkpt>
      <trkpt lat="42.95751" lon="1.86589">
        <ele>463.97</ele>
        <time>2016-12-28T16:09:37Z</time>
      </trkpt>
      <trkpt lat="42.95781" lon="1.86586">
        <ele>463.01</ele>
        <time>2016-12-28T16:09:48Z</time>
      </trkpt>
      <trkpt lat="42.95817" lon="1.86604">
        <ele>462.05</ele>
        <time>2016-12-28T16:09:57Z</time>
      </trkpt>
      <trkpt lat="42.95854" lon="1.86624">
        <ele>462.05</ele>
        <time>2016-12-28T16:10:06Z</time>
      </trkpt>
      <trkpt lat="42.95857" lon="1.86627">
        <ele>462.05</ele>
        <time>2016-12-28T16:10:07Z</time>
      </trkpt>
      <trkpt lat="42.9586" lon="1.86629">
        <ele>461.57</ele>
        <time>2016-12-28T16:10:08Z</time>
      </trkpt>
      <trkpt lat="42.95877" lon="1.86638">
        <ele>461.57</ele>
        <time>2016-12-28T16:10:18Z</time>
      </trkpt>
      <trkpt lat="42.95884" lon="1.8664">
        <ele>462.05</ele>
        <time>2016-12-28T16:10:28Z</time>
      </trkpt>
      <trkpt lat="42.95884" lon="1.86641">
        <ele>461.57</ele>
        <time>2016-12-28T16:10:51Z</time>
      </trkpt>
      <trkpt lat="42.95883" lon="1.86642">
        <ele>461.57</ele>
        <time>2016-12-28T16:11:15Z</time>
      </trkpt>
      <trkpt lat="42.95886" lon="1.86641">
        <ele>462.05</ele>
        <time>2016-12-28T16:11:48Z</time>
      </trkpt>
      <trkpt lat="42.95885" lon="1.86642">
        <ele>462.53</ele>
        <time>2016-12-28T16:12:15Z</time>
      </trkpt>
      <trkpt lat="42.95883" lon="1.86641">
        <ele>462.05</ele>
        <time>2016-12-28T16:12:20Z</time>
      </trkpt>
      <trkpt lat="42.95882" lon="1.8664">
        <ele>461.09</ele>
        <time>2016-12-28T16:12:21Z</time>
      </trkpt>
      <trkpt lat="42.9588" lon="1.86639">
        <ele>461.09</ele>
        <time>2016-12-28T16:12:22Z</time>
      </trkpt>
      <trkpt lat="42.95879" lon="1.86639">
        <ele>461.09</ele>
        <time>2016-12-28T16:12:23Z</time>
      </trkpt>
      <trkpt lat="42.95878" lon="1.86638">
        <ele>461.09</ele>
        <time>2016-12-28T16:12:24Z</time>
      </trkpt>
      <trkpt lat="42.95876" lon="1.86638">
        <ele>461.09</ele>
        <time>2016-12-28T16:12:25Z</time>
      </trkpt>
      <trkpt lat="42.95849" lon="1.86623">
        <ele>461.09</ele>
        <time>2016-12-28T16:12:36Z</time>
      </trkpt>
      <trkpt lat="42.95804" lon="1.86599">
        <ele>462.53</ele>
        <time>2016-12-28T16:12:51Z</time>
      </trkpt>
      <trkpt lat="42.95764" lon="1.86576">
        <ele>463.49</ele>
        <time>2016-12-28T16:13:05Z</time>
      </trkpt>
      <trkpt lat="42.95761" lon="1.86572">
        <ele>464.93</ele>
        <time>2016-12-28T16:13:15Z</time>
      </trkpt>
      <trkpt lat="42.95759" lon="1.86573">
        <ele>464.93</ele>
        <time>2016-12-28T16:13:32Z</time>
      </trkpt>
      <trkpt lat="42.95756" lon="1.86575">
        <ele>464.93</ele>
        <time>2016-12-28T16:14:00Z</time>
      </trkpt>
      <trkpt lat="42.95757" lon="1.86571">
        <ele>465.9</ele>
        <time>2016-12-28T16:14:18Z</time>
      </trkpt>
      <trkpt lat="42.9576" lon="1.86572">
        <ele>465.9</ele>
        <time>2016-12-28T16:14:52Z</time>
      </trkpt>
      <trkpt lat="42.9576" lon="1.86571">
        <ele>465.42</ele>
        <time>2016-12-28T16:15:08Z</time>
      </trkpt>
      <trkpt lat="42.95763" lon="1.86572">
        <ele>465.42</ele>
        <time>2016-12-28T16:15:37Z</time>
      </trkpt>
      <trkpt lat="42.9576" lon="1.86569">
        <ele>465.9</ele>
        <time>2016-12-28T16:16:11Z</time>
      </trkpt>
      <trkpt lat="42.95756" lon="1.86571">
        <ele>466.38</ele>
        <time>2016-12-28T16:16:43Z</time>
      </trkpt>
      <trkpt lat="42.95757" lon="1.86572">
        <ele>465.42</ele>
        <time>2016-12-28T16:17:02Z</time>
      </trkpt>
      <trkpt lat="42.95757" lon="1.8657">
        <ele>465.42</ele>
        <time>2016-12-28T16:17:20Z</time>
      </trkpt>
      <trkpt lat="42.95762" lon="1.86572">
        <ele>465.42</ele>
        <time>2016-12-28T16:17:30Z</time>
      </trkpt>
      <trkpt lat="42.95763" lon="1.86573">
        <ele>465.42</ele>
        <time>2016-12-28T16:17:31Z</time>
      </trkpt>
      <trkpt lat="42.958" lon="1.86597">
        <ele>464.45</ele>
        <time>2016-12-28T16:17:44Z</time>
      </trkpt>
      <trkpt lat="42.95845" lon="1.86621">
        <ele>463.01</ele>
        <time>2016-12-28T16:17:55Z</time>
      </trkpt>
      <trkpt lat="42.95857" lon="1.8663">
        <ele>463.01</ele>
        <time>2016-12-28T16:17:58Z</time>
      </trkpt>
      <trkpt lat="42.95862" lon="1.86632">
        <ele>463.01</ele>
        <time>2016-12-28T16:17:59Z</time>
      </trkpt>
      <trkpt lat="42.95866" lon="1.86634">
        <ele>463.01</ele>
        <time>2016-12-28T16:18:00Z</time>
      </trkpt>
      <trkpt lat="42.95878" lon="1.86641">
        <ele>462.53</ele>
        <time>2016-12-28T16:18:03Z</time>
      </trkpt>
      <trkpt lat="42.95886" lon="1.86646">
        <ele>462.53</ele>
        <time>2016-12-28T16:18:05Z</time>
      </trkpt>
      <trkpt lat="42.9589" lon="1.86649">
        <ele>462.53</ele>
        <time>2016-12-28T16:18:06Z</time>
      </trkpt>
      <trkpt lat="42.95893" lon="1.86652">
        <ele>462.53</ele>
        <time>2016-12-28T16:18:07Z</time>
      </trkpt>
      <trkpt lat="42.95896" lon="1.86655">
        <ele>462.53</ele>
        <time>2016-12-28T16:18:08Z</time>
      </trkpt>
      <trkpt lat="42.95898" lon="1.86659">
        <ele>462.53</ele>
        <time>2016-12-28T16:18:09Z</time>
      </trkpt>
      <trkpt lat="42.959" lon="1.86662">
        <ele>462.53</ele>
        <time>2016-12-28T16:18:10Z</time>
      </trkpt>
      <trkpt lat="42.95902" lon="1.86665">
        <ele>462.53</ele>
        <time>2016-12-28T16:18:11Z</time>
      </trkpt>
      <trkpt lat="42.95903" lon="1.86668">
        <ele>462.53</ele>
        <time>2016-12-28T16:18:12Z</time>
      </trkpt>
      <trkpt lat="42.95923" lon="1.86719">
        <ele>462.53</ele>
        <time>2016-12-28T16:18:26Z</time>
      </trkpt>
      <trkpt lat="42.95927" lon="1.86733">
        <ele>462.05</ele>
        <time>2016-12-28T16:18:29Z</time>
      </trkpt>
      <trkpt lat="42.95931" lon="1.86744">
        <ele>461.09</ele>
        <time>2016-12-28T16:18:31Z</time>
      </trkpt>
      <trkpt lat="42.95933" lon="1.86749">
        <ele>461.09</ele>
        <time>2016-12-28T16:18:32Z</time>
      </trkpt>
      <trkpt lat="42.95958" lon="1.86791">
        <ele>460.13</ele>
        <time>2016-12-28T16:18:42Z</time>
      </trkpt>
      <trkpt lat="42.95969" lon="1.86804">
        <ele>458.69</ele>
        <time>2016-12-28T16:18:45Z</time>
      </trkpt>
      <trkpt lat="42.95974" lon="1.86806">
        <ele>458.69</ele>
        <time>2016-12-28T16:18:46Z</time>
      </trkpt>
      <trkpt lat="42.95979" lon="1.86807">
        <ele>458.69</ele>
        <time>2016-12-28T16:18:47Z</time>
      </trkpt>
      <trkpt lat="42.95988" lon="1.8681">
        <ele>458.69</ele>
        <time>2016-12-28T16:18:49Z</time>
      </trkpt>
      <trkpt lat="42.96012" lon="1.86814">
        <ele>458.21</ele>
        <time>2016-12-28T16:18:55Z</time>
      </trkpt>
      <trkpt lat="42.96016" lon="1.86815">
        <ele>458.21</ele>
        <time>2016-12-28T16:18:56Z</time>
      </trkpt>
      <trkpt lat="42.96019" lon="1.86818">
        <ele>458.21</ele>
        <time>2016-12-28T16:18:57Z</time>
      </trkpt>
      <trkpt lat="42.96022" lon="1.86821">
        <ele>458.21</ele>
        <time>2016-12-28T16:18:58Z</time>
      </trkpt>
      <trkpt lat="42.96026" lon="1.86824">
        <ele>458.21</ele>
        <time>2016-12-28T16:18:59Z</time>
      </trkpt>
      <trkpt lat="42.9603" lon="1.86826">
        <ele>458.21</ele>
        <time>2016-12-28T16:19:00Z</time>
      </trkpt>
      <trkpt lat="42.96033" lon="1.86827">
        <ele>458.21</ele>
        <time>2016-12-28T16:19:01Z</time>
      </trkpt>
      <trkpt lat="42.96037" lon="1.86828">
        <ele>458.21</ele>
        <time>2016-12-28T16:19:02Z</time>
      </trkpt>
      <trkpt lat="42.96041" lon="1.86829">
        <ele>458.21</ele>
        <time>2016-12-28T16:19:03Z</time>
      </trkpt>
      <trkpt lat="42.96071" lon="1.86837">
        <ele>457.72</ele>
        <time>2016-12-28T16:19:09Z</time>
      </trkpt>
      <trkpt lat="42.96082" lon="1.86838">
        <ele>457.24</ele>
        <time>2016-12-28T16:19:11Z</time>
      </trkpt>
      <trkpt lat="42.96087" lon="1.8684">
        <ele>456.28</ele>
        <time>2016-12-28T16:19:12Z</time>
      </trkpt>
      <trkpt lat="42.96126" lon="1.86865">
        <ele>453.88</ele>
        <time>2016-12-28T16:19:19Z</time>
      </trkpt>
      <trkpt lat="42.96161" lon="1.86884">
        <ele>452.92</ele>
        <time>2016-12-28T16:19:25Z</time>
      </trkpt>
      <trkpt lat="42.96171" lon="1.86889">
        <ele>452.44</ele>
        <time>2016-12-28T16:19:27Z</time>
      </trkpt>
      <trkpt lat="42.96176" lon="1.86892">
        <ele>452.44</ele>
        <time>2016-12-28T16:19:28Z</time>
      </trkpt>
      <trkpt lat="42.9619" lon="1.86899">
        <ele>452.44</ele>
        <time>2016-12-28T16:19:31Z</time>
      </trkpt>
      <trkpt lat="42.96195" lon="1.86901">
        <ele>452.44</ele>
        <time>2016-12-28T16:19:32Z</time>
      </trkpt>
      <trkpt lat="42.96201" lon="1.86901">
        <ele>452.44</ele>
        <time>2016-12-28T16:19:33Z</time>
      </trkpt>
      <trkpt lat="42.96272" lon="1.86908">
        <ele>451.96</ele>
        <time>2016-12-28T16:19:47Z</time>
      </trkpt>
      <trkpt lat="42.96307" lon="1.86923">
        <ele>451</ele>
        <time>2016-12-28T16:19:57Z</time>
      </trkpt>
      <trkpt lat="42.96308" lon="1.86923">
        <ele>451</ele>
        <time>2016-12-28T16:20:00Z</time>
      </trkpt>
      <trkpt lat="42.96309" lon="1.86924">
        <ele>451</ele>
        <time>2016-12-28T16:20:01Z</time>
      </trkpt>
      <trkpt lat="42.9631" lon="1.86925">
        <ele>451</ele>
        <time>2016-12-28T16:20:02Z</time>
      </trkpt>
      <trkpt lat="42.96312" lon="1.86926">
        <ele>451</ele>
        <time>2016-12-28T16:20:03Z</time>
      </trkpt>
      <trkpt lat="42.96315" lon="1.86927">
        <ele>451</ele>
        <time>2016-12-28T16:20:04Z</time>
      </trkpt>
      <trkpt lat="42.96358" lon="1.86958">
        <ele>450.52</ele>
        <time>2016-12-28T16:20:16Z</time>
      </trkpt>
      <trkpt lat="42.96362" lon="1.86962">
        <ele>450.52</ele>
        <time>2016-12-28T16:20:17Z</time>
      </trkpt>
      <trkpt lat="42.96366" lon="1.86967">
        <ele>450.03</ele>
        <time>2016-12-28T16:20:18Z</time>
      </trkpt>
      <trkpt lat="42.96372" lon="1.86977">
        <ele>450.03</ele>
        <time>2016-12-28T16:20:20Z</time>
      </trkpt>
      <trkpt lat="42.96381" lon="1.86994">
        <ele>450.03</ele>
        <time>2016-12-28T16:20:23Z</time>
      </trkpt>
      <trkpt lat="42.96402" lon="1.8705">
        <ele>449.55</ele>
        <time>2016-12-28T16:20:36Z</time>
      </trkpt>
      <trkpt lat="42.96406" lon="1.87058">
        <ele>451.48</ele>
        <time>2016-12-28T16:20:39Z</time>
      </trkpt>
      <trkpt lat="42.96411" lon="1.87062">
        <ele>451.96</ele>
        <time>2016-12-28T16:20:44Z</time>
      </trkpt>
      <trkpt lat="42.96415" lon="1.87064">
        <ele>451.96</ele>
        <time>2016-12-28T16:20:48Z</time>
      </trkpt>
      <trkpt lat="42.96416" lon="1.87065">
        <ele>451.96</ele>
        <time>2016-12-28T16:20:49Z</time>
      </trkpt>
      <trkpt lat="42.96417" lon="1.87066">
        <ele>451.96</ele>
        <time>2016-12-28T16:20:50Z</time>
      </trkpt>
      <trkpt lat="42.96418" lon="1.87067">
        <ele>451.96</ele>
        <time>2016-12-28T16:20:51Z</time>
      </trkpt>
      <trkpt lat="42.96419" lon="1.87068">
        <ele>451.96</ele>
        <time>2016-12-28T16:20:52Z</time>
      </trkpt>
      <trkpt lat="42.96421" lon="1.8707">
        <ele>451.96</ele>
        <time>2016-12-28T16:20:53Z</time>
      </trkpt>
      <trkpt lat="42.9645" lon="1.87095">
        <ele>450.52</ele>
        <time>2016-12-28T16:21:03Z</time>
      </trkpt>
      <trkpt lat="42.96456" lon="1.87102">
        <ele>449.07</ele>
        <time>2016-12-28T16:21:05Z</time>
      </trkpt>
      <trkpt lat="42.96497" lon="1.87142">
        <ele>448.59</ele>
        <time>2016-12-28T16:21:19Z</time>
      </trkpt>
      <trkpt lat="42.96527" lon="1.87178">
        <ele>448.59</ele>
        <time>2016-12-28T16:21:29Z</time>
      </trkpt>
      <trkpt lat="42.9653" lon="1.8718">
        <ele>448.59</ele>
        <time>2016-12-28T16:21:30Z</time>
      </trkpt>
      <trkpt lat="42.96533" lon="1.87181">
        <ele>448.59</ele>
        <time>2016-12-28T16:21:31Z</time>
      </trkpt>
      <trkpt lat="42.96536" lon="1.87184">
        <ele>448.59</ele>
        <time>2016-12-28T16:21:32Z</time>
      </trkpt>
      <trkpt lat="42.96539" lon="1.87187">
        <ele>448.11</ele>
        <time>2016-12-28T16:21:33Z</time>
      </trkpt>
      <trkpt lat="42.96568" lon="1.87224">
        <ele>448.11</ele>
        <time>2016-12-28T16:21:46Z</time>
      </trkpt>
      <trkpt lat="42.96585" lon="1.87241">
        <ele>450.52</ele>
        <time>2016-12-28T16:21:59Z</time>
      </trkpt>
      <trkpt lat="42.96582" lon="1.87242">
        <ele>450.52</ele>
        <time>2016-12-28T16:22:16Z</time>
      </trkpt>
      <trkpt lat="42.96596" lon="1.8725">
        <ele>450.52</ele>
        <time>2016-12-28T16:22:27Z</time>
      </trkpt>
      <trkpt lat="42.96598" lon="1.87249">
        <ele>450.52</ele>
        <time>2016-12-28T16:22:28Z</time>
      </trkpt>
      <trkpt lat="42.96601" lon="1.87249">
        <ele>450.52</ele>
        <time>2016-12-28T16:22:29Z</time>
      </trkpt>
      <trkpt lat="42.96618" lon="1.87245">
        <ele>449.55</ele>
        <time>2016-12-28T16:22:33Z</time>
      </trkpt>
      <trkpt lat="42.96638" lon="1.87242">
        <ele>448.59</ele>
        <time>2016-12-28T16:22:37Z</time>
      </trkpt>
      <trkpt lat="42.96644" lon="1.87242">
        <ele>448.59</ele>
        <time>2016-12-28T16:22:38Z</time>
      </trkpt>
      <trkpt lat="42.96649" lon="1.8724">
        <ele>448.11</ele>
        <time>2016-12-28T16:22:39Z</time>
      </trkpt>
      <trkpt lat="42.96654" lon="1.87238">
        <ele>448.11</ele>
        <time>2016-12-28T16:22:40Z</time>
      </trkpt>
      <trkpt lat="42.96659" lon="1.87236">
        <ele>448.11</ele>
        <time>2016-12-28T16:22:41Z</time>
      </trkpt>
      <trkpt lat="42.96663" lon="1.87234">
        <ele>448.11</ele>
        <time>2016-12-28T16:22:42Z</time>
      </trkpt>
      <trkpt lat="42.96685" lon="1.87222">
        <ele>447.15</ele>
        <time>2016-12-28T16:22:46Z</time>
      </trkpt>
      <trkpt lat="42.9669" lon="1.8722">
        <ele>447.15</ele>
        <time>2016-12-28T16:22:47Z</time>
      </trkpt>
      <trkpt lat="42.96696" lon="1.87219">
        <ele>447.15</ele>
        <time>2016-12-28T16:22:48Z</time>
      </trkpt>
      <trkpt lat="42.96771" lon="1.87203">
        <ele>445.71</ele>
        <time>2016-12-28T16:23:01Z</time>
      </trkpt>
      <trkpt lat="42.96837" lon="1.87184">
        <ele>445.71</ele>
        <time>2016-12-28T16:23:15Z</time>
      </trkpt>
      <trkpt lat="42.96851" lon="1.87184">
        <ele>445.71</ele>
        <time>2016-12-28T16:23:18Z</time>
      </trkpt>
      <trkpt lat="42.96856" lon="1.87184">
        <ele>445.23</ele>
        <time>2016-12-28T16:23:19Z</time>
      </trkpt>
      <trkpt lat="42.96907" lon="1.87181">
        <ele>445.23</ele>
        <time>2016-12-28T16:23:31Z</time>
      </trkpt>
      <trkpt lat="42.96911" lon="1.8718">
        <ele>445.23</ele>
        <time>2016-12-28T16:23:32Z</time>
      </trkpt>
      <trkpt lat="42.96915" lon="1.87179">
        <ele>445.23</ele>
        <time>2016-12-28T16:23:33Z</time>
      </trkpt>
      <trkpt lat="42.96941" lon="1.87173">
        <ele>447.15</ele>
        <time>2016-12-28T16:23:39Z</time>
      </trkpt>
      <trkpt lat="42.96945" lon="1.87172">
        <ele>446.67</ele>
        <time>2016-12-28T16:23:40Z</time>
      </trkpt>
      <trkpt lat="42.96947" lon="1.8717">
        <ele>447.15</ele>
        <time>2016-12-28T16:23:41Z</time>
      </trkpt>
      <trkpt lat="42.96949" lon="1.87168">
        <ele>447.15</ele>
        <time>2016-12-28T16:23:42Z</time>
      </trkpt>
      <trkpt lat="42.96949" lon="1.87167">
        <ele>447.15</ele>
        <time>2016-12-28T16:23:43Z</time>
      </trkpt>
      <trkpt lat="42.96949" lon="1.87165">
        <ele>447.15</ele>
        <time>2016-12-28T16:23:44Z</time>
      </trkpt>
      <trkpt lat="42.96948" lon="1.87163">
        <ele>447.15</ele>
        <time>2016-12-28T16:23:45Z</time>
      </trkpt>
      <trkpt lat="42.96947" lon="1.8716">
        <ele>447.15</ele>
        <time>2016-12-28T16:23:46Z</time>
      </trkpt>
      <trkpt lat="42.9694" lon="1.8714">
        <ele>445.71</ele>
        <time>2016-12-28T16:23:52Z</time>
      </trkpt>
      <trkpt lat="42.96941" lon="1.87138">
        <ele>445.71</ele>
        <time>2016-12-28T16:23:53Z</time>
      </trkpt>
      <trkpt lat="42.96942" lon="1.87136">
        <ele>445.71</ele>
        <time>2016-12-28T16:23:54Z</time>
      </trkpt>
      <trkpt lat="42.96942" lon="1.87134">
        <ele>445.23</ele>
        <time>2016-12-28T16:23:55Z</time>
      </trkpt>
      <trkpt lat="42.96942" lon="1.87129">
        <ele>443.79</ele>
        <time>2016-12-28T16:24:06Z</time>
      </trkpt>
      <trkpt lat="42.96943" lon="1.8713">
        <ele>443.79</ele>
        <time>2016-12-28T16:24:31Z</time>
      </trkpt>
      <trkpt lat="42.9694" lon="1.87131">
        <ele>443.79</ele>
        <time>2016-12-28T16:24:43Z</time>
      </trkpt>
      <trkpt lat="42.96938" lon="1.87132">
        <ele>443.31</ele>
        <time>2016-12-28T16:25:07Z</time>
      </trkpt>
      <trkpt lat="42.96937" lon="1.87137">
        <ele>443.31</ele>
        <time>2016-12-28T16:25:45Z</time>
      </trkpt>
      <trkpt lat="42.96937" lon="1.87137">
        <ele>443.31</ele>
        <time>2016-12-28T16:26:27Z</time>
      </trkpt>
      <trkpt lat="42.96939" lon="1.87134">
        <ele>444.75</ele>
        <time>2016-12-28T16:26:42Z</time>
      </trkpt>
      <trkpt lat="42.9694" lon="1.87134">
        <ele>445.23</ele>
        <time>2016-12-28T16:26:56Z</time>
      </trkpt>
      <trkpt lat="42.96941" lon="1.87127">
        <ele>445.23</ele>
        <time>2016-12-28T16:27:08Z</time>
      </trkpt>
      <trkpt lat="42.96938" lon="1.87125">
        <ele>445.71</ele>
        <time>2016-12-28T16:27:28Z</time>
      </trkpt>
      <trkpt lat="42.96939" lon="1.87128">
        <ele>446.19</ele>
        <time>2016-12-28T16:27:47Z</time>
      </trkpt>
      <trkpt lat="42.96938" lon="1.87127">
        <ele>446.19</ele>
        <time>2016-12-28T16:28:15Z</time>
      </trkpt>
      <trkpt lat="42.9694" lon="1.87127">
        <ele>446.19</ele>
        <time>2016-12-28T16:28:48Z</time>
      </trkpt>
      <trkpt lat="42.96939" lon="1.87124">
        <ele>446.67</ele>
        <time>2016-12-28T16:29:25Z</time>
      </trkpt>
    </trkseg>
  </trk>
</gpx>